[[{"header":{"parameterUnit":"m.s-1","parameterCategory":1,"la1":30.6,"la2":29.2853,"lo1":-89.7004,"lo2":-87.6739,"dy":0.0162,"dx":0.0183,"nx":112,"ny":82,"refTime":"2024-05-15T12:00:00:Z","depth":0,"parameterNumber":2,"parameterNumberName":"U-component_of_WINDS"},"data":[0.0,0.0,0.0,0.0,0.0,0.0,0.0,0.0,0.0,0.0,0.0,0.0,0.0,0.0,0.0,0.0,0.0,0.0,0.0,0.0,0.0,0.0,0.0,0.0,0.0,0.0,0.0,0.0,0.0,0.0,0.0,0.0,0.0,0.0,0.0,0.0,0.0,0.0,0.0,0.0,0.0,0.0,0.0,0.0,0.0,0.0,0.0,0.0,0.0,0.0,0.0,0.0,0.0,0.0,0.0,0.0,0.0,0.0,0.0,0.0,0.0,0.0,0.0,0.0,0.0,0.0,0.0,0.0,0.0,0.0,0.0,0.0,0.0,0.0,0.0,0.0,0.0,0.0,0.0,0.0,0.0,0.0,0.0,0.0,0.0,0.0,0.0,0.0,0.0,0.0,-5.8448,-6.2565,-6.9518,-7.3477,-7.2631,-7.0331,-6.4884,-5.5378,0.0,0.0,0.0,0.0,0.0,0.0,0.0,0.0,0.0,0.0,0.0,0.0,0.0,0.0,0.0,0.0,0.0,0.0,0.0,0.0,0.0,0.0,0.0,0.0,0.0,0.0,0.0,0.0,0.0,0.0,0.0,0.0,0.0,0.0,0.0,0.0,0.0,0.0,0.0,0.0,0.0,0.0,0.0,0.0,0.0,0.0,0.0,0.0,0.0,0.0,0.0,0.0,0.0,0.0,0.0,0.0,0.0,0.0,0.0,0.0,0.0,0.0,0.0,0.0,0.0,0.0,0.0,0.0,0.0,0.0,0.0,0.0,0.0,0.0,0.0,0.0,0.0,0.0,0.0,0.0,0.0,0.0,0.0,0.0,0.0,0.0,0.0,0.0,0.0,0.0,0.0,0.0,0.0,0.0,0.0,0.0,0.0,0.0,0.0,0.0,0.0,0.0,0.0,0.0,-5.9028,-6.9601,-7.3501,-7.4796,-7.3443,-7.0094,-6.4478,-5.6089,0.0,0.0,0.0,0.0,0.0,0.0,0.0,0.0,0.0,0.0,0.0,0.0,0.0,0.0,0.0,0.0,0.0,0.0,0.0,0.0,0.0,0.0,0.0,0.0,0.0,0.0,0.0,0.0,0.0,0.0,0.0,0.0,0.0,0.0,0.0,0.0,0.0,0.0,0.0,0.0,0.0,0.0,0.0,0.0,0.0,0.0,0.0,0.0,0.0,0.0,0.0,0.0,0.0,0.0,0.0,0.0,0.0,0.0,0.0,0.0,0.0,0.0,0.0,0.0,0.0,0.0,0.0,0.0,0.0,0.0,0.0,0.0,0.0,0.0,0.0,0.0,0.0,0.0,0.0,0.0,0.0,0.0,0.0,0.0,0.0,0.0,0.0,0.0,0.0,0.0,0.0,0.0,0.0,0.0,0.0,0.0,0.0,0.0,0.0,0.0,0.0,0.0,0.0,-5.8605,-6.3184,-7.3342,-7.517,-7.51,-7.3612,-7.0466,-6.4884,-5.6258,-5.1792,0.0,0.0,0.0,0.0,0.0,0.0,0.0,0.0,0.0,0.0,0.0,0.0,0.0,0.0,0.0,0.0,0.0,0.0,0.0,0.0,0.0,0.0,0.0,0.0,0.0,0.0,0.0,0.0,0.0,0.0,0.0,0.0,0.0,0.0,0.0,0.0,0.0,0.0,0.0,0.0,0.0,0.0,0.0,0.0,0.0,0.0,0.0,0.0,0.0,0.0,0.0,0.0,0.0,0.0,0.0,0.0,0.0,0.0,0.0,0.0,0.0,0.0,0.0,0.0,0.0,0.0,0.0,0.0,0.0,0.0,0.0,0.0,0.0,0.0,0.0,0.0,0.0,0.0,0.0,0.0,0.0,0.0,0.0,0.0,0.0,0.0,0.0,0.0,0.0,0.0,0.0,0.0,0.0,0.0,0.0,0.0,0.0,0.0,0.0,0.0,0.0,0.0,-6.5138,-6.8695,-7.5638,-7.5971,-7.51,-7.3612,-7.0128,-6.4512,-5.6188,-5.0845,0.0,0.0,0.0,0.0,0.0,0.0,0.0,0.0,0.0,0.0,0.0,0.0,0.0,0.0,0.0,0.0,0.0,0.0,0.0,0.0,0.0,0.0,0.0,0.0,0.0,0.0,0.0,0.0,0.0,0.0,0.0,0.0,0.0,0.0,0.0,0.0,0.0,0.0,0.0,0.0,0.0,0.0,0.0,0.0,0.0,0.0,0.0,0.0,0.0,0.0,0.0,0.0,0.0,0.0,0.0,0.0,0.0,0.0,0.0,0.0,0.0,0.0,0.0,0.0,0.0,0.0,0.0,0.0,0.0,0.0,0.0,0.0,0.0,0.0,0.0,0.0,0.0,0.0,0.0,0.0,0.0,0.0,0.0,0.0,0.0,0.0,0.0,0.0,0.0,0.0,0.0,0.0,0.0,0.0,0.0,0.0,0.0,0.0,0.0,0.0,0.0,0.0,-6.8752,-7.5178,-7.7042,-7.6324,-7.51,-7.3612,-6.8233,-6.2279,-5.6122,-4.8917,0.0,0.0,0.0,0.0,0.0,0.0,0.0,0.0,0.0,0.0,0.0,0.0,0.0,0.0,0.0,0.0,0.0,0.0,0.0,0.0,0.0,0.0,0.0,0.0,0.0,0.0,0.0,0.0,0.0,0.0,0.0,0.0,0.0,0.0,0.0,0.0,0.0,0.0,0.0,0.0,0.0,0.0,0.0,0.0,0.0,0.0,0.0,0.0,0.0,0.0,0.0,0.0,0.0,0.0,0.0,0.0,0.0,0.0,0.0,0.0,0.0,0.0,0.0,0.0,0.0,0.0,0.0,0.0,0.0,0.0,0.0,0.0,0.0,0.0,0.0,0.0,0.0,0.0,0.0,0.0,0.0,0.0,0.0,0.0,0.0,0.0,0.0,0.0,0.0,0.0,0.0,0.0,0.0,0.0,0.0,0.0,0.0,0.0,0.0,0.0,0.0,0.0,-6.6068,-7.1531,0.0,-7.5926,-7.51,-7.3612,-6.9755,-6.4072,-5.6224,0.0,0.0,0.0,0.0,0.0,0.0,0.0,0.0,0.0,0.0,0.0,0.0,0.0,0.0,0.0,0.0,0.0,0.0,0.0,0.0,0.0,0.0,0.0,0.0,0.0,0.0,0.0,0.0,0.0,0.0,0.0,0.0,0.0,0.0,0.0,0.0,0.0,0.0,0.0,0.0,0.0,0.0,0.0,0.0,0.0,0.0,0.0,0.0,0.0,0.0,0.0,0.0,0.0,0.0,0.0,0.0,0.0,0.0,0.0,0.0,0.0,0.0,0.0,0.0,0.0,0.0,0.0,0.0,0.0,0.0,0.0,0.0,0.0,0.0,0.0,0.0,0.0,0.0,0.0,0.0,0.0,0.0,0.0,0.0,0.0,0.0,0.0,0.0,0.0,0.0,0.0,0.0,0.0,0.0,0.0,0.0,0.0,0.0,0.0,0.0,0.0,0.0,-6.1081,-6.646,-7.1538,0.0,-7.6114,-7.4999,-7.3274,-6.9586,-6.3903,-5.5852,0.0,0.0,0.0,0.0,0.0,0.0,0.0,0.0,0.0,0.0,0.0,0.0,0.0,0.0,0.0,0.0,0.0,0.0,0.0,0.0,0.0,0.0,0.0,0.0,0.0,0.0,0.0,0.0,0.0,0.0,0.0,0.0,0.0,0.0,0.0,0.0,0.0,0.0,0.0,0.0,0.0,0.0,0.0,0.0,0.0,0.0,0.0,0.0,0.0,0.0,0.0,0.0,0.0,0.0,0.0,0.0,0.0,0.0,0.0,0.0,0.0,0.0,0.0,0.0,0.0,0.0,0.0,0.0,0.0,0.0,0.0,0.0,0.0,0.0,0.0,0.0,0.0,0.0,0.0,0.0,0.0,0.0,0.0,0.0,0.0,0.0,0.0,0.0,0.0,0.0,0.0,0.0,0.0,0.0,0.0,0.0,0.0,0.0,0.0,0.0,0.0,0.0,-6.3551,-7.1316,-7.7134,-7.8766,-7.7016,-7.4796,-7.2597,-6.6948,-6.0994,0.0,0.0,0.0,0.0,0.0,0.0,0.0,0.0,0.0,0.0,0.0,0.0,0.0,0.0,0.0,0.0,0.0,0.0,0.0,0.0,0.0,0.0,0.0,0.0,0.0,0.0,0.0,0.0,0.0,0.0,0.0,0.0,0.0,0.0,0.0,0.0,0.0,0.0,0.0,0.0,0.0,0.0,0.0,0.0,0.0,0.0,0.0,0.0,0.0,0.0,0.0,0.0,0.0,0.0,0.0,0.0,0.0,0.0,0.0,0.0,0.0,0.0,0.0,0.0,0.0,0.0,0.0,0.0,0.0,0.0,0.0,0.0,0.0,0.0,0.0,0.0,0.0,0.0,0.0,0.0,0.0,0.0,0.0,0.0,0.0,0.0,0.0,0.0,0.0,0.0,0.0,0.0,0.0,0.0,0.0,0.0,0.0,0.0,0.0,0.0,0.0,0.0,0.0,-6.2225,-7.0113,-7.5767,-7.6564,-7.5591,-7.4255,-7.2529,-6.8368,-6.2618,-5.5074,0.0,0.0,0.0,0.0,0.0,0.0,0.0,0.0,0.0,0.0,0.0,0.0,0.0,0.0,0.0,0.0,0.0,0.0,0.0,0.0,0.0,0.0,0.0,0.0,0.0,0.0,0.0,0.0,0.0,0.0,0.0,0.0,0.0,0.0,0.0,0.0,0.0,0.0,0.0,0.0,0.0,0.0,0.0,0.0,0.0,0.0,0.0,0.0,0.0,0.0,0.0,0.0,0.0,0.0,0.0,0.0,0.0,0.0,0.0,0.0,0.0,0.0,0.0,0.0,0.0,0.0,0.0,0.0,0.0,0.0,0.0,0.0,0.0,0.0,0.0,0.0,0.0,0.0,0.0,0.0,0.0,0.0,0.0,0.0,0.0,0.0,0.0,0.0,0.0,0.0,0.0,0.0,0.0,0.0,0.0,0.0,0.0,0.0,0.0,0.0,0.0,0.0,-6.1841,-6.9782,-7.542,-7.6245,-7.5281,-7.4018,-7.2529,-6.8707,-6.3125,-5.5513,0.0,0.0,0.0,0.0,0.0,0.0,0.0,0.0,0.0,0.0,0.0,0.0,0.0,0.0,0.0,0.0,0.0,0.0,0.0,0.0,0.0,0.0,0.0,0.0,0.0,0.0,0.0,0.0,0.0,0.0,0.0,0.0,0.0,0.0,0.0,0.0,0.0,0.0,0.0,0.0,0.0,0.0,0.0,0.0,0.0,0.0,0.0,0.0,0.0,0.0,0.0,0.0,0.0,0.0,0.0,0.0,0.0,0.0,0.0,0.0,0.0,0.0,0.0,0.0,0.0,0.0,0.0,0.0,0.0,0.0,0.0,0.0,0.0,0.0,0.0,0.0,0.0,0.0,0.0,0.0,0.0,0.0,0.0,0.0,0.0,0.0,0.0,0.0,0.0,0.0,0.0,0.0,0.0,0.0,0.0,0.0,0.0,0.0,0.0,0.0,0.0,0.0,-6.2306,-7.0168,-7.5886,-7.7077,-7.5572,-7.3916,-7.2428,-6.8301,-6.2956,-5.6325,0.0,0.0,0.0,0.0,0.0,0.0,0.0,0.0,0.0,0.0,0.0,0.0,0.0,0.0,0.0,0.0,0.0,0.0,0.0,0.0,0.0,0.0,0.0,0.0,0.0,0.0,0.0,0.0,0.0,0.0,0.0,0.0,0.0,0.0,0.0,0.0,0.0,0.0,0.0,0.0,0.0,0.0,0.0,0.0,0.0,0.0,0.0,0.0,0.0,0.0,0.0,0.0,0.0,0.0,0.0,0.0,0.0,0.0,0.0,0.0,-6.464,-6.0786,0.0,0.0,0.0,0.0,0.0,0.0,0.0,0.0,0.0,0.0,0.0,0.0,0.0,0.0,0.0,0.0,0.0,0.0,0.0,0.0,0.0,0.0,0.0,0.0,0.0,0.0,0.0,0.0,0.0,0.0,0.0,0.0,0.0,0.0,0.0,0.0,0.0,0.0,0.0,0.0,-6.3059,-7.0949,-7.6313,-7.6426,-7.4787,-7.3138,-7.1684,-6.8504,-6.3937,-5.7814,-5.2063,0.0,0.0,0.0,0.0,0.0,0.0,0.0,0.0,0.0,0.0,0.0,0.0,0.0,0.0,0.0,0.0,0.0,0.0,0.0,0.0,0.0,0.0,0.0,0.0,0.0,0.0,0.0,0.0,0.0,0.0,0.0,0.0,0.0,0.0,0.0,0.0,0.0,0.0,0.0,0.0,0.0,0.0,0.0,0.0,0.0,0.0,0.0,0.0,0.0,0.0,0.0,0.0,0.0,0.0,0.0,0.0,0.0,0.0,0.0,-7.0596,-6.7283,0.0,0.0,0.0,0.0,0.0,0.0,0.0,0.0,0.0,0.0,0.0,0.0,0.0,0.0,0.0,0.0,0.0,0.0,0.0,0.0,0.0,0.0,0.0,0.0,0.0,0.0,0.0,0.0,0.0,0.0,0.0,0.0,0.0,0.0,0.0,0.0,0.0,0.0,0.0,0.0,-6.2068,-6.9305,-7.435,-7.4837,-7.3754,-7.2665,-7.1887,-6.8741,-6.4715,-5.9844,-5.4262,0.0,0.0,0.0,0.0,0.0,0.0,0.0,0.0,0.0,0.0,0.0,0.0,0.0,0.0,0.0,0.0,0.0,0.0,0.0,0.0,0.0,0.0,0.0,0.0,0.0,0.0,0.0,0.0,0.0,0.0,0.0,0.0,0.0,0.0,0.0,0.0,0.0,0.0,0.0,0.0,0.0,0.0,0.0,0.0,0.0,0.0,0.0,0.0,0.0,0.0,0.0,0.0,0.0,-7.8259,-7.936,-8.1305,-8.0645,-8.1819,-8.3948,-7.7781,-7.5726,-7.6203,-6.8972,0.0,0.0,0.0,0.0,0.0,0.0,0.0,0.0,0.0,0.0,0.0,0.0,0.0,0.0,0.0,0.0,0.0,0.0,0.0,0.0,0.0,0.0,-6.2506,-6.2738,-6.3729,-6.317,-5.7969,0.0,0.0,0.0,0.0,0.0,0.0,0.0,0.0,0.0,0.0,0.0,-6.1532,-6.778,-7.2276,-7.3493,-7.2869,-7.2225,-7.1853,-6.8842,-6.5358,-6.1535,-5.6258,-5.1082,0.0,0.0,0.0,0.0,0.0,0.0,0.0,0.0,0.0,0.0,0.0,0.0,0.0,0.0,0.0,0.0,0.0,0.0,0.0,0.0,0.0,0.0,0.0,0.0,0.0,0.0,0.0,0.0,0.0,0.0,0.0,0.0,-6.2475,-6.2915,0.0,0.0,0.0,0.0,0.0,0.0,0.0,0.0,0.0,0.0,0.0,0.0,0.0,-7.8038,-7.9874,-8.4132,-8.6407,-8.6664,-9.0078,-9.1913,-9.2207,-9.2097,-9.2281,-9.2611,-9.0959,0.0,-7.8993,-7.5102,0.0,0.0,0.0,0.0,0.0,0.0,0.0,0.0,0.0,0.0,0.0,0.0,0.0,0.0,0.0,0.0,0.0,0.0,0.0,0.0,0.0,0.0,-7.0297,-6.898,-6.8192,-6.7478,-6.6626,-6.0048,-5.3894,-5.2471,-5.0232,-4.7927,0.0,0.0,0.0,0.0,0.0,0.0,-6.4808,-6.9691,-7.2963,-7.3849,-7.3034,-7.1616,-6.9688,-6.8436,-6.5899,-6.1569,-5.8693,-5.5412,-5.1554,-4.7327,0.0,0.0,0.0,0.0,0.0,0.0,0.0,0.0,0.0,0.0,0.0,0.0,0.0,0.0,0.0,0.0,0.0,0.0,0.0,0.0,0.0,0.0,0.0,0.0,0.0,0.0,0.0,0.0,0.0,-6.1557,-6.5595,-6.4237,-6.4971,-6.4016,0.0,0.0,0.0,0.0,0.0,0.0,0.0,0.0,0.0,-8.2774,-8.4058,-8.5894,-8.8463,-9.1033,-9.2537,-9.3015,-9.5254,-9.6539,-9.7016,-9.7016,-9.7016,-9.6942,-9.5658,-9.2648,-8.8096,-8.1672,-7.6276,-7.1623,0.0,0.0,0.0,0.0,-6.5558,-6.6366,-6.9926,-7.0367,-6.9091,-6.7577,0.0,0.0,0.0,0.0,0.0,0.0,0.0,-6.4053,-6.6329,-6.9186,-7.1657,-7.2119,-7.1659,-7.0861,-7.0148,-6.5798,-6.107,-5.7606,-5.5892,-5.3435,-4.8461,-4.7992,0.0,0.0,0.0,-5.9571,-6.4037,-6.7796,-7.0328,-7.1157,-7.0852,-6.9958,-6.8538,-6.7726,-6.5764,-6.2144,-6.0182,-5.7679,-5.4397,-5.0744,-4.7056,0.0,0.0,0.0,0.0,0.0,0.0,0.0,0.0,0.0,0.0,0.0,0.0,0.0,0.0,0.0,0.0,0.0,0.0,0.0,0.0,0.0,0.0,0.0,0.0,0.0,0.0,0.0,0.0,-6.5228,-6.8935,-6.6549,-6.9302,-6.9082,0.0,0.0,0.0,0.0,0.0,0.0,-7.9947,-8.2076,-8.5416,-9.0225,-9.1363,-9.3161,-9.5804,-9.6649,-9.7346,-9.7933,-9.8521,-9.9108,-9.9695,-9.9695,-9.9695,-9.9659,-9.8227,-9.7052,-9.5437,-8.7142,-8.2039,-7.9066,-7.4625,-7.1762,-7.033,-7.1762,-7.2129,-7.2569,-7.7047,-7.8038,-7.687,-7.4331,-7.2239,-6.9559,-6.3282,0.0,0.0,0.0,0.0,-6.7136,-7.0954,-7.2236,-7.2919,-7.4544,-7.4168,-7.3116,-7.1944,-7.0009,-6.7169,-6.2647,-6.1247,-5.8765,-5.2536,-5.2228,0.0,-5.3218,-5.644,-6.0178,-6.3839,-6.6432,-6.8199,-6.9011,-6.891,-6.8402,-6.7421,-6.6677,-6.4986,-6.2009,-6.0723,-5.8964,-5.6393,-5.3754,-5.071,-4.7192,0.0,0.0,0.0,0.0,0.0,0.0,0.0,0.0,0.0,0.0,0.0,0.0,0.0,0.0,0.0,0.0,0.0,0.0,0.0,0.0,0.0,0.0,0.0,0.0,0.0,0.0,0.0,0.0,0.0,-7.2349,-7.7635,0.0,0.0,0.0,0.0,-7.6576,-8.0502,-8.4278,-8.7472,-9.0702,-9.3602,-9.6171,-9.7787,-9.9071,-9.9989,-10.0796,-10.12,-10.1274,-10.1274,-10.1274,-10.1384,-10.1384,-10.1384,-10.1274,-10.0503,-9.9218,-9.7273,-9.0629,-8.6885,-8.5049,-8.1746,-7.8956,-7.6907,-7.7855,-7.7671,-7.709,-7.8222,-7.8038,-7.753,-7.8919,-7.6203,-7.2165,-7.0991,-6.8531,0.0,0.0,-7.0844,-7.2826,-7.6063,-7.6818,-7.676,-7.6835,-7.5375,-7.3719,-7.2894,-7.078,-6.8583,-6.6876,-6.4243,-6.1705,-5.9832,0.0,-5.644,-5.9229,-5.9254,-6.0864,-6.6048,-6.7394,-6.8199,-6.9011,-6.8402,-6.7387,-6.5933,-6.5121,-6.3429,-6.0419,-6.0148,-5.9404,-5.7848,-5.6292,-5.4025,-5.098,-4.7293,0.0,0.0,0.0,0.0,0.0,0.0,0.0,0.0,0.0,0.0,0.0,0.0,0.0,0.0,0.0,0.0,0.0,0.0,0.0,0.0,0.0,0.0,0.0,0.0,0.0,0.0,0.0,0.0,-7.7304,-8.2443,0.0,-7.9213,-8.1122,-8.3141,-8.4242,-8.8096,-9.184,-9.5034,-9.6832,-9.8851,-10.131,-10.1384,-10.1604,-10.1824,-10.1604,-10.1494,-10.1494,-10.1494,-10.1494,-10.1494,-10.1494,-10.1494,-10.1494,-10.0613,-9.9695,-9.8411,-9.5034,-9.1767,-8.8683,-8.6481,-8.4462,-8.2737,-8.2553,-8.226,-8.2039,-8.237,-8.1929,-8.1085,-8.0094,-7.7892,-7.5542,-7.5219,-7.4338,-7.3744,-7.5175,-7.5983,-7.679,-7.8479,-7.8343,-7.7771,-7.7772,-7.684,-7.5676,-7.4663,-7.3422,-7.1947,-7.0302,-6.701,-6.373,-6.127,-6.0762,-6.0574,-6.0175,-6.1544,-6.3447,-6.5846,-6.675,-6.732,-6.759,-6.6948,-6.6068,-6.5087,-6.3869,-6.2279,-6.0216,-5.9674,-5.893,-5.7915,-5.6494,-5.4499,-5.1961,-4.9221,-4.4553,0.0,0.0,0.0,0.0,0.0,0.0,0.0,0.0,0.0,0.0,0.0,0.0,0.0,0.0,0.0,0.0,0.0,0.0,0.0,0.0,0.0,0.0,0.0,0.0,0.0,-7.5799,-8.1415,-8.1415,-8.7142,-8.9381,-8.5049,-8.8059,-9.0629,-9.14,-9.474,-9.7787,-10.0209,-10.141,-10.2711,-10.4297,-10.3818,-10.3412,-10.3116,-10.2319,-10.1788,-10.1494,-10.1494,-10.1494,-10.1494,-10.1494,-10.1494,-10.1494,-10.0907,-10.0099,-9.8998,-9.7676,-9.5034,-9.1693,-9.0041,-8.828,-8.6518,-8.571,-8.5086,-8.4572,-8.4278,-8.3691,-8.2737,-8.1122,-7.9874,-7.8919,-7.8631,-7.8521,-7.8699,-7.925,-7.9396,-7.9617,-8.0388,-8.0074,-7.9417,-7.8874,-7.8052,-7.7054,-7.5832,-7.489,-7.394,-7.2788,-6.9454,-6.6068,-6.3599,-6.3768,-6.3666,-6.1873,-6.3531,-6.5155,-6.5628,-6.6339,-6.6812,-6.6812,-6.5933,-6.5019,-6.4309,-6.2618,-6.1061,-5.981,-5.8795,-5.7949,-5.7171,-5.575,-5.4025,-5.1961,-4.9289,-4.5094,-3.9377,0.0,0.0,0.0,0.0,0.0,0.0,0.0,0.0,0.0,0.0,0.0,0.0,0.0,0.0,0.0,0.0,0.0,0.0,0.0,0.0,0.0,0.0,0.0,-7.4146,-8.0236,-8.4899,-8.4976,-9.1987,-9.496,-9.0262,-9.4079,-9.7163,-9.8048,-10.0325,-10.2015,-10.2787,-10.443,-10.5316,-10.5317,-10.5169,-10.4797,-10.3977,-10.3077,-10.2301,-10.1494,-10.1494,-10.1494,-10.1494,-10.1494,-10.1494,-10.1494,-10.1494,-10.0576,-9.8998,-9.8227,-9.6465,-9.4079,-9.2427,-9.0335,-8.8133,-8.7325,-8.6004,-8.4499,-8.3654,-8.2847,-8.2186,-8.2186,-8.2186,-8.2039,-8.1269,-8.1048,-8.1048,-8.1048,-8.1048,-8.1232,-8.2003,-8.2186,-8.1782,-8.0167,-7.8999,-7.7806,-7.6182,-7.5048,-7.4348,-7.4348,-7.1578,-6.8725,-6.7193,-6.6279,-6.5534,-6.4783,-6.5256,0.0,-6.573,-6.6373,-6.6779,-6.6745,-6.5425,-6.4275,-6.3531,-6.14,-5.9776,-5.9066,-5.7611,-5.6461,-5.5715,-5.4296,-5.2773,-5.1219,-4.7597,-4.4587,-4.232,0.0,0.0,0.0,0.0,0.0,0.0,0.0,0.0,0.0,0.0,0.0,0.0,0.0,0.0,0.0,0.0,0.0,0.0,0.0,0.0,0.0,-7.5199,-7.9486,-7.9061,-8.5747,-9.1354,-9.3162,-9.6906,-9.8998,-9.8264,-9.9365,-10.082,-10.2203,-10.2908,-10.4202,-10.6212,-10.6781,-10.6989,-10.692,-10.5765,-10.4802,-10.3884,-10.25,-10.1677,-10.1494,-10.1494,-10.1494,-10.1494,-10.1494,-10.1494,-10.1494,-10.1494,-10.0283,-9.819,-9.797,-9.6135,-9.3272,-9.1583,-9.0188,-8.8904,-8.7509,-8.6004,-8.4389,-8.2994,-8.237,-8.2186,-8.2186,-8.2186,-8.215,-8.1929,-8.1856,-8.1856,-8.1856,-8.1856,-8.1929,-8.215,-8.2186,-8.1782,-8.0167,-7.9567,-7.8898,-7.7253,-7.6094,-7.5405,-7.5405,-7.357,-7.1547,-6.9854,-6.8975,-6.7937,-6.643,-6.6373,-6.6508,-6.6508,-6.6677,-6.6406,-6.5324,-6.4377,-6.3497,-6.2753,-6.0622,-5.9235,-5.9032,-5.7137,-5.5919,-5.5716,-5.4296,-5.2773,-5.1219,-4.7597,-4.4857,0.0,0.0,0.0,0.0,0.0,0.0,0.0,0.0,0.0,0.0,0.0,0.0,0.0,0.0,0.0,0.0,0.0,0.0,0.0,0.0,0.0,0.0,-8.1555,-8.6302,-8.7369,-9.1552,-9.5473,-9.7937,-9.9732,-10.1289,-10.2382,-10.2198,-10.2797,-10.4904,-10.5013,-10.5809,-10.7572,-10.8395,-10.8597,-10.8199,-10.719,-10.5985,-10.4489,-10.3205,-10.2191,-10.1494,-10.1494,-10.1494,-10.1494,-10.1494,-10.1494,-10.1494,-10.109,-9.9805,-9.7823,-9.7163,-9.5401,-9.2941,0.0,0.0,0.0,0.0,-8.6004,-8.4462,-8.3544,-8.2774,-8.2186,-8.2186,-8.2186,-8.2186,-8.2186,-8.2186,-8.2186,-8.2186,-8.2186,-8.2186,-8.2186,-8.1929,-8.1379,-8.0094,-7.9543,-7.8919,-7.7567,-7.6824,-7.6396,-7.6396,-7.5631,0.0,-7.1625,-7.024,-6.8813,-6.6641,-6.6609,-6.6711,-6.6373,-6.6609,-6.6373,-6.5189,-6.441,-6.3531,-6.2482,-6.0317,0.0,0.0,0.0,-5.5277,-5.4329,-5.2875,0.0,0.0,0.0,0.0,0.0,0.0,0.0,0.0,-4.4688,-4.4113,0.0,0.0,0.0,0.0,0.0,0.0,0.0,0.0,0.0,0.0,0.0,0.0,0.0,0.0,0.0,0.0,-8.8076,-9.4164,-9.6907,-9.735,-9.82,-10.0294,-10.1289,-10.2303,-10.3723,-10.3415,-10.4088,-10.6516,-10.6715,-10.7078,-10.8107,-10.9502,0.0,0.0,0.0,-10.7665,-10.5206,-10.4304,-10.3084,-10.1494,-10.1494,-10.1494,-10.1494,-10.1494,-10.1494,-10.1494,-10.0613,-9.9328,-9.764,-9.6135,-9.441,-9.2537,-9.1069,-8.9931,-8.8977,-8.7435,-8.5894,-8.4609,-8.4499,0.0,0.0,-8.2186,-8.2186,-8.2186,-8.2186,-8.2186,-8.2186,-8.2186,-8.2186,-8.2186,-8.2076,-8.1525,-8.0791,-7.9874,-7.9103,-7.8369,-7.7494,-7.7273,-7.7273,-7.7273,-7.7237,-7.6077,-7.2691,-7.0847,-6.8863,-6.6207,-6.6373,-6.6576,-6.5899,-6.6406,-6.6474,-6.5527,-6.4884,0.0,-6.2381,-6.0283,-5.9032,-5.9032,-5.6934,-5.4769,-5.2638,-5.1386,-5.0676,-5.0608,-5.1251,-5.186,-5.2435,-5.3247,-5.3619,-5.3484,-4.8105,-4.6989,0.0,0.0,0.0,0.0,0.0,0.0,0.0,0.0,0.0,0.0,0.0,0.0,0.0,0.0,0.0,-8.5699,-9.1836,-9.7181,-10.0887,-10.1521,-10.1681,-10.2201,-10.2981,-10.3391,-10.3033,-10.4708,-10.6202,-10.7415,-10.809,-10.9225,-11.0701,-11.1086,-11.0798,-10.9987,-10.9301,-10.7805,-10.5206,-10.4391,-10.3091,-10.1494,-10.1494,0.0,-10.1494,-10.1494,-10.1494,-10.1494,-10.0613,-9.9035,-9.6869,-9.5914,-9.3382,-9.0115,-8.9784,-8.8757,-8.7362,-8.6371,-8.5416,-8.4499,-8.3875,-8.2994,-8.2186,-8.2186,-8.2186,-8.2186,-8.2186,-8.2186,0.0,-8.2186,-8.2186,-8.2039,-8.1415,-8.1122,-8.0645,-7.9176,-7.8699,-7.8369,-7.7494,-7.7273,-7.7273,-7.7273,-7.679,-7.5452,-7.2585,-7.1829,-7.0447,-6.7112,-6.6711,-6.6779,-6.6609,-6.6711,-6.6068,-6.414,-6.3802,-6.3125,-6.1637,-5.9979,-5.9032,-5.9032,-5.6934,-5.5243,-5.4194,-5.4465,-5.4329,-5.3721,-5.3856,-5.3721,-5.3281,-5.4025,-5.4397,-5.4329,-5.2604,-5.2097,0.0,0.0,0.0,0.0,0.0,0.0,0.0,0.0,0.0,0.0,0.0,-7.1204,0.0,0.0,-8.4339,-8.9548,-9.4147,-9.8098,-10.1013,-10.2108,-10.2786,-10.3275,-10.3696,-10.4299,-10.5084,-10.6405,-10.7804,-10.949,-10.9593,-11.0172,-11.1385,-11.1522,-11.1101,-11.0203,-10.9375,-10.7688,-10.5206,-10.4423,-10.3094,-10.1494,-10.1494,-10.1494,-10.1494,-10.109,-10.0907,-10.0796,-9.9622,-9.797,-9.5951,-9.3896,-9.162,-8.9345,-8.8977,-8.8059,-8.6958,-8.6554,-8.5637,-8.4535,-8.4132,-8.3214,-8.2186,-8.2186,-8.2186,-8.2186,-8.2186,-8.2186,-8.2186,-8.2186,-8.2186,-8.2003,-8.1232,-8.0718,-8.0094,-7.8883,-7.8259,-7.7855,-7.7384,-7.7273,-7.7273,-7.7273,-7.6644,-7.527,-7.2549,-7.1763,-7.0429,-6.7282,-6.6812,-6.6812,-6.6812,-6.6474,-6.5696,-6.4208,-6.3734,-6.3057,-6.1941,-6.0452,-5.9404,-5.9032,-5.7273,-5.6089,-5.5716,-5.5716,-5.5547,-5.5175,-5.5513,-5.5513,-5.5141,-5.5886,-5.6224,-5.6224,-5.5852,-5.5513,0.0,0.0,0.0,0.0,0.0,0.0,0.0,0.0,-6.721,-7.1945,-7.4184,-7.6744,-8.1384,-8.4703,-8.8226,-9.273,-9.6059,-9.8683,-10.0389,-10.1821,-10.302,-10.4107,-10.4493,-10.5397,-10.7289,-10.7978,-10.9183,-11.1093,-11.0803,-11.0791,-11.1522,-11.1522,-11.1185,-11.0525,-10.9621,-10.8005,-10.549,-10.4596,-10.3316,-10.1494,-10.1494,-10.1494,-10.1494,-10.0796,-10.0393,-10.0209,-9.8264,-9.6612,-9.5034,-9.1913,-9.0152,-8.9308,-8.85,-8.7729,-8.6995,-8.6995,-8.6004,-8.4609,-8.4609,-8.3544,-8.2186,-8.2186,-8.2186,-8.2186,-8.2186,-8.2186,-8.2186,-8.2186,-8.2186,-8.1966,-8.1012,-8.0277,-7.9543,-7.8589,-7.7818,-7.7273,-7.7273,-7.7273,-7.7273,-7.7273,-7.6533,-7.5087,-7.2513,-7.1302,-6.9795,-6.718,-6.6812,-6.6812,-6.6812,-6.617,-6.5425,-6.4681,-6.3937,-6.3159,-6.2245,-6.1061,-5.9945,-5.9066,-5.7881,-5.7171,-5.7036,-5.6461,-5.6156,-5.6156,-5.6697,-5.7002,-5.7036,-5.7611,-5.7881,-5.7881,-5.7881,-5.7577,-5.796,-5.8694,-6.1117,-6.4677,-6.5742,-6.8385,0.0,0.0,-7.8002,-8.215,-8.4278,-8.5817,-8.7132,-8.935,-9.2149,-9.5602,-9.8274,-10.0489,-10.2089,-10.2502,-10.3216,-10.4791,-10.6297,-10.7102,-10.6587,-10.9315,-11.0886,-11.041,-11.1001,-11.1406,-11.1522,-11.1522,-11.1478,-11.1374,-11.0512,-10.8894,-10.6415,-10.5517,-10.3914,-10.1494,-10.1494,-10.1494,-10.1494,-10.1384,-10.098,-10.0099,-9.7089,-9.5254,-9.4226,-9.1657,-9.0152,-8.9308,-8.85,-8.7729,-8.6995,-8.6995,-8.6004,-8.4609,-8.4609,-8.3544,-8.2186,-8.2186,-8.2186,-8.2186,-8.2186,-8.2186,-8.2186,-8.2186,-8.2186,-8.1856,-8.0314,-7.9874,-7.9396,-7.7818,-7.7347,-7.7273,-7.7273,-7.7273,-7.7273,-7.7273,-7.6063,-7.44,-7.2442,-7.0841,-6.9161,-6.7112,-6.6812,-6.6812,-6.6812,-6.617,-6.5425,-6.4681,-6.3937,-6.2956,-6.1535,-6.1264,-6.0554,-5.9099,-5.8863,-5.8457,-5.778,-5.7679,-5.7645,-5.7645,-5.7712,-5.778,-5.778,-5.7848,-5.7881,-5.7881,-5.7881,-5.7848,-6.5632,-6.5888,-6.6806,-6.9889,-7.2459,-7.5506,-8.0388,-8.1085,-8.1819,-8.5857,-8.7619,-8.8793,-9.0078,-9.1869,-9.3805,0.0,-9.7567,-9.9207,-10.0317,-10.1293,-10.2103,-10.2806,-10.5311,-10.7211,-10.7787,-10.9582,-11.0798,-11.0893,-11.1291,-11.1522,-11.1522,-11.1522,-11.1522,-11.1522,-10.9689,-10.8003,-10.6502,-10.4715,-10.3012,-10.1494,-10.1494,-10.1494,-10.1494,-10.0503,-9.9145,-9.7419,-9.5584,-9.4336,-9.3418,-9.0922,-8.9711,-8.9235,-8.8023,-8.7325,-8.6958,-8.6481,-8.5563,-8.4535,-8.4058,-8.3141,-8.2186,-8.2186,-8.2186,-8.2186,-8.2186,-8.2186,-8.2186,-8.2186,-8.2186,-8.1929,-8.0791,-8.0131,-7.9507,-7.8332,-7.7671,-7.7273,-7.7273,-7.7273,-7.7273,-7.7273,-7.5989,-7.4482,-7.3139,-7.1125,-6.924,-6.7827,-6.7161,-6.6812,-6.6812,-6.5797,-6.4613,-6.3429,-6.3024,-6.2618,-6.1975,-6.1535,-6.1028,-6.0385,-5.9505,-5.8863,-5.8558,-5.8118,-5.7881,-5.7881,-5.7881,-5.7881,-5.7881,-5.7881,-5.7881,-5.7881,-5.7881,-5.7881,-6.959,-7.0719,-7.2092,-7.4191,-7.7891,-8.1365,-8.2435,-8.3594,-8.5345,-8.8276,-8.9702,-9.0764,-9.1913,-9.3345,-9.4706,-9.595,-9.7242,-9.8498,-9.9482,-10.0389,-10.1099,-10.1307,-10.3289,-10.5482,-10.7598,-10.9098,-11.0214,-11.1098,-11.1098,-11.1214,-11.1522,-11.1522,-11.1522,-11.1522,-10.9006,-10.73,-10.6502,-10.3979,-10.2315,-10.1494,-10.1274,-10.12,-10.109,-9.9512,-9.7713,-9.5768,-9.474,-9.3822,-9.2905,-9.0445,-8.9382,-8.9235,-8.7655,-8.6995,-8.6885,-8.5857,-8.5086,-8.4499,-8.3691,-8.2884,-8.2186,-8.2186,-8.2186,-8.2186,-8.2186,-8.2186,-8.2186,-8.2186,-8.2186,-8.2003,-8.1232,-8.0388,-7.958,-7.8772,-7.7928,-7.7273,-7.7273,-7.7273,-7.7273,-7.7273,-7.6203,-7.486,-7.3711,-7.1581,-6.9597,-6.8378,-6.7414,-6.6812,-6.6812,-6.5527,-6.4106,-6.2821,-6.2516,-6.2381,-6.2381,-6.1907,-6.1535,-6.1332,-6.025,-5.9438,-5.9032,-5.849,-5.8084,-5.7881,-5.7881,-5.7881,-5.7881,-5.7881,-5.7881,-5.7881,-5.7881,-5.7881,-6.6948,-7.0691,-7.5718,-7.6921,-8.0778,-8.4733,-8.6427,-8.8585,-9.0276,-9.0476,-9.1805,-9.2918,-9.3051,-9.3749,-9.503,-9.7358,-9.8412,-9.9482,-10.1011,-10.0596,-10.0385,-10.1212,-10.0712,-10.1597,-10.4905,-10.7482,-10.929,-11.0214,-11.0214,-11.0598,-11.1522,-11.1522,-11.1522,-11.1522,-10.9006,-10.73,-10.6502,-10.3979,-10.2315,-10.1494,-10.0686,-10.0319,-10.0283,-9.8668,-9.7456,-9.6575,-9.4997,-9.3822,-9.2905,-9.0445,-8.9382,-8.9235,-8.7655,-8.6995,-8.6811,-8.5233,-8.4609,-8.4499,-8.3691,-8.2884,-8.2186,-8.2186,-8.2186,-8.2186,-8.2186,-8.2186,-8.2186,-8.2186,-8.2186,-8.2003,-8.1232,-8.0388,-7.958,-7.8772,-7.7928,-7.7273,-7.7273,-7.7273,-7.7273,-7.7273,-7.6644,-7.5519,-7.3783,-7.2045,-7.0232,-6.8447,-6.7414,-6.6812,-6.6812,-6.5527,-6.4309,-6.3565,-6.2821,-6.2381,-6.2381,-6.2381,-6.2042,-6.1366,-6.1264,-6.0554,-5.9066,-5.8998,-5.8626,-5.7915,-5.7881,-5.7881,-5.7881,-5.7881,-5.7881,-5.7881,-5.7881,-5.7881,-7.1745,-7.5592,-7.966,-8.2744,-8.5988,-8.8812,-9.0451,-9.1046,-9.1207,-9.1186,-9.0742,-9.0197,-8.9771,-9.0387,-9.1734,-9.4223,-9.5738,-9.7521,-10.0213,-10.0321,-9.9994,-9.9673,-10.0404,0.0,0.0,-10.4597,-10.7405,-10.9983,-11.0214,-11.0598,-11.1522,-11.1522,-11.1522,-11.1522,-10.9006,-10.73,-10.6502,-10.3979,-10.1982,-10.0686,-9.9879,-9.9218,-9.8668,-9.8154,-9.6869,-9.507,-9.452,-9.3529,-9.2097,-9.0188,-8.9382,-8.9235,-8.7655,-8.6995,-8.6811,-8.5196,-8.4609,-8.4425,-8.3067,-8.2443,-8.2186,-8.2186,-8.2186,-8.2186,-8.2186,-8.2186,-8.2186,-8.2186,-8.2186,-8.215,-8.1856,-8.0791,-7.9727,-7.9433,-7.8332,-7.7273,-7.7273,-7.7273,-7.7273,-7.7273,-7.6644,-7.5745,-7.4591,-7.2456,-7.0047,-6.7638,-6.6988,-6.6643,-6.6136,-6.5222,-6.4343,-6.3599,-6.2854,-6.2381,-6.2381,-6.2381,-6.2279,-6.2042,-6.1569,-6.0825,-5.9776,-5.9268,-5.866,-5.7915,-5.7881,-5.7881,-5.7881,-5.7881,-5.7881,-5.7881,-5.7881,-5.7881,-7.6986,-8.049,-8.3845,-8.7195,-8.9831,-9.1761,-9.2258,-9.2163,-9.1786,-9.1197,-8.9452,-8.7928,-8.7539,-8.7599,-8.8874,-9.2307,-9.4215,-9.6515,-10.0107,-10.0282,-9.9939,-9.9327,-9.9942,-10.0404,0.0,0.0,-10.5213,-10.8598,-10.879,-10.929,-11.0521,-11.0906,-11.0906,-11.0598,-10.8724,-10.7186,-10.6011,-10.3493,-10.1314,-9.9438,-9.8924,-9.8264,-9.7456,-9.7456,-9.6318,-9.4299,-9.4299,-9.3345,-9.1693,-9.0078,-8.9382,-8.9235,-8.7655,-8.6995,-8.6811,-8.5196,-8.4609,-8.4389,-8.2774,-8.2186,-8.2186,-8.2186,-8.2186,-8.2186,-8.2186,-8.2186,-8.2186,-8.2186,-8.2186,-8.2186,-8.2186,-8.1012,-7.98,-7.98,-7.8516,-7.7273,-7.7273,-7.7273,-7.7273,-7.7273,-7.687,-7.6276,-7.5469,-7.2873,-6.997,-6.7214,-6.6812,-6.6643,-6.6136,-6.5222,-6.441,-6.3937,-6.299,-6.2381,-6.2381,-6.2381,-6.2381,-6.2381,-6.1941,-6.1332,-6.0554,-5.981,-5.9066,-5.8321,-5.8017,-5.7881,-5.7881,-5.7881,-5.7881,-5.7881,-5.7881,-5.7881,-8.2073,-8.5224,-8.819,-9.0166,-9.2323,-9.3549,-9.2063,-9.2109,-9.2002,-9.036,-8.7838,-8.5953,0.0,0.0,-8.6531,-9.1492,-9.3869,-9.6554,-10.071,-10.0596,-10.0096,0.0,0.0,0.0,0.0,0.0,-10.2597,-10.602,-10.629,-10.7098,-10.879,-10.9598,-10.9713,-10.8906,-10.8021,-10.6822,-10.5098,-10.2594,-10.0201,-9.7897,-9.786,-9.7419,-9.6685,-9.6649,-9.5768,-9.4299,-9.4263,-9.3308,-9.1693,-9.0078,-8.9382,-8.9235,-8.7655,-8.6995,-8.6811,-8.5196,-8.4609,-8.4389,-8.2774,-8.2186,-8.2186,-8.2186,-8.2186,-8.2186,-8.2186,-8.2186,-8.2186,-8.2186,-8.2186,-8.2186,-8.2186,-8.1012,-7.9837,-7.98,-7.8552,-7.7347,-7.731,-7.7273,-7.7273,-7.7273,-7.7273,-7.698,-7.6106,-7.3127,-7.0007,-6.7297,-6.6854,-6.6812,-6.6812,-6.5561,-6.4647,-6.4613,-6.3294,-6.2415,-6.2381,-6.2381,-6.2381,-6.2381,-6.2381,-6.2076,-6.1332,-6.052,-5.9742,-5.9032,-5.8287,-5.7881,-5.7881,-5.7881,-5.7881,-5.7881,-5.7881,-5.7881,-8.5305,-8.9084,-9.2387,-9.3523,-9.4291,-9.4445,-9.3386,-9.1855,-8.9783,-8.6872,-8.3727,-8.0744,0.0,0.0,0.0,-8.7409,-9.2046,0.0,-10.071,-10.1096,0.0,-10.0173,0.0,-9.9942,-10.0404,-10.0404,0.0,-10.3405,-10.529,-10.6905,-10.7905,-10.8213,-10.8213,-10.7982,-10.6489,-10.5288,-10.4197,-10.1201,-9.909,-9.7897,-9.7273,-9.6906,-9.6685,-9.6098,-9.5254,-9.4263,-9.3675,-9.2794,-9.1693,-9.0078,-8.9382,-8.9235,-8.7655,-8.6995,-8.6811,-8.5196,-8.4609,-8.4389,-8.2774,-8.2186,-8.2186,-8.2186,-8.2186,-8.2186,-8.2186,-8.2186,-8.2186,-8.2186,-8.2186,-8.2186,-8.2186,-8.1452,-8.0534,-7.991,-7.9029,-7.8112,-7.742,-7.7273,-7.7273,-7.7273,-7.6827,-7.5947,-7.4438,-7.2362,-7.0194,-6.8167,-6.7284,-6.6812,-6.6812,-6.6,-6.5189,-6.4647,-6.3768,-6.299,-6.2448,-6.2381,-6.2381,-6.2381,-6.2381,-6.2076,-6.1332,-6.052,-5.9742,-5.9032,-5.8287,-5.7881,-5.7881,-5.7881,-5.7881,-5.7881,-5.7881,-5.7881,-8.9248,-9.2172,-9.4403,-9.4864,-9.4711,-9.371,-9.0979,-8.8671,-8.5978,-8.1862,-7.8284,0.0,-7.4079,-7.6348,-8.0022,0.0,0.0,0.0,-10.0096,-10.1096,-10.1096,0.0,-10.0596,0.0,-10.0596,-10.0596,-10.0981,-10.202,-10.3712,-10.5097,-10.5982,-10.6405,-10.6405,-10.5982,-10.5405,-10.4402,-10.2778,-10.0684,-9.9175,-9.8367,-9.7575,-9.7173,-9.7137,-9.5993,-9.507,-9.4263,-9.3455,-9.2611,-9.1693,-9.0078,-8.9382,-8.9235,-8.7655,-8.6995,-8.6811,-8.5196,-8.4609,-8.4389,-8.2774,-8.2186,-8.2186,-8.2186,-8.2186,-8.2186,-8.2186,-8.2186,-8.2186,-8.2186,-8.2186,-8.2186,-8.2186,-8.1599,-8.0901,-8.0424,-7.969,-7.8883,-7.8075,-7.7892,-7.7781,-7.7347,-7.6937,-7.6068,-7.4326,-7.2581,-7.0833,-6.9042,-6.7619,-6.6812,-6.6812,-6.617,-6.5425,-6.4681,-6.3937,-6.3193,-6.2448,-6.2381,-6.2381,-6.2381,-6.2381,-6.2212,-6.1806,-6.1028,-6.0419,-6.0013,-5.9268,-5.8863,-5.8863,-5.8524,-5.8389,-5.8355,-5.8051,-5.7881,-9.321,-9.4672,-9.5288,-9.5057,-9.4249,-9.221,-8.7094,-8.4478,-8.1631,-7.6399,0.0,-7.0591,-7.1245,-7.3091,-7.6746,-8.3478,0.0,-9.4134,-9.9365,-10.0712,-10.1212,-10.1289,-10.1289,-10.1289,-10.1289,-10.1289,-10.1289,-10.1289,-10.202,-10.2789,-10.3712,-10.4405,-10.4405,-10.3597,-10.4212,-10.3502,-10.1315,-10.0478,-9.9811,-9.9007,-9.8279,-9.7856,-9.761,-9.6177,-9.4962,-9.4079,-9.3272,-9.2501,-9.1693,-9.0078,-8.9382,-8.9235,-8.7655,-8.6995,-8.6811,-8.5196,-8.4609,-8.4389,-8.2774,-8.2186,-8.2186,-8.2186,-8.2186,-8.2186,-8.2186,-8.2186,-8.2186,-8.2186,-8.2186,-8.2186,-8.2186,-8.1672,-8.1122,-8.1048,-8.0461,-7.9727,-7.8919,-7.8662,-7.8332,-7.7457,-7.7273,-7.6763,-7.5146,-7.3543,-7.1867,-7.0126,-6.8447,-6.7256,-6.6988,-6.6321,-6.5561,-6.4816,-6.4106,-6.3362,-6.2618,-6.2448,-6.2381,-6.2381,-6.2381,-6.2381,-6.2381,-6.167,-6.1298,-6.1298,-6.052,-6.0114,-6.0114,-5.9471,-5.9167,-5.9133,-5.849,-5.8186,-9.5518,-9.6442,-9.6711,-9.5326,-9.3826,-9.1364,-8.6286,-8.2708,0.0,0.0,-6.9629,-6.759,-6.709,-7.0667,-7.5707,-8.1785,-8.7632,-9.3441,-9.9288,-10.0212,-10.0596,0.0,-10.1289,-10.1289,-10.1289,-10.1289,0.0,-10.1289,-10.1404,-10.1904,-10.2789,-10.2981,-10.2597,-10.1789,-10.1904,-10.1486,-10.0375,-10.029,-9.9805,-9.9007,-9.8861,-9.8092,-9.6787,-9.5872,-9.4654,-9.3272,-9.2391,-9.195,-9.1693,-9.0078,-8.9382,-8.9235,-8.7655,-8.6995,-8.6811,-8.5196,-8.4609,-8.4389,-8.2774,-8.2186,-8.2186,-8.2186,-8.2186,-8.2186,-8.2186,-8.2186,-8.2186,-8.2186,-8.2186,-8.2186,-8.2186,-8.2113,-8.1819,-8.1158,-8.0901,-8.0571,-7.9764,-7.9066,-7.8332,-7.7457,-7.7273,-7.6986,-7.602,-7.4958,-7.371,-7.2068,-7.0913,-6.9645,-6.8137,-6.7189,-6.6339,-6.5561,-6.485,-6.4106,-6.3396,-6.2753,-6.2381,-6.2381,-6.2381,-6.2381,-6.2381,-6.167,-6.1298,-6.1298,-6.052,-6.0114,-6.0114,-5.9979,-5.9911,-5.9911,-5.9776,-5.9708,-9.7134,-9.7557,-9.7096,-9.5403,-9.2749,-8.8825,-8.2401,0.0,0.0,0.0,-6.4666,-6.3705,-6.332,-6.7051,0.0,-7.6899,-8.2362,-8.8325,-9.5172,-9.6903,-9.8404,-10.1019,-10.1289,-10.1289,-10.1289,-10.1289,-10.1289,-10.1289,-10.1289,-10.152,-10.1904,-10.1904,-10.1712,-10.1289,-10.1289,-10.1093,-10.082,-10.082,-10.0589,-10.0195,-9.9809,-9.8791,-9.7161,-9.5972,-9.4568,-9.3051,-9.217,-9.1803,-9.1693,-9.0078,-8.9382,-8.9235,-8.7655,-8.6995,-8.6811,-8.5196,-8.4609,-8.4389,-8.2774,-8.2186,-8.2186,-8.2186,-8.2186,-8.2186,-8.2186,-8.2186,-8.2186,-8.2186,-8.2186,-8.2186,-8.2186,-8.2186,-8.2113,-8.1709,-8.1305,-8.0791,-7.9947,-7.9176,-7.8332,-7.7457,-7.7273,-7.7163,-7.679,-7.5621,-7.4413,-7.3655,-7.2046,-7.0591,-6.9727,-6.8388,-6.7025,-6.5846,-6.5358,-6.4715,-6.3599,-6.3193,-6.2821,-6.2415,-6.2381,-6.2381,-6.2381,-6.2042,-6.1873,-6.1873,-6.1501,-6.1298,-6.1298,-6.0926,-6.0723,-6.0723,-6.0283,-6.0114,-9.8173,-9.8288,-9.7326,-9.548,-9.1825,-8.6709,-7.9054,-7.386,0.0,0.0,-6.0512,-6.0358,-6.0742,-6.382,-6.7821,0.0,-7.7323,-8.3285,-9.1133,-9.3826,-9.6557,0.0,-10.1289,0.0,-10.1289,-10.1289,0.0,-10.1289,-10.1289,-10.1289,-10.1289,-10.1289,-10.1289,-10.1289,-10.1289,-10.1289,-10.1289,-10.1289,-10.1289,-10.1308,-10.0508,-9.9264,-9.7498,-9.6049,-9.444,-9.2794,-9.2097,-9.1803,-9.1693,-9.0078,-8.9382,-8.9235,-8.7655,-8.6995,-8.6811,-8.5196,-8.4609,-8.4389,-8.2774,-8.2186,-8.2186,-8.2186,-8.2186,-8.2186,-8.2186,-8.2186,-8.2186,-8.2186,-8.2186,-8.2186,-8.2186,-8.2186,-8.2186,-8.2186,-8.1709,-8.1048,-8.0241,-7.9396,-7.8589,-7.7745,-7.742,-7.7273,-7.7273,-7.6149,-7.5218,-7.5037,-7.3137,-7.1619,-7.1267,-6.9808,-6.8249,-6.6713,-6.6018,-6.5222,-6.4072,-6.37,-6.326,-6.2651,-6.2482,-6.2381,-6.2381,-6.2381,-6.2381,-6.2381,-6.2381,-6.2381,-6.2381,-6.1806,-6.1535,-6.1535,-6.0892,-6.0588,-9.8327,-9.875,-9.8096,-9.5595,-9.1825,-8.6709,-7.9054,0.0,0.0,-6.205,-5.9588,-5.8973,-6.0512,-6.2358,-6.5551,-7.136,0.0,-8.167,-9.0133,-9.3441,-9.6596,-10.0789,0.0,0.0,-10.1289,-10.1289,-10.1289,-10.1289,-10.1289,-10.1289,-10.1289,-10.1289,-10.1289,-10.1289,-10.1289,-10.1289,-10.1289,-10.1289,-10.1289,-10.1289,-10.0519,-9.8914,-9.6658,-9.5734,-9.4055,-9.1913,-9.184,-9.1803,-9.1693,-9.0078,-8.9382,-8.9235,-8.7655,-8.6995,-8.6811,-8.5196,-8.4609,-8.4389,-8.2774,-8.2186,-8.2186,-8.2186,-8.2186,-8.2186,-8.2186,-8.2186,-8.2186,-8.2186,-8.2186,-8.2186,-8.2186,-8.2186,-8.2186,-8.2186,-8.215,-8.1856,-8.1048,-8.0241,-7.9433,-7.8626,-7.7855,-7.7273,-7.7273,-7.7138,-7.6814,-7.6081,-7.5141,-7.3957,-7.2358,-7.1402,-7.0465,-6.9459,-6.7138,-6.5628,-6.5493,-6.4275,-6.3497,-6.3429,-6.2753,-6.2381,-6.2381,-6.2381,-6.2381,-6.2381,-6.2381,-6.2381,-6.2381,-6.2313,-6.2279,-6.2279,-6.2212,-6.2178,-9.7019,-9.8019,-9.7403,-9.4864,-9.0633,-8.5132,-7.7476,0.0,-6.6013,-6.105,-5.8665,-5.8011,-5.9704,-6.055,-6.2474,-6.6898,-6.9475,-7.386,-8.2362,-8.5747,-8.9863,-9.6711,-9.8404,0.0,0.0,0.0,-10.1289,-10.1289,-10.1289,-10.1289,-10.1289,-10.1289,-10.1289,-10.1289,-10.1289,-10.1289,-10.1289,-10.1289,-10.1289,-10.1289,-10.0481,-9.8845,-9.6573,-9.5705,-9.4036,-9.1803,-9.1803,-9.1546,-9.0996,-8.9858,-8.9124,-8.8573,-8.7435,-8.6995,-8.6811,-8.5196,-8.4609,-8.4389,-8.2774,-8.2186,-8.2186,-8.2186,-8.2186,-8.2186,-8.2186,-8.2186,-8.2186,-8.2186,-8.2186,-8.2186,-8.2186,-8.2186,-8.2186,-8.2186,-8.2186,-8.1966,-8.1158,-8.0755,-8.0131,-7.8846,-7.8332,-7.7928,-7.7384,-7.7273,-7.7163,-7.69,-7.6166,-7.5202,-7.4019,-7.2677,-7.147,-7.0637,-6.9068,-6.7676,-6.6642,-6.598,-6.5226,-6.4248,-6.3463,-6.3057,-6.3057,-6.2618,-6.2381,-6.2381,-6.2381,-6.2381,-6.2381,-6.2381,-6.2381,-6.2381,-6.2381,-6.2381,-9.4711,-9.6365,-9.6211,-9.3903,-8.9325,-8.3478,0.0,-7.0129,-6.4666,-6.0396,-5.8357,-5.7819,-5.9242,-5.9511,-6.0473,-6.3397,-6.5436,-6.9321,-7.7053,-8.0746,-8.5478,0.0,0.0,-9.7019,-9.9558,-10.0712,-10.1289,-10.1289,-10.1289,-10.1289,-10.1289,-10.1289,-10.1289,-10.1289,-10.1289,-10.1289,-10.1289,-10.1289,-10.1289,-10.1289,-9.9977,-9.8418,-9.6535,-9.5225,-9.3599,-9.1803,-9.1803,-9.1326,-9.0555,-8.9748,-8.894,-8.8133,-8.7325,-8.6995,-8.6811,-8.5196,-8.4609,-8.4389,-8.2774,-8.2186,-8.2186,-8.2186,-8.2186,-8.2186,-8.2186,-8.2186,-8.2186,-8.2186,-8.2186,-8.2186,-8.2186,-8.2186,-8.2186,-8.2186,-8.2186,-8.2039,-8.1489,-8.1158,-8.0681,-7.9543,-7.8919,-7.8405,-7.7818,-7.7457,-7.7273,-7.7273,-7.6644,-7.5909,-7.5322,-7.3775,-7.2491,-7.191,-7.1042,-6.9809,-6.8027,-6.7408,-6.66,-6.5409,-6.4369,-6.3835,-6.3835,-6.3125,-6.2719,-6.2719,-6.2516,-6.2381,-6.2381,-6.2381,-6.2381,-6.2381,-6.2381,-6.2381,-9.1364,-9.3749,-9.4595,-9.2941,-8.8017,-8.2054,-7.6053,-7.0129,-6.4666,-6.0396,-5.8858,-5.855,-5.9358,-5.9511,-6.0089,-6.1831,-6.5628,-7.0475,-7.6476,-8.0939,-8.5478,0.0,0.0,-9.3557,-9.6095,-9.9365,-10.1289,-10.1289,-10.1289,-10.1289,-10.1289,-10.1289,-10.1289,-10.1289,-10.1289,-10.1289,-10.1289,-10.1289,-10.1289,-10.1308,-9.8867,-9.7338,-9.6535,-9.4135,-9.2603,-9.1803,-9.1803,-9.1326,-9.0555,-8.9748,-8.894,-8.8133,-8.7325,-8.6995,-8.6811,-8.5196,-8.4609,-8.4389,-8.2774,-8.2186,-8.2186,-8.2186,-8.2186,-8.2186,-8.2186,-8.2186,-8.2186,-8.2186,-8.2186,-8.2186,-8.2186,-8.2186,-8.2186,-8.2186,-8.2186,-8.2186,-8.2186,-8.1562,-8.1012,-8.0975,-7.969,-7.8589,-7.8589,-7.7892,-7.7273,-7.7273,-7.6644,-7.6093,-7.6093,-7.4698,-7.367,-7.367,-7.2944,-7.1732,-6.9813,-6.8099,-6.708,-6.708,-6.5522,-6.458,-6.458,-6.3903,-6.3497,-6.3497,-6.2753,-6.2381,-6.2381,-6.2381,-6.2381,-6.2381,-6.2381,-6.2381,-8.2247,-8.4593,-8.5478,-8.2093,-7.9361,-7.6092,-7.0744,-6.7167,-6.4128,-6.1012,-5.9281,-5.8742,-6.0127,-5.9896,-6.1012,-6.5667,-6.7552,-7.0475,-7.6438,0.0,0.0,-8.9863,-9.5172,-9.8827,0.0,-10.0712,-10.1289,-10.1289,-10.1289,-10.1289,-10.1289,-10.1289,-10.1289,-10.1289,-10.1289,-10.1289,-10.1289,-10.1289,-10.0993,-10.0528,-9.8624,-9.7044,-9.5745,-9.3823,-9.2566,-9.1767,-9.1216,-9.0519,-8.9748,-8.8904,-8.8133,-8.7362,-8.7105,-8.6664,-8.604,-8.4976,-8.4242,-8.3654,-8.2553,-8.2186,-8.2186,-8.2186,-8.2186,-8.2186,-8.2186,-8.2186,-8.2186,-8.2186,-8.2186,-8.2186,-8.2186,-8.2186,-8.2186,-8.2186,-8.2186,-8.2186,-8.2186,-8.2003,-8.1672,-8.1122,-8.0131,-7.925,-7.8699,-7.7892,-7.7273,-7.7273,-7.7053,-7.6717,-7.6166,-7.5175,-7.4294,-7.3744,-7.2973,-7.2011,-7.0767,-7.015,-6.9527,-6.8925,-6.7263,-6.6308,-6.6308,-6.4983,-6.4005,-6.3531,-6.3294,-6.2888,-6.2381,-6.2381,-6.2381,-6.2381,-6.2381,-6.2381,0.0,-7.8246,-7.9208,-7.6245,-7.4399,-7.2168,-6.8052,-6.532,-6.3012,-6.0781,-5.9242,-5.8704,-6.005,-5.9858,-6.0819,-6.4897,-6.6628,-6.9321,0.0,0.0,0.0,-9.0287,-9.5942,0.0,-9.9827,-10.0712,-10.1289,-10.1289,-10.1289,-10.1289,-10.1289,-10.1289,-10.1289,-10.1289,-10.1289,-10.1289,-10.1289,-10.1019,-10.0488,-9.9727,-9.7755,-9.6176,-9.4882,-9.3293,-9.2114,-9.1326,-9.0812,-8.9968,0.0,-8.8426,-8.7729,-8.6995,-8.6995,-8.6518,-8.571,-8.4903,-8.4095,-8.3287,-8.248,-8.2186,-8.2186,-8.2186,-8.2186,-8.2186,-8.2186,-8.2186,-8.2186,-8.2186,-8.2186,-8.2186,-8.2186,-8.2186,-8.2186,-8.2186,-8.2186,-8.2186,-8.2186,-8.2186,-8.2039,-8.1562,-8.0791,-7.9984,-7.9176,-7.8369,-7.7708,-7.7347,-7.7273,-7.709,-7.6644,-7.5873,-7.5028,-7.4258,-7.3413,-7.2585,-7.1702,-7.1286,-7.0832,-7.0264,-6.8856,-6.8062,-6.8062,-6.6454,-6.5318,-6.4874,-6.4239,-6.37,-6.3226,-6.2956,-6.2821,-6.2821,-6.2516,-6.2381,0.0,-7.3783,-7.4938,-7.3976,-7.1975,-6.9629,-6.7128,-6.4217,0.0,-5.9781,-5.8819,-5.8588,-5.9511,-5.9588,-5.9935,-6.1204,-6.4205,-6.7821,-7.2052,-7.7977,0.0,0.0,-9.5172,-9.6942,-9.7711,-9.9904,-10.1289,-10.1289,-10.1289,-10.1289,-10.1289,-10.1289,-10.1289,-10.1212,-10.1212,-10.1212,-10.1212,-10.0404,-9.962,-9.8802,-9.6366,-9.4812,-9.4077,-9.2491,-9.1363,-9.0592,-9.0555,-8.9638,-8.8206,-8.8133,-8.7655,-8.6995,-8.6958,-8.6407,-8.56,-8.4792,-8.4022,-8.3214,-8.2443,-8.2186,-8.2186,-8.2186,-8.2186,-8.2186,-8.2186,-8.2186,-8.2186,-8.2186,-8.2186,-8.2186,-8.2186,-8.2186,-8.2186,-8.2186,-8.2186,-8.2186,-8.2186,-8.2186,-8.2186,-8.2186,-8.1562,-8.0755,-7.991,-7.914,-7.8295,-7.742,-7.7273,-7.7273,-7.7273,-7.6607,-7.5799,-7.4992,-7.4184,-7.3377,-7.2569,-7.1702,-7.1191,-7.1191,-7.0332,-6.9814,-6.9814,-6.8171,-6.7225,-6.708,-6.5449,-6.4613,-6.4613,-6.3903,-6.3599,-6.3565,-6.2821,-6.2482,-6.1435,0.0,-6.6744,-6.4589,-6.4128,-6.3666,0.0,-6.1204,-6.0627,-5.8934,-5.8434,-5.8934,-6.1089,-6.0396,-6.1281,-6.6705,-6.936,-7.2168,-7.6438,-8.4401,-9.1941,-9.7634,-9.9404,-10.0212,-10.0404,-10.0904,-10.1289,-10.1289,-10.1289,-10.1289,-10.1289,-10.1289,-10.1019,-10.0404,-10.0404,-10.0404,-10.0404,-9.9632,-9.8549,-9.7069,-9.53,-9.4049,-9.3306,-9.228,-9.1363,-9.0592,-8.9968,-8.9124,-8.8133,-8.7545,-8.7178,-8.6958,-8.6334,-8.56,-8.4792,-8.3985,-8.3177,-8.2443,-8.226,-8.2186,-8.2186,-8.2186,-8.2186,-8.2186,-8.2186,-8.2186,-8.2186,-8.2186,-8.2186,-8.2186,-8.2186,-8.2186,-8.2186,-8.2186,-8.2186,-8.2186,-8.2186,-8.2186,-8.2186,-8.2186,-8.1562,-8.0755,-7.991,-7.914,-7.8295,-7.742,-7.7273,-7.7273,-7.7273,-7.6607,-7.5799,-7.4992,-7.4184,-7.3377,-7.2569,-7.2285,-7.2197,-7.2197,-7.1286,-7.0767,-7.0767,-6.9671,-6.8458,-6.7153,-6.5449,-6.4613,-6.4613,-6.4444,-6.4343,-6.4343,-6.3599,-6.326,-5.7703,-6.0512,-6.3128,-6.1743,-6.1755,-6.187,-6.0896,-5.9819,-5.8781,-5.7896,-5.7396,-5.778,-5.9935,-6.055,-6.2166,-6.6628,-7.009,-7.463,-8.1593,-8.794,-9.3941,-9.9442,-10.0481,-10.0904,-10.1289,-10.1289,-10.1289,-10.1289,-10.0981,-10.0712,-10.0712,-10.0404,-9.9942,-9.9519,-9.9481,-9.9481,-9.9481,-9.8703,-9.7529,-9.5913,-9.4721,-9.337,-9.195,-9.1473,-9.0629,-8.9491,-8.905,-8.839,-8.7619,-8.7178,-8.6995,-8.6921,-8.6114,-8.5306,-8.4499,-8.3728,-8.2884,-8.2186,-8.2186,-8.2186,-8.2186,-8.2186,-8.2186,-8.2186,-8.2186,-8.2186,-8.2186,-8.2186,-8.2186,-8.2186,-8.2186,-8.2186,-8.2186,-8.2186,-8.2186,-8.2186,-8.2186,-8.2186,-8.2186,-8.2186,-8.1856,-8.1195,-7.9984,-7.9433,-7.8736,-7.7494,-7.7273,-7.7273,-7.7273,-7.6937,-7.635,-7.5542,-7.4735,-7.3927,-7.312,-7.2716,-7.2496,-7.2496,-7.2041,-7.1763,-7.1763,-7.0832,-6.9706,-6.8315,-6.6945,-6.6263,-6.6263,-6.5467,-6.5087,-6.5087,-6.4343,-6.4005,-5.7445,-6.01,-6.2524,-6.187,-6.1985,-6.2166,-6.1793,0.0,-5.733,-5.706,-5.6522,-5.6703,-5.8704,-6.0935,-6.3205,-6.5397,-7.0167,-7.6899,-8.644,-8.9979,-9.3595,-9.9058,-9.9827,-10.0212,-10.0904,-10.0904,-10.0904,-10.0904,-10.0289,-9.9904,-9.9904,-9.9211,-9.875,-9.8596,-9.8596,-9.8519,-9.8404,-9.7596,-9.6509,-9.5111,-9.4067,-9.2517,-9.0592,-9.0482,-8.9601,-8.8206,-8.8206,-8.7729,-8.6995,-8.6885,-8.6811,-8.6738,-8.5783,-8.5013,-8.4315,-8.3508,-8.281,-8.2186,-8.2186,-8.2186,-8.2186,-8.2186,-8.2186,-8.2186,-8.2186,-8.2186,-8.2186,-8.2186,-8.2186,-8.2186,-8.2186,-8.2186,-8.2186,-8.2186,-8.2186,-8.2186,-8.2186,-8.2186,-8.2186,-8.2186,-8.2186,-8.1709,-8.0241,-7.9874,-7.9286,-7.7714,-7.7384,-7.7273,-7.7273,-7.7273,-7.698,-7.6203,-7.5506,-7.4698,-7.378,-7.3083,-7.2642,-7.2496,-7.2496,-7.2496,-7.2496,-7.1604,-7.0734,-6.9954,-6.8798,-6.8189,-6.8189,-6.6602,-6.5865,-6.5831,-6.5121,-6.4783,-5.9435,-6.2704,-6.4436,-6.0819,-6.1512,-6.2551,-6.0396,-5.9473,-5.8704,0.0,-5.7473,-5.8858,-6.1973,-6.3474,-6.5705,-7.0283,-7.5938,-8.2016,-8.8594,-9.171,-9.4441,-9.7519,-9.8557,-9.9058,-9.9173,-9.9173,-9.9173,-9.9173,-9.9058,-9.8981,-9.8981,-9.8865,-9.8442,-9.7711,-9.7711,-9.7365,-9.6673,-9.601,-9.5177,-9.4253,-9.2161,-9.095,-9.0592,-8.9895,-8.9087,-8.8206,-8.8206,-8.7729,-8.6958,-8.6261,-8.5967,-8.582,-8.4352,-8.3691,-8.3508,-8.27,-8.2296,-8.2186,-8.2186,-8.2186,-8.2186,-8.2186,-8.2186,-8.2186,-8.2186,-8.2186,-8.2186,-8.2186,-8.2186,-8.2186,-8.2186,-8.2186,-8.2186,-8.2186,-8.2186,-8.2186,-8.2186,-8.2186,-8.2186,-8.2186,-8.2186,-8.1893,-8.0975,-8.0241,-7.947,-7.8552,-7.7781,-7.7273,-7.7273,-7.7273,-7.698,-7.6203,-7.5983,-7.5322,-7.3817,-7.3597,-7.323,-7.2532,-7.2496,-7.2496,-7.2496,-7.1604,-7.1027,-7.0865,-6.9096,-6.8189,-6.8189,-6.7148,-6.6643,-6.6609,-6.5865,-6.5527,-5.7627,-6.055,-6.2897,-6.182,-6.4512,-6.6859,-6.4782,-6.3243,-6.1897,-6.0666,-6.0396,-6.1089,-6.3551,-6.6205,-7.0283,-7.7207,-8.14,-8.5401,-8.9979,-9.2018,-9.4172,-9.7134,-9.7865,-9.8288,-9.875,-9.8788,-9.8788,-9.8788,-9.8365,-9.8096,-9.8096,-9.7673,-9.7288,-9.6865,-9.6865,-9.6442,-9.5595,-9.45,-9.3752,-9.3385,-9.187,-9.0531,-8.9307,-8.894,-8.8316,-8.7545,-8.7545,-8.7105,-8.6334,-8.593,-8.5527,-8.5013,-8.3875,-8.3398,-8.3324,-8.248,-8.2186,-8.2186,-8.2186,-8.2186,-8.2186,-8.2186,-8.2186,-8.2186,-8.2186,-8.2186,-8.2186,-8.2186,-8.2186,-8.2186,-8.2186,-8.2186,-8.2186,-8.2186,-8.2186,-8.2186,-8.2186,-8.2186,-8.2186,-8.2186,-8.2186,-8.1929,-8.1158,-8.0314,-7.9507,-7.8699,-7.7855,-7.7273,-7.7273,-7.7273,-7.7163,-7.679,-7.635,-7.5799,-7.5065,-7.4588,-7.3817,-7.2569,-7.2496,-7.2496,-7.2496,-7.2071,-7.1854,-7.1854,-7.0499,-6.9494,-6.9021,-6.8063,-6.7291,-6.6812,-6.644,-6.6305,-5.6934,-5.9088,-6.1589,-6.3666,-6.6821,-6.9398,-6.9321,-6.7321,-6.5474,-6.5397,-6.4897,-6.4871,-6.6128,-7.0167,-7.563,-8.2747,-8.5824,-8.8286,-9.1095,-9.2402,-9.4095,-9.6903,-9.7211,-9.748,-9.8134,-9.8211,-9.8211,-9.8211,-9.7596,-9.7134,-9.6942,-9.6326,-9.5903,-9.5711,-9.5672,-9.5365,-9.4711,-9.3245,-9.2544,-9.2517,-9.1416,-8.9921,-8.8206,-8.7986,-8.7582,-8.6995,-8.6811,-8.6371,-8.5747,-8.538,-8.4866,-8.4242,-8.3434,-8.3141,-8.303,-8.2443,-8.2186,-8.2186,-8.2186,-8.2186,-8.2186,-8.2186,-8.2186,-8.2186,-8.2186,-8.2186,-8.2186,-8.2186,-8.2186,-8.2186,-8.2186,-8.2186,-8.2186,-8.2186,-8.2186,-8.2186,-8.2186,-8.2186,-8.2186,-8.2186,-8.2186,-8.2003,-8.1379,-8.0608,-7.98,-7.8993,-7.8148,-7.753,-7.731,-7.7273,-7.7273,-7.7273,-7.6754,-7.6313,-7.613,-7.5359,-7.4294,-7.2863,-7.2606,-7.2496,-7.2496,-7.2496,-7.2496,-7.2496,-7.1573,-7.0734,-7.0023,-6.8798,-6.7827,-6.712,-6.6904,-6.6812,-6.0562,-6.1831,-6.2793,-6.6013,-6.5936,-6.6244,-7.086,-6.9975,-6.8783,-7.1091,-7.1514,-7.1514,-7.1629,-7.6438,-8.1323,-8.4324,-8.8209,-9.121,-9.2249,-9.3787,-9.5211,-9.6249,-9.6403,-9.6403,-9.648,-9.648,-9.648,-9.648,-9.6442,-9.6019,-9.5211,-9.5134,-9.4711,-9.3903,-9.3903,-9.3864,-9.3787,-9.2371,-9.1687,-9.165,-8.9479,-8.8349,-8.8169,-8.7435,-8.7068,-8.6958,-8.6224,-8.5857,-8.5673,-8.4205,-8.3544,-8.3434,-8.259,-8.2296,-8.226,-8.2223,-8.2186,-8.2186,-8.2186,-8.2186,-8.2186,-8.2186,-8.2186,-8.2186,-8.2186,-8.2186,-8.2186,-8.2186,-8.2186,-8.2186,-8.2186,-8.2186,-8.2186,-8.2186,-8.2186,-8.2186,-8.2186,-8.2186,-8.2186,-8.2186,-8.2186,-8.2186,-8.2113,-8.1452,-8.0645,-7.98,-7.9029,-7.8222,-7.7384,-7.7273,-7.7273,-7.7273,-7.7237,-7.6937,-7.6166,-7.5359,-7.4551,-7.367,-7.2899,-7.2496,-7.2496,-7.2496,-7.2496,-7.2496,-7.1573,-7.1095,-7.0995,-6.9096,-6.8185,-6.8107,-6.7202,-6.6812,-5.7665,-6.0062,-6.2639,-6.4974,-6.7051,-6.9436,-7.2937,-7.3437,-7.3707,-7.5707,-7.5707,-7.5515,-7.6015,-7.9708,-8.3324,-8.5324,-8.8786,-9.1518,-9.2364,-9.3941,-9.5095,-9.5441,-9.598,-9.6288,-9.6288,-9.5826,-9.548,-9.548,-9.498,-9.4557,-9.421,-9.4172,-9.4018,-9.371,-9.371,-9.3441,-9.2941,-9.1558,-9.0582,-9.0038,-8.8789,-8.7949,-8.7435,-8.7142,-8.6738,-8.6224,-8.593,-8.5233,-8.4278,-8.3654,-8.3104,-8.2627,-8.2333,-8.2186,-8.2186,-8.2186,-8.2186,-8.2186,-8.2186,-8.2186,-8.2186,-8.2186,-8.2186,-8.2186,-8.2186,-8.2186,-8.2186,-8.2186,-8.2186,-8.2186,-8.2186,-8.2186,-8.2186,-8.2186,-8.2186,-8.2186,-8.2186,-8.2186,-8.2186,-8.2186,-8.2186,-8.2186,-8.2186,-8.1525,-8.0718,-7.991,-7.9103,-7.8295,-7.7384,-7.7273,-7.7273,-7.7273,-7.7273,-7.7163,-7.69,-7.613,-7.5506,-7.5212,-7.3964,-7.301,-7.2532,-7.2496,-7.2496,-7.2496,-7.213,-7.1665,-7.1127,-7.0364,-6.9387,-6.8189,-6.7827,-6.7373,-5.6665,-5.905,-6.2281,-6.4782,-6.7975,-7.1552,-7.5438,-7.6553,-7.763,-8.0669,-8.0208,-7.9438,-8.0015,-8.2016,-8.4247,-8.6209,-8.9133,-9.1518,-9.2364,-9.371,-9.4595,-9.4595,-9.5134,-9.548,-9.548,-9.4941,-9.4595,-9.4595,-9.4018,-9.3595,-9.3326,-9.3326,-9.321,-9.2903,-9.2903,-9.2523,-9.1759,-9.0566,-8.9431,-8.8398,-8.7767,-8.7288,-8.6995,-8.6738,-8.6334,-8.5747,-8.527,-8.4425,-8.3398,-8.3141,-8.27,-8.2186,-8.2186,-8.2186,-8.2186,-8.2186,-8.2186,-8.2186,-8.2186,-8.2186,-8.2186,-8.2186,-8.2186,-8.2186,-8.2186,-8.2186,-8.2186,-8.2186,-8.2186,-8.2186,-8.2186,-8.2186,-8.2186,-8.2186,-8.2186,-8.2186,-8.2186,-8.2186,-8.2186,-8.2186,-8.2186,-8.2186,-8.2186,-8.1525,-8.0718,-7.991,-7.9103,-7.8295,-7.7384,-7.7273,-7.7273,-7.7273,-7.7273,-7.7273,-7.7273,-7.6827,-7.6387,-7.613,-7.5065,-7.3964,-7.2936,-7.2899,-7.2753,-7.2496,-7.2496,-7.2197,-7.1542,-7.1255,-7.0432,-6.9096,-6.8496,-6.7866,-5.8742,-5.9511,-6.182,-6.6051,-6.8436,-7.1552,-7.8284,-7.9169,-8.0208,-8.617,-8.5401,-8.3593,-8.3593,-8.3593,-8.4439,-8.6978,-8.9517,-9.1479,-9.2364,-9.3172,-9.3672,-9.3672,-9.371,-9.371,-9.371,-9.3672,-9.3672,-9.3672,-9.3672,-9.3326,-9.2518,-9.2479,-9.2095,-9.1248,-9.121,-9.0858,-9.0116,-8.9413,-8.8361,-8.6907,-8.6144,-8.6224,-8.6958,-8.6151,-8.5783,-8.5673,-8.4095,-8.3398,-8.3361,-8.2517,-8.2186,-8.2186,-8.2186,-8.2186,-8.2186,-8.2186,-8.2186,-8.2186,-8.2186,-8.2186,-8.2186,-8.2186,-8.2186,-8.2186,-8.2186,-8.2186,-8.2186,-8.2186,-8.2186,-8.2186,-8.2186,-8.2186,-8.2186,-8.2186,-8.2186,-8.2186,-8.2186,-8.2186,-8.2186,-8.2186,-8.2186,-8.2186,-8.2186,-8.1525,-8.0755,-7.991,-7.9103,-7.8295,-7.7384,-7.7273,-7.7273,-7.7273,-7.7273,-7.7273,-7.7273,-7.7273,-7.6943,-7.6166,-7.6093,-7.5395,-7.378,-7.3707,-7.334,-7.2532,-7.2496,-7.2496,-7.2496,-7.1573,-7.1127,-7.1027,-6.9133,-6.8227,-5.6934,-5.9435,-6.3281,-6.632,-7.1091,-7.6169,-8.0554,-8.1823,-8.3247,-8.744,-8.6748,-8.5209,-8.4632,-8.4516,-8.4939,-8.6286,-8.8132,-8.994,-9.1364,-9.2326,-9.2864,-9.2864,-9.3364,-9.371,-9.371,-9.3172,-9.2864,-9.2864,-9.2287,-9.1825,-9.1595,-9.1595,-9.1479,-9.121,-9.121,-9.0793,-8.9994,-8.8819,-8.7723,-8.6658,-8.5509,-8.5086,-8.5306,-8.5049,-8.4646,-8.4095,-8.3618,-8.3104,-8.2553,-8.2296,-8.2186,-8.2186,-8.2186,-8.2186,-8.2186,-8.2186,-8.2186,-8.2186,-8.2186,-8.2186,-8.2186,-8.2186,-8.2186,-8.2186,-8.2186,-8.2186,-8.2186,-8.2186,-8.2186,-8.2186,-8.2186,-8.2186,-8.2186,-8.2186,-8.2186,-8.2186,-8.2186,-8.2186,-8.2186,-8.2186,-8.2186,-8.2186,-8.2186,-8.2003,-8.1379,-7.9984,-7.958,-7.8919,-7.7457,-7.7273,-7.7273,-7.7273,-7.7273,-7.7273,-7.7273,-7.7273,-7.72,-7.6943,-7.6937,-7.624,-7.4625,-7.4001,-7.3597,-7.334,-7.2789,-7.2496,-7.2496,-7.2226,-7.1763,-7.1095,-7.0499,-6.9494,-5.9742,-6.2743,-6.6705,-7.0244,-7.4476,-7.8938,-8.3324,-8.4709,-8.5593,-8.7325,-8.6824,-8.594,-8.5478,-8.5132,-8.5286,-8.644,-8.7786,-8.9171,-9.0517,-9.1441,-9.1979,-9.1979,-9.2402,-9.271,-9.271,-9.2287,-9.1979,-9.1979,-9.1518,-9.121,-9.121,-9.121,-9.1056,-9.071,-9.0671,-9.016,-8.8998,-8.7923,-8.6805,-8.5698,-8.4632,-8.3948,-8.3654,-8.3985,-8.3875,-8.3398,-8.3067,-8.2663,-8.2186,-8.2186,-8.2186,-8.2186,-8.2186,-8.2186,-8.2186,-8.2186,-8.2186,-8.2186,-8.2186,-8.2186,-8.2186,-8.2186,-8.2186,-8.2186,-8.2186,-8.2186,-8.2186,-8.2186,-8.2186,-8.2186,-8.2186,-8.2186,-8.2186,-8.2186,-8.2186,-8.2186,-8.2186,-8.2186,-8.2186,-8.2186,-8.2186,-8.2186,-8.2186,-8.1672,-8.0901,-7.9979,-7.9213,-7.8442,-7.742,-7.7273,-7.7273,-7.7273,-7.7273,-7.7273,-7.7273,-7.7273,-7.7273,-7.7273,-7.7273,-7.6833,-7.5879,-7.5102,-7.4331,-7.3707,-7.323,-7.2826,-7.2496,-7.2496,-7.2226,-7.1635,-7.1255,-7.0263,-6.4743,-6.7475,-7.086,-7.6092,-7.8254,-8.0546,-8.6055,-8.7214,-8.7043,-8.6462,-8.6286,-8.6209,-8.6209,-8.5555,-8.5517,-8.7132,-8.8055,-8.8863,-8.9671,-9.0479,-9.0979,-9.0979,-9.0979,-9.0979,-9.0979,-9.0979,-9.0979,-9.0979,-9.0979,-9.0979,-9.0979,-9.0979,-9.0633,-8.9825,-8.9787,-8.9073,-8.7586,-8.6862,-8.5794,-8.4365,-8.3635,-8.292,-8.2223,-8.2957,-8.3287,-8.3251,-8.2517,-8.2186,-8.2186,-8.2186,-8.2186,-8.2186,-8.2186,-8.2186,-8.2186,-8.2186,-8.2186,-8.2186,-8.2186,-8.2186,-8.2186,-8.2186,-8.2186,-8.2186,-8.2186,-8.2186,-8.2186,-8.2186,-8.2186,-8.2186,-8.2186,-8.2186,-8.2186,-8.2186,-8.2186,-8.2186,-8.2186,-8.2186,-8.2186,-8.2186,-8.2186,-8.2186,-8.2186,-8.0975,-7.9947,-7.98,-7.8369,-7.7273,-7.7273,-7.7273,-7.7273,-7.7273,-7.7273,-7.7273,-7.7273,-7.7273,-7.7273,-7.7273,-7.7273,-7.7273,-7.7273,-7.6533,-7.5395,-7.3817,-7.3744,-7.3303,-7.2496,-7.2496,-7.2496,-7.2467,-7.1604,-7.0734,-6.1396,-6.5205,-7.0206,-7.663,-8.0967,-8.4175,-8.5971,-8.5969,-8.6069,-8.7795,-8.7594,-8.7132,-8.7132,-8.644,-8.617,-8.7209,-8.7555,-8.7979,-8.8825,-8.9133,-8.9248,-8.9248,-8.9248,-8.9248,-8.9248,-8.9248,-8.9248,-8.9248,-8.9248,-8.9248,-8.9248,-8.9248,-8.9133,-8.894,-8.894,-8.8466,-8.7438,-8.626,-8.5185,-8.4217,-8.3022,-8.237,-8.2186,-8.237,-8.2443,-8.2443,-8.226,-8.2186,-8.2186,-8.2186,-8.2186,-8.2186,-8.2186,-8.2186,-8.2186,-8.2186,-8.2186,-8.2186,-8.2186,-8.2186,-8.2186,-8.2186,-8.2186,-8.2186,-8.2186,-8.2186,-8.2186,-8.2186,-8.2186,-8.2186,-8.2186,-8.2186,-8.2186,-8.2186,-8.2186,-8.2186,-8.2186,-8.2186,-8.2186,-8.2186,-8.2186,-8.2186,-8.2186,-8.1893,-8.1269,-7.9984,-7.8369,-7.7273,-7.7273,-7.7273,-7.7273,-7.7273,-7.7273,-7.7273,-7.7273,-7.7273,-7.7273,-7.7273,-7.7273,-7.7273,-7.7273,-7.6533,-7.5652,-7.4661,-7.4001,-7.3303,-7.2496,-7.2496,-7.2496,-7.2496,-7.2285,-7.1702,-6.3089,-6.759,-7.2591,-7.9785,-8.3602,-8.5682,-8.6043,-8.5828,-8.5951,-8.7197,-8.7094,-8.6786,-8.6786,-8.6401,-8.6247,-8.6709,-8.7132,-8.7449,-8.7561,-8.7964,-8.8098,-8.778,-8.8039,-8.8232,-8.8232,-8.8511,-8.8709,-8.8709,-8.8709,-8.8709,-8.8709,-8.8709,-8.8517,-8.8094,-8.8055,-8.7491,-8.6297,-8.5318,-8.4444,-8.3731,-8.2708,-8.2186,-8.2186,-8.2186,-8.2186,-8.2186,-8.2186,-8.2186,-8.2186,-8.2186,-8.2186,-8.2186,-8.2186,-8.2186,-8.2186,-8.2186,-8.2186,-8.2186,-8.2186,-8.2186,-8.2186,-8.2186,-8.2186,-8.2186,-8.2186,-8.2186,-8.2186,-8.2186,-8.2186,-8.2186,-8.2186,-8.2186,-8.2186,-8.2186,-8.2186,-8.2186,-8.2186,-8.2186,-8.2186,-8.2186,-8.2186,-8.2186,-8.2186,-8.1562,-8.0498,-7.8846,-7.7855,-7.7273,-7.7273,-7.7273,-7.7273,-7.7273,-7.7273,-7.7273,-7.7273,-7.7273,-7.7273,-7.7273,-7.7273,-7.7273,-7.7273,-7.69,-7.613,-7.4918,-7.4478,-7.3707,-7.2496,-7.2496,-7.2496,-7.2496,-7.2496,-7.2011,-6.4359,-7.009,-7.5668,-8.2901,-8.5296,0.0,-8.6077,-8.5988,-8.5954,-8.6077,-8.6094,-8.6094,-8.6094,-8.6094,-8.6094,-8.6094,-8.6709,-8.6956,-8.643,-8.6882,-8.703,-8.6487,-8.6829,-8.7133,-8.7239,-8.7753,-8.8123,-8.8248,-8.8248,-8.8248,-8.8248,-8.8248,-8.7902,-8.7209,-8.7171,-8.6522,-8.5121,-8.4513,-8.385,-8.3189,-8.2528,-8.2186,-8.2186,-8.2186,-8.2186,-8.2186,-8.2186,-8.2186,-8.2186,-8.2186,-8.2186,-8.2186,-8.2186,-8.2186,-8.2186,-8.2186,-8.2186,-8.2186,-8.2186,-8.2186,-8.2186,-8.2186,-8.2186,-8.2186,-8.2186,-8.2186,-8.2186,-8.2186,-8.2186,-8.2186,-8.2186,-8.2186,-8.2186,-8.2186,-8.2186,-8.2186,-8.2186,-8.2186,-8.2186,-8.2186,-8.2186,-8.215,-8.2003,-8.0755,-7.9286,-7.7781,-7.7384,-7.7273,-7.7273,-7.7273,-7.7273,-7.7273,-7.7273,-7.7273,-7.7273,-7.7273,-7.7273,-7.7273,-7.7273,-7.7273,-7.7273,-7.7273,-7.654,-7.4955,-7.4918,-7.4111,-7.2496,-7.2496,-7.2496,-7.2496,-7.2496,-7.2071,-5.7396,0.0,-7.6976,0.0,-8.4514,-8.5379,0.0,0.0,-8.5399,0.0,-8.6094,-8.6094,-8.6094,-8.6094,-8.6094,-8.6094,-8.6209,-8.6231,-8.6163,-8.5762,-8.5405,-8.5321,-8.4947,-8.4878,-8.5422,-8.5525,-8.5839,-8.6406,-8.644,-8.644,-8.644,-8.644,-8.6401,-8.6286,-8.6286,-8.5908,-8.5121,-8.4513,-8.385,-8.3189,-8.2528,-8.2186,-8.2186,-8.2186,-8.2186,-8.2186,-8.2186,-8.2186,-8.2186,-8.2186,-8.2186,-8.2186,-8.2186,-8.2186,-8.2186,-8.2186,-8.2186,-8.2186,-8.2186,-8.2186,-8.2186,-8.2186,-8.2186,-8.2186,-8.2186,-8.2186,-8.2186,-8.2186,-8.2186,-8.2186,-8.2186,-8.2186,-8.2186,-8.2186,-8.2186,-8.2186,-8.2186,-8.2186,-8.2186,-8.2186,-8.2186,-8.1966,-8.1269,-8.0388,-7.947,-7.8552,-7.7781,-7.7273,-7.7273,-7.7273,-7.7273,-7.7273,-7.7273,-7.7273,-7.7273,-7.7273,-7.7273,-7.7273,-7.7273,-7.7273,-7.7273,-7.7273,-7.654,-7.4955,-7.4918,-7.4111,-7.2496,-7.2496,-7.2496,-7.2496,-7.2496,-7.2438,-6.0435,-6.8513,-7.6053,0.0,-8.3944,-8.4568,-8.5813,-8.5864,-8.5737,-8.6043,-8.6094,-8.6094,-8.6094,-8.6094,-8.6094,-8.6094,-8.6094,-8.5971,-8.557,-8.4995,-8.4467,-8.4067,-8.3798,-8.3902,-8.4537,-8.4893,-8.5379,-8.606,-8.6094,-8.6094,-8.6094,-8.6094,-8.6094,-8.6094,-8.5719,-8.526,-8.4605,-8.3953,-8.3303,-8.2647,-8.2343,-8.2186,-8.2219,-8.2585,-8.2763,-8.2763,-8.2763,-8.2763,-8.2763,-8.2763,-8.256,-8.2186,-8.2186,-8.2186,-8.2186,-8.2186,-8.2186,-8.2186,-8.2186,-8.2186,-8.2186,-8.2186,-8.2186,-8.2186,-8.2186,-8.2186,-8.2186,-8.2186,-8.2186,-8.2186,-8.2186,-8.2186,-8.2186,-8.2186,-8.2186,-8.2186,-8.2186,-8.2186,-8.2186,-8.2186,-8.2186,-8.1782,-8.0534,-8.0021,-7.936,-7.8075,-7.753,-7.7273,-7.7273,-7.7273,-7.7273,-7.7273,-7.7273,-7.7273,-7.7273,-7.7273,-7.7273,-7.7273,-7.7273,-7.7273,-7.7273,-7.7273,-7.654,-7.4955,-7.4918,-7.4111,-7.2496,-7.2496,-7.2496,-7.2496,-7.2496,-7.2496,-6.1396,0.0,-7.1937,-7.8938,-8.1516,-8.2785,0.0,0.0,-8.5786,-8.5786,-8.5978,-8.6094,-8.6094,-8.6094,-8.6094,-8.6094,-8.6094,-8.5937,-8.5418,-8.4673,-8.4004,-8.3515,-8.3132,-8.3218,-8.3876,-8.4513,-8.5141,-8.5811,-8.5988,-8.6094,-8.6094,-8.6094,-8.6094,-8.6094,-8.5437,-8.4806,-8.4203,-8.3387,-8.2708,-8.2186,-8.2186,-8.2186,-8.2219,-8.2876,-8.3303,-8.3461,-8.3461,-8.3387,-8.3189,-8.3189,-8.2793,-8.2186,-8.2186,-8.2186,-8.2186,-8.2186,-8.2186,-8.2186,-8.2186,-8.2186,-8.2186,-8.2186,-8.2186,-8.2186,-8.2186,-8.2186,-8.2186,-8.2186,-8.2186,-8.2186,-8.2186,-8.2186,-8.2186,-8.2186,-8.2186,-8.2186,-8.2186,-8.2186,-8.2186,-8.2186,-8.2186,-8.1672,-8.0057,-7.98,-7.9213,-7.753,-7.7273,-7.7273,-7.7273,-7.7273,-7.7273,-7.7273,-7.7273,-7.7273,-7.7273,-7.7273,-7.7273,-7.7273,-7.7273,-7.7273,-7.7273,-7.7273,-7.654,-7.4955,-7.4918,-7.4111,-7.2496,-7.2496,-7.2496,-7.2496,-7.2496,-7.2496,0.0,-5.8819,0.0,-7.0898,-7.5784,-7.94,0.0,0.0,-8.4978,-8.4978,-8.5555,-8.6094,-8.6094,-8.6094,-8.6094,-8.6094,-8.6094,-8.6077,-8.606,-8.4974,-8.4179,-8.4154,-8.3024,-8.2528,-8.3189,-8.385,-8.4513,-8.5121,-8.5719,-8.6094,-8.6094,-8.6094,-8.6094,-8.6094,-8.5437,-8.4806,-8.4216,-8.2913,-8.2251,-8.2186,-8.2186,-8.2186,-8.2219,-8.2876,-8.3543,-8.4154,-8.4154,-8.3772,-8.3189,-8.3189,-8.2793,-8.2186,-8.2186,-8.2186,-8.2186,-8.2186,-8.2186,-8.2186,-8.2186,-8.2186,-8.2186,-8.2186,-8.2186,-8.2186,-8.2186,-8.2186,-8.2186,-8.2186,-8.2186,-8.2186,-8.2186,-8.2186,-8.2186,-8.2186,-8.2186,-8.2186,-8.2186,-8.2186,-8.2186,-8.2186,-8.2186,-8.1672,-8.0057,-7.98,-7.9213,-7.753,-7.7273,-7.7273,-7.7273,-7.7273,-7.7273,-7.7273,-7.7273,-7.7273,-7.7273,-7.7273,-7.7273,-7.7273,-7.7273,-7.7273,-7.7273,-7.7273,-7.654,-7.4955,-7.4918,-7.4111,-7.2496,-7.2496,-7.2496,-7.2496,-7.2496,-7.2496,0.0,0.0,0.0,-6.6667,-7.1321,-7.513,-7.7669,-8.0823,-8.3247,-8.3247,-8.3901,-8.4478,-8.4478,-8.5363,-8.6094,-8.6094,-8.6094,-8.6094,-8.6094,-8.4995,-8.4203,-8.4203,-8.3024,-8.2465,-8.3132,-8.3405,-8.4004,-8.4999,-8.534,-8.5664,-8.6077,-8.6094,-8.6094,-8.6094,-8.5058,-8.4004,-8.2943,-8.2434,-8.2186,-8.2186,-8.2186,-8.2186,-8.2251,-8.3322,-8.3953,-8.4228,-8.4605,-8.4443,-8.3824,-8.3862,-8.3189,-8.2186,-8.2186,-8.2186,-8.2186,-8.2186,-8.2186,-8.2186,-8.2186,-8.2186,-8.2284,-8.2708,-8.2853,-8.2906,-8.335,-8.3189,-8.2853,-8.2853,-8.2528,-8.2186,-8.2186,-8.2186,-8.2186,-8.2186,-8.2186,-8.2186,-8.2186,-8.2186,-8.2186,-8.2186,-8.2186,-8.1856,-8.0755,-8.0131,-7.9396,-7.8295,-7.7671,-7.7273,-7.7273,-7.7273,-7.7273,-7.7273,-7.7273,-7.7273,-7.7273,-7.7273,-7.7273,-7.7273,-7.7273,-7.7273,-7.7273,-7.7273,-7.676,-7.5689,-7.5175,-7.4111,-7.2496,-7.2496,-7.2496,-7.2496,-7.2496,-7.2496,-5.0625,0.0,0.0,0.0,-6.609,-6.9283,-7.4399,-7.7515,-7.9746,-8.117,-8.2362,-8.3247,-8.3555,-8.4516,-8.5363,-8.567,-8.5727,-8.5737,-8.5737,-8.4673,-8.385,-8.385,-8.2883,-8.2375,-8.2823,-8.3082,-8.364,-8.4718,-8.5016,-8.5379,-8.606,-8.6094,-8.5919,-8.5475,-8.4628,-8.357,-8.2219,-8.2186,-8.2186,-8.2186,-8.2186,-8.2311,-8.2554,-8.3704,-8.4203,-8.4228,-8.4828,-8.4762,-8.4179,-8.3965,-8.3189,-8.2219,-8.2434,-8.256,-8.256,-8.256,-8.256,-8.256,-8.256,-8.256,-8.2647,-8.3331,-8.3543,-8.3624,-8.4054,-8.372,-8.3189,-8.3189,-8.2739,-8.2186,-8.2186,-8.2186,-8.2186,-8.2186,-8.2186,-8.2186,-8.2186,-8.2186,-8.2186,-8.2186,-8.2186,-8.1929,-8.1158,-8.0571,-7.9837,-7.8772,-7.8112,-7.7635,-7.7347,-7.7273,-7.7273,-7.7273,-7.7273,-7.7273,-7.7273,-7.7273,-7.7273,-7.7273,-7.7273,-7.7273,-7.7273,-7.7273,-7.6937,-7.613,-7.5579,-7.4661,-7.3303,-7.2753,-7.2496,-7.2496,-7.2496,-7.2496,0.0,0.0,0.0,0.0,0.0,0.0,-7.1937,0.0,-7.4399,-7.8707,-8.0862,-8.2285,-8.3247,-8.3478,-8.3785,-8.467,-8.4939,-8.5065,-8.5044,-8.3979,-8.3143,-8.3115,-8.2542,-8.215,-8.215,-8.2756,-8.3433,-8.4167,-8.474,-8.5379,-8.606,-8.6094,-8.5514,-8.4228,-8.4203,-8.357,-8.2219,-8.2186,-8.2186,-8.2186,-8.2186,-8.256,-8.3189,-8.385,-8.4154,-8.4203,-8.4785,-8.4718,-8.4104,-8.3461,-8.2793,-8.2284,-8.2935,-8.3189,-8.3189,-8.3218,-8.3246,-8.3246,-8.3246,-8.3246,-8.3359,-8.4016,-8.4241,-8.4241,-8.4228,-8.3772,-8.3246,-8.3246,-8.2732,-8.2219,-8.2186,-8.2186,-8.2186,-8.2186,-8.2186,-8.2186,-8.2186,-8.2186,-8.2186,-8.2186,-8.2186,-8.1929,-8.1158,-8.1012,-8.0461,-7.8919,-7.8626,-7.8295,-7.742,-7.731,-7.7273,-7.7273,-7.7273,-7.7273,-7.7273,-7.7273,-7.7273,-7.7273,-7.7273,-7.7273,-7.7273,-7.7273,-7.6907,-7.6166,-7.613,-7.5726,-7.4955,-7.334,-7.2532,-7.2532,-7.2496,-7.2496,-4.6278,0.0,0.0,0.0,0.0,0.0,0.0,0.0,-6.7667,-7.3168,-7.4668,-7.5976,-7.9285,-8.0939,-8.1862,-8.2093,-8.3187,-8.3862,-8.3446,-8.2627,-8.1956,-8.1522,-8.0879,-8.0681,-8.1269,-8.1492,-8.2304,-8.408,-8.4349,-8.4931,-8.6043,-8.6094,-8.5514,-8.4228,-8.4203,-8.357,-8.2219,-8.2186,-8.2186,-8.2186,-8.2186,-8.2279,-8.2497,-8.3161,-8.3461,-8.3488,-8.364,-8.3613,-8.3461,-8.3275,-8.2793,-8.2284,-8.2935,-8.3189,-8.3275,-8.372,-8.3902,-8.3902,-8.3902,-8.3902,-8.4029,-8.4651,-8.485,-8.4953,-8.5437,-8.51,-8.4475,-8.4054,-8.3433,-8.2823,-8.2311,-8.2186,-8.2186,-8.2186,-8.2186,-8.2186,-8.2186,-8.2186,-8.2186,-8.2186,-8.2186,-8.2113,-8.1893,-8.1379,-8.0865,-8.0388,-7.936,-7.8516,-7.8259,-7.7708,-7.7273,-7.7273,-7.7273,-7.7273,-7.7273,-7.7273,-7.7273,-7.7273,-7.7273,-7.7273,-7.7273,-7.7273,-7.72,-7.6974,-7.6387,-7.5983,-7.5763,-7.4147,-7.3377,-7.334,-7.2789,-7.2496,-4.774,-4.8779,0.0,0.0,0.0,0.0,-5.9165,-6.1089,-6.3628,0.0,-7.2245,-7.3591,-7.6399,-7.8323,-7.9515,-7.9515,-8.09,-8.2071,-8.2264,-8.1688,-8.1046,-8.0436,-8.0039,-7.9984,-8.0461,-8.0739,-8.1529,-8.3049,-8.3739,-8.4674,-8.6022,-8.5786,-8.5016,-8.3723,-8.3311,-8.2559,-8.1227,-8.1195,-8.1195,-8.1195,-8.1195,-8.135,-8.1618,-8.202,-8.237,-8.2705,-8.2705,-8.2718,-8.2793,-8.2793,-8.2739,-8.2708,-8.3359,-8.3772,-8.4017,-8.4443,-8.4583,-8.4583,-8.4583,-8.4583,-8.4673,-8.532,-8.5514,-8.557,-8.5971,-8.5645,-8.4957,-8.4372,-8.3515,-8.2708,-8.2279,-8.2186,-8.2186,-8.2186,-8.2186,-8.2186,-8.2186,-8.2186,-8.2186,-8.2186,-8.2186,-8.2186,-8.2186,-8.1819,-8.1379,-8.1048,-7.991,-7.8993,-7.8626,-7.7855,-7.7273,-7.7273,-7.7273,-7.7273,-7.7273,-7.7273,-7.7273,-7.7273,-7.7273,-7.7273,-7.7273,-7.7273,-7.7273,-7.7273,-7.6864,-7.646,-7.6093,-7.4808,-7.4184,-7.4184,-7.3744,-7.3523,-5.051,-5.0971,0.0,0.0,-5.201,0.0,-5.9973,-6.0242,-6.0819,0.0,-7.0591,-7.2052,-7.336,-7.5014,-7.6169,-7.6169,-7.79,-7.9744,-8.1188,-8.0968,-8.0386,-7.9719,-7.9626,-7.9663,-7.9774,-8.0229,-8.0918,-8.1736,-8.3063,-8.4423,-8.5769,-8.5132,-8.4136,-8.2817,-8.2066,-8.1072,-7.9795,-7.98,-7.98,-7.98,-7.98,-8.0093,-8.0693,-8.0693,-8.1065,-8.1772,-8.1846,-8.1955,-8.2076,-8.221,-8.2678,-8.3275,-8.394,-8.456,-8.5121,-8.5182,-8.5202,-8.5202,-8.5202,-8.5202,-8.532,-8.5919,-8.6094,-8.6094,-8.6094,-8.5682,-8.51,-8.4467,-8.3322,-8.2311,-8.2311,-8.2251,-8.2186,-8.2186,-8.2251,-8.2279,-8.2219,-8.2284,-8.2316,-8.2219,-8.2186,-8.2186,-8.2186,-8.2186,-8.1966,-8.1232,-8.0461,-7.9617,-7.8846,-7.8002,-7.7384,-7.731,-7.7273,-7.7273,-7.7273,-7.7273,-7.7273,-7.7273,-7.7273,-7.7273,-7.7273,-7.7273,-7.7273,-7.7273,-7.7273,-7.6974,-7.624,-7.5432,-7.4992,-7.4918,-7.4918,-7.4918,-5.3164,-5.3203,-5.3587,-5.1856,-5.2472,0.0,-5.2318,-5.3318,-5.5434,0.0,-5.9985,-6.1512,-6.5782,-6.7936,-6.909,-6.909,-7.2822,-7.6562,-7.9094,-7.9903,-7.9827,-7.8739,-7.8573,-7.8833,-7.9502,-7.9651,-8.0479,-8.2281,-8.3197,-8.378,-8.4055,-8.3939,-8.3255,-8.1963,-8.1764,-8.1072,-7.9795,-7.98,-7.98,-7.98,-7.98,-7.9858,-7.9977,-7.9977,-8.0088,-8.0272,-8.0898,-8.1208,-8.1333,-8.2534,-8.3111,-8.3275,-8.3928,-8.456,-8.5162,-8.57,-8.5881,-8.5881,-8.5881,-8.5881,-8.5937,-8.606,-8.6094,-8.6094,-8.6094,-8.6026,-8.5775,-8.5121,-8.4029,-8.2994,-8.2994,-8.2585,-8.2186,-8.2186,-8.2616,-8.2883,-8.2311,-8.2616,-8.2853,-8.2279,-8.2186,-8.2186,-8.2186,-8.2186,-8.215,-8.2003,-8.1269,-8.0461,-7.9653,-7.8846,-7.8075,-7.7347,-7.7273,-7.7273,-7.7273,-7.7273,-7.7273,-7.7273,-7.7273,-7.7273,-7.7273,-7.7273,-7.7273,-7.7273,-7.7273,-7.72,-7.7053,-7.6276,-7.5542,-7.4918,-7.4918,-7.4918,-5.6126,-5.5742,-5.5972,-5.428,-5.3857,0.0,0.0,-5.3203,-5.428,-5.8088,-5.8242,-5.8665,-6.2089,-6.3743,-6.4743,-6.5128,-6.9475,-7.3289,-7.4724,-7.7202,-7.8511,-7.759,-7.7226,-7.7202,-7.7612,-7.8326,-7.9773,-8.226,-8.277,-8.3131,-8.3555,-8.317,-8.2375,-8.1155,-8.067,-7.9837,-7.8552,-7.8552,-7.8552,-7.8552,-7.8552,-7.8552,-7.8552,-7.8552,-7.8772,-7.9213,-7.9617,-8.0456,-8.1555,-8.2301,-8.3222,-8.4166,-8.4537,-8.5037,-8.5645,-8.5971,-8.6094,-8.6094,-8.6094,-8.6094,-8.6094,-8.6094,-8.6094,-8.6094,-8.6094,-8.5864,-8.5532,-8.5182,-8.4405,-8.3624,-8.3303,-8.2935,-8.2616,-8.2284,-8.2434,-8.2708,-8.2708,-8.2708,-8.2708,-8.2708,-8.2402,-8.2186,-8.2186,-8.2186,-8.2186,-8.2186,-8.1525,-8.0718,-7.9874,-7.9103,-7.8259,-7.7384,-7.7273,-7.7273,-7.7273,-7.7273,-7.7273,-7.7273,-7.7273,-7.7273,-7.7273,-7.7273,-7.7273,-7.7273,-7.7273,-7.7273,-7.7273,-7.69,-7.6497,-7.6099,-7.6099,-7.6099,-6.0012,-5.9319,-5.955,-5.7692,-5.6192,-5.5203,0.0,0.0,0.0,-5.7896,-5.7665,-5.7319,0.0,0.0,0.0,-6.1243,0.0,0.0,0.0,-7.2394,0.0,-7.5825,-7.5746,-7.5682,-7.5682,-7.6685,-7.8522,-8.1353,-8.1285,-8.1593,-8.2785,-8.2243,-8.1403,-8.0287,-7.9444,-7.8525,-7.751,-7.7365,-7.7365,-7.748,-7.7365,-7.7273,-7.7273,-7.7273,-7.7708,-7.8369,-7.8633,-7.9823,-8.1541,-8.1928,-8.3109,-8.4663,-8.4968,-8.5514,-8.6094,-8.6094,-8.6094,-8.6094,-8.6094,-8.6094,-8.6094,-8.6094,-8.6094,-8.6094,-8.6094,-8.5719,-8.53,-8.53,-8.4828,-8.4252,-8.3693,-8.3378,-8.3045,-8.2528,-8.2407,-8.2497,-8.2906,-8.2708,-8.2528,-8.2906,-8.2554,-8.2186,-8.2186,-8.2186,-8.2186,-8.2186,-8.1636,-8.0865,-7.991,-7.9213,-7.8442,-7.7384,-7.7273,-7.7273,-7.7273,-7.7273,-7.7273,-7.7273,-7.7273,-7.7273,-7.7273,-7.7273,-7.7273,-7.7273,-7.7273,-7.7273,-7.7273,-7.7273,-7.7273,-7.7273,-7.7273,-7.7273,-6.5859,-6.5474,-6.482,-5.9473,-6.0165,-6.005,-5.2087,0.0,-5.3664,-5.1202,0.0,-5.1818,0.0,0.0,0.0,0.0,0.0,0.0,-6.0781,-6.386,-6.7779,-7.2447,-7.4277,-7.5171,-7.5171,-7.5128,-7.6141,-7.8746,-7.7553,-7.7746,-8.0131,-8.0325,-8.0061,-7.9372,-7.8716,-7.8336,-7.8173,-7.7599,-7.7599,-7.8173,-7.7599,-7.7273,-7.7273,-7.7273,-7.7347,-7.7518,-7.8821,-7.953,-7.9918,-8.1756,-8.2672,-8.3041,-8.451,-8.5514,-8.6094,-8.6094,-8.6094,-8.6094,-8.6094,-8.6094,-8.6094,-8.6094,-8.6094,-8.6094,-8.6094,-8.606,-8.5971,-8.5971,-8.5514,-8.4978,-8.4893,-8.4042,-8.3189,-8.3103,-8.3111,-8.2935,-8.2439,-8.2702,-8.2935,-8.2402,-8.2251,-8.2186,-8.2186,-8.2186,-8.2186,-8.2186,-8.2113,-8.1525,-7.9984,-7.969,-7.9066,-7.7457,-7.7273,-7.7273,-7.7273,-7.7273,-7.7273,-7.7273,-7.7273,-7.7273,-7.7273,-7.7273,-7.7273,-7.7273,-7.7273,-7.7273,-7.7273,-7.7273,-7.7273,-7.7273,-7.7273,-7.7273,-6.6205,-6.6474,-6.6551,-6.1127,-6.0819,-6.0165,-5.3818,-5.2318,-5.2164,-5.1702,0.0,0.0,0.0,0.0,0.0,0.0,-5.5588,0.0,0.0,0.0,-6.3412,-6.811,0.0,0.0,-7.1225,-7.2215,-7.3951,-7.6846,-7.5938,-7.6361,-7.89,-7.961,-7.9855,-7.9727,-7.9469,-7.9175,-7.8829,-7.8551,-7.8551,-7.8829,-7.8551,-7.8218,-7.7875,-7.7875,-7.7651,-7.7372,-7.8387,-7.9295,-8.0167,-8.1419,-8.2397,-8.3267,-8.3957,-8.4694,-8.5401,-8.5401,-8.5709,-8.6094,-8.6094,-8.6094,-8.6094,-8.6094,-8.6094,-8.6094,-8.6094,-8.6094,-8.6094,-8.6094,-8.5919,-8.557,-8.5202,-8.4467,-8.3677,-8.3303,-8.2876,-8.2647,-8.2763,-8.2708,-8.2647,-8.2763,-8.2465,-8.2186,-8.2186,-8.2186,-8.2186,-8.2186,-8.2186,-8.1599,-7.9984,-7.98,-7.914,-7.7457,-7.7273,-7.7273,-7.7273,-7.7273,-7.7273,-7.7273,-7.7273,-7.7273,-7.7273,-7.7273,-7.7273,-7.7273,-7.7273,-7.7273,-7.7273,-7.7273,-7.7273,-7.7273,-7.7273,-7.7273,-6.8129,-6.8398,-6.8359,-6.232,-6.0781,-5.9511,-5.4587,-5.2741,-5.2279,-5.3049,-5.2472,0.0,0.0,0.0,0.0,0.0,0.0,-5.5665,0.0,-5.6049,0.0,0.0,0.0,0.0,0.0,-6.8547,-7.0448,-7.3678,-7.3129,-7.4014,-7.7284,-7.833,-7.9152,-7.9743,-7.9834,-7.9706,-7.9447,-7.929,-7.929,-7.9447,-7.929,-7.8865,-7.8309,-7.8309,-7.7932,-7.7335,-7.82,-7.9166,-8.0197,-8.0981,-8.1964,-8.2901,-8.2901,-8.3439,-8.4209,-8.4478,-8.5055,-8.5786,-8.5786,-8.594,-8.6094,-8.6094,-8.6094,-8.6094,-8.6094,-8.6094,-8.6094,-8.6094,-8.6094,-8.5971,-8.5514,-8.4931,-8.4276,-8.3651,-8.2965,-8.256,-8.2883,-8.256,-8.2343,-8.2853,-8.2528,-8.2186,-8.2186,-8.2186,-8.2186,-8.2186,-8.2186,-8.1709,-8.0314,-7.991,-7.925,-7.7818,-7.742,-7.7273,-7.7273,-7.7273,-7.7273,-7.7273,-7.7273,-7.7273,-7.7273,-7.7273,-7.7273,-7.7273,-7.7273,-7.7273,-7.7273,-7.7273,-7.7273,-7.7273,-7.7273,-7.7273,-7.413,-7.3283,-7.1321,-6.2897,-6.0781,-5.905,-5.2366,-5.328,-5.5088,-5.351,-5.578,-5.7511,-5.5895,0.0,0.0,0.0,0.0,0.0,0.0,0.0,0.0,0.0,0.0,0.0,0.0,-6.4026,-6.4949,-6.8385,-6.7821,-6.9513,-7.4553,-7.5834,-7.717,-7.8866,-7.9118,-7.9491,-8.0086,-7.9491,-7.9491,-8.0048,-7.9469,-7.8865,-7.8309,-7.8309,-7.7932,-7.7365,-7.8653,-7.9175,-7.9328,-8.0593,-8.1154,-8.117,-8.117,-8.167,-8.2477,-8.3324,-8.417,-8.4939,-8.4939,-8.544,-8.6094,-8.6094,-8.6094,-8.6094,-8.6094,-8.6094,-8.6094,-8.6094,-8.6094,-8.6094,-8.6077,-8.557,-8.4915,-8.4325,-8.3677,-8.2994,-8.2375,-8.2219,-8.2186,-8.2219,-8.2219,-8.2186,-8.2186,-8.2186,-8.2186,-8.2186,-8.2186,-8.1893,-8.1085,-8.0277,-7.947,-7.8662,-7.7818,-7.7273,-7.7273,-7.7273,-7.7273,-7.7273,-7.7273,-7.7273,-7.7273,-7.7273,-7.7273,-7.7273,-7.7273,-7.7273,-7.7273,-7.7273,-7.7273,-7.7273,-7.7273,-7.7273,-7.5745,-7.6823,-7.6361,-6.7244,-6.4974,-6.2897,-5.5011,-5.4944,-5.6099,-5.4395,-5.6742,-5.8588,-5.6868,0.0,0.0,0.0,0.0,0.0,0.0,0.0,0.0,0.0,0.0,0.0,0.0,0.0,-6.4012,-6.5743,-6.7167,-6.9436,-7.286,-7.4996,-7.6875,-7.858,-7.9271,-7.9981,-8.075,-8.0573,-8.0573,-8.075,-8.0555,-7.9926,-7.8927,-7.8927,-7.8325,-7.7365,-7.8641,-7.9198,-7.929,-8.0573,-8.1093,-8.1093,-8.1093,-8.1285,-8.1593,-8.2439,-8.367,-8.4978,-8.5517,-8.5863,-8.6094,-8.6094,-8.6094,-8.6094,-8.6094,-8.6094,-8.6026,-8.5551,-8.5418,-8.534,-8.4953,-8.4349,-8.3798,-8.3597,-8.3024,-8.2465,-8.2251,-8.2186,-8.2186,-8.2186,-8.2186,-8.2186,-8.2186,-8.2186,-8.2186,-8.2186,-8.2186,-8.1893,-8.1122,-8.0277,-7.947,-7.8699,-7.7818,-7.7273,-7.7273,-7.7273,-7.7273,-7.7273,-7.7273,-7.7273,-7.7273,-7.7273,-7.7273,-7.7273,-7.7273,-7.7273,-7.7273,-7.7273,-7.7273,-7.7273,-7.7273,-7.7273,-7.8284,-7.9208,-7.8823,-7.1245,-6.8898,-6.6551,-5.9281,-5.9165,-6.0139,-5.8434,-5.9819,-6.1358,-6.1473,0.0,0.0,0.0,0.0,0.0,0.0,-4.8009,0.0,0.0,0.0,0.0,0.0,-5.8319,-6.0935,-6.3897,-6.482,-6.6898,0.0,-7.3245,-7.5399,-7.7092,-7.8861,-8.0092,-8.0631,-8.0939,-8.1093,-8.1093,-8.1093,-8.0555,-7.9513,-7.9513,-7.8962,-7.8035,-7.9081,-7.9513,-7.96,-8.0643,-8.1093,-8.1093,-8.1093,-8.1093,-8.117,-8.167,-8.2978,-8.4593,-8.5709,-8.6094,-8.6094,-8.6094,-8.6094,-8.6094,-8.6094,-8.6094,-8.5954,-8.53,-8.5121,-8.4957,-8.4349,-8.3888,-8.3488,-8.3275,-8.2883,-8.2497,-8.2251,-8.2186,-8.2186,-8.2186,-8.2186,-8.2186,-8.2186,-8.2186,-8.2186,-8.2186,-8.2186,-8.2003,-8.1489,-8.0718,-7.991,-7.9103,-7.8259,-7.7671,-7.731,-7.7273,-7.7273,-7.7273,-7.7273,-7.7273,-7.7273,-7.7273,-7.7273,-7.7273,-7.7273,-7.7273,-7.7273,-7.7273,-7.7273,-7.7273,-7.7273,-7.7273]},{"header":{"parameterUnit":"m.s-1","parameterCategory":1,"la1":30.6,"la2":29.2853,"lo1":-89.7004,"lo2":-87.6739,"dy":0.0162,"dx":0.0183,"nx":112,"ny":82,"refTime":"2024-05-15T12:00:00:Z","depth":0,"parameterNumber":3,"parameterNumberName":"V-component_of_WINDS"},"data":[0.0,0.0,0.0,0.0,0.0,0.0,0.0,0.0,0.0,0.0,0.0,0.0,0.0,0.0,0.0,0.0,0.0,0.0,0.0,0.0,0.0,0.0,0.0,0.0,0.0,0.0,0.0,0.0,0.0,0.0,0.0,0.0,0.0,0.0,0.0,0.0,0.0,0.0,0.0,0.0,0.0,0.0,0.0,0.0,0.0,0.0,0.0,0.0,0.0,0.0,0.0,0.0,0.0,0.0,0.0,0.0,0.0,0.0,0.0,0.0,0.0,0.0,0.0,0.0,0.0,0.0,0.0,0.0,0.0,0.0,0.0,0.0,0.0,0.0,0.0,0.0,0.0,0.0,0.0,0.0,0.0,0.0,0.0,0.0,0.0,0.0,0.0,0.0,0.0,0.0,2.8349,3.3266,3.9032,4.2422,4.1933,4.0605,3.7461,3.1973,0.0,0.0,0.0,0.0,0.0,0.0,0.0,0.0,0.0,0.0,0.0,0.0,0.0,0.0,0.0,0.0,0.0,0.0,0.0,0.0,0.0,0.0,0.0,0.0,0.0,0.0,0.0,0.0,0.0,0.0,0.0,0.0,0.0,0.0,0.0,0.0,0.0,0.0,0.0,0.0,0.0,0.0,0.0,0.0,0.0,0.0,0.0,0.0,0.0,0.0,0.0,0.0,0.0,0.0,0.0,0.0,0.0,0.0,0.0,0.0,0.0,0.0,0.0,0.0,0.0,0.0,0.0,0.0,0.0,0.0,0.0,0.0,0.0,0.0,0.0,0.0,0.0,0.0,0.0,0.0,0.0,0.0,0.0,0.0,0.0,0.0,0.0,0.0,0.0,0.0,0.0,0.0,0.0,0.0,0.0,0.0,0.0,0.0,0.0,0.0,0.0,0.0,0.0,0.0,3.3142,3.9679,4.2222,4.3183,4.2402,4.0469,3.7226,3.2383,0.0,0.0,0.0,0.0,0.0,0.0,0.0,0.0,0.0,0.0,0.0,0.0,0.0,0.0,0.0,0.0,0.0,0.0,0.0,0.0,0.0,0.0,0.0,0.0,0.0,0.0,0.0,0.0,0.0,0.0,0.0,0.0,0.0,0.0,0.0,0.0,0.0,0.0,0.0,0.0,0.0,0.0,0.0,0.0,0.0,0.0,0.0,0.0,0.0,0.0,0.0,0.0,0.0,0.0,0.0,0.0,0.0,0.0,0.0,0.0,0.0,0.0,0.0,0.0,0.0,0.0,0.0,0.0,0.0,0.0,0.0,0.0,0.0,0.0,0.0,0.0,0.0,0.0,0.0,0.0,0.0,0.0,0.0,0.0,0.0,0.0,0.0,0.0,0.0,0.0,0.0,0.0,0.0,0.0,0.0,0.0,0.0,0.0,0.0,0.0,0.0,0.0,0.0,2.8742,3.3684,4.0029,4.2529,4.3359,4.25,4.0684,3.7461,3.248,2.9902,0.0,0.0,0.0,0.0,0.0,0.0,0.0,0.0,0.0,0.0,0.0,0.0,0.0,0.0,0.0,0.0,0.0,0.0,0.0,0.0,0.0,0.0,0.0,0.0,0.0,0.0,0.0,0.0,0.0,0.0,0.0,0.0,0.0,0.0,0.0,0.0,0.0,0.0,0.0,0.0,0.0,0.0,0.0,0.0,0.0,0.0,0.0,0.0,0.0,0.0,0.0,0.0,0.0,0.0,0.0,0.0,0.0,0.0,0.0,0.0,0.0,0.0,0.0,0.0,0.0,0.0,0.0,0.0,0.0,0.0,0.0,0.0,0.0,0.0,0.0,0.0,0.0,0.0,0.0,0.0,0.0,0.0,0.0,0.0,0.0,0.0,0.0,0.0,0.0,0.0,0.0,0.0,0.0,0.0,0.0,0.0,0.0,0.0,0.0,0.0,0.0,0.0,3.0288,3.4157,3.9375,4.222,4.3359,4.25,4.0488,3.7246,3.2522,2.9355,0.0,0.0,0.0,0.0,0.0,0.0,0.0,0.0,0.0,0.0,0.0,0.0,0.0,0.0,0.0,0.0,0.0,0.0,0.0,0.0,0.0,0.0,0.0,0.0,0.0,0.0,0.0,0.0,0.0,0.0,0.0,0.0,0.0,0.0,0.0,0.0,0.0,0.0,0.0,0.0,0.0,0.0,0.0,0.0,0.0,0.0,0.0,0.0,0.0,0.0,0.0,0.0,0.0,0.0,0.0,0.0,0.0,0.0,0.0,0.0,0.0,0.0,0.0,0.0,0.0,0.0,0.0,0.0,0.0,0.0,0.0,0.0,0.0,0.0,0.0,0.0,0.0,0.0,0.0,0.0,0.0,0.0,0.0,0.0,0.0,0.0,0.0,0.0,0.0,0.0,0.0,0.0,0.0,0.0,0.0,0.0,0.0,0.0,0.0,0.0,0.0,0.0,3.2243,3.6464,3.9892,4.2307,4.3359,4.25,3.9394,3.5957,3.2402,2.8242,0.0,0.0,0.0,0.0,0.0,0.0,0.0,0.0,0.0,0.0,0.0,0.0,0.0,0.0,0.0,0.0,0.0,0.0,0.0,0.0,0.0,0.0,0.0,0.0,0.0,0.0,0.0,0.0,0.0,0.0,0.0,0.0,0.0,0.0,0.0,0.0,0.0,0.0,0.0,0.0,0.0,0.0,0.0,0.0,0.0,0.0,0.0,0.0,0.0,0.0,0.0,0.0,0.0,0.0,0.0,0.0,0.0,0.0,0.0,0.0,0.0,0.0,0.0,0.0,0.0,0.0,0.0,0.0,0.0,0.0,0.0,0.0,0.0,0.0,0.0,0.0,0.0,0.0,0.0,0.0,0.0,0.0,0.0,0.0,0.0,0.0,0.0,0.0,0.0,0.0,0.0,0.0,0.0,0.0,0.0,0.0,0.0,0.0,0.0,0.0,0.0,0.0,3.3211,3.7535,0.0,4.3176,4.3359,4.25,4.0273,3.6992,3.2461,0.0,0.0,0.0,0.0,0.0,0.0,0.0,0.0,0.0,0.0,0.0,0.0,0.0,0.0,0.0,0.0,0.0,0.0,0.0,0.0,0.0,0.0,0.0,0.0,0.0,0.0,0.0,0.0,0.0,0.0,0.0,0.0,0.0,0.0,0.0,0.0,0.0,0.0,0.0,0.0,0.0,0.0,0.0,0.0,0.0,0.0,0.0,0.0,0.0,0.0,0.0,0.0,0.0,0.0,0.0,0.0,0.0,0.0,0.0,0.0,0.0,0.0,0.0,0.0,0.0,0.0,0.0,0.0,0.0,0.0,0.0,0.0,0.0,0.0,0.0,0.0,0.0,0.0,0.0,0.0,0.0,0.0,0.0,0.0,0.0,0.0,0.0,0.0,0.0,0.0,0.0,0.0,0.0,0.0,0.0,0.0,0.0,0.0,0.0,0.0,0.0,0.0,2.7515,3.2684,3.7439,0.0,4.2844,4.3301,4.2305,4.0176,3.6894,3.2246,0.0,0.0,0.0,0.0,0.0,0.0,0.0,0.0,0.0,0.0,0.0,0.0,0.0,0.0,0.0,0.0,0.0,0.0,0.0,0.0,0.0,0.0,0.0,0.0,0.0,0.0,0.0,0.0,0.0,0.0,0.0,0.0,0.0,0.0,0.0,0.0,0.0,0.0,0.0,0.0,0.0,0.0,0.0,0.0,0.0,0.0,0.0,0.0,0.0,0.0,0.0,0.0,0.0,0.0,0.0,0.0,0.0,0.0,0.0,0.0,0.0,0.0,0.0,0.0,0.0,0.0,0.0,0.0,0.0,0.0,0.0,0.0,0.0,0.0,0.0,0.0,0.0,0.0,0.0,0.0,0.0,0.0,0.0,0.0,0.0,0.0,0.0,0.0,0.0,0.0,0.0,0.0,0.0,0.0,0.0,0.0,0.0,0.0,0.0,0.0,0.0,0.0,2.3209,3.0732,3.6173,3.6834,4.095,4.3183,4.1914,3.8652,3.5215,0.0,0.0,0.0,0.0,0.0,0.0,0.0,0.0,0.0,0.0,0.0,0.0,0.0,0.0,0.0,0.0,0.0,0.0,0.0,0.0,0.0,0.0,0.0,0.0,0.0,0.0,0.0,0.0,0.0,0.0,0.0,0.0,0.0,0.0,0.0,0.0,0.0,0.0,0.0,0.0,0.0,0.0,0.0,0.0,0.0,0.0,0.0,0.0,0.0,0.0,0.0,0.0,0.0,0.0,0.0,0.0,0.0,0.0,0.0,0.0,0.0,0.0,0.0,0.0,0.0,0.0,0.0,0.0,0.0,0.0,0.0,0.0,0.0,0.0,0.0,0.0,0.0,0.0,0.0,0.0,0.0,0.0,0.0,0.0,0.0,0.0,0.0,0.0,0.0,0.0,0.0,0.0,0.0,0.0,0.0,0.0,0.0,0.0,0.0,0.0,0.0,0.0,0.0,2.8112,3.4196,3.9127,4.1463,4.2658,4.2871,4.1875,3.9473,3.6152,3.1797,0.0,0.0,0.0,0.0,0.0,0.0,0.0,0.0,0.0,0.0,0.0,0.0,0.0,0.0,0.0,0.0,0.0,0.0,0.0,0.0,0.0,0.0,0.0,0.0,0.0,0.0,0.0,0.0,0.0,0.0,0.0,0.0,0.0,0.0,0.0,0.0,0.0,0.0,0.0,0.0,0.0,0.0,0.0,0.0,0.0,0.0,0.0,0.0,0.0,0.0,0.0,0.0,0.0,0.0,0.0,0.0,0.0,0.0,0.0,0.0,0.0,0.0,0.0,0.0,0.0,0.0,0.0,0.0,0.0,0.0,0.0,0.0,0.0,0.0,0.0,0.0,0.0,0.0,0.0,0.0,0.0,0.0,0.0,0.0,0.0,0.0,0.0,0.0,0.0,0.0,0.0,0.0,0.0,0.0,0.0,0.0,0.0,0.0,0.0,0.0,0.0,0.0,2.9497,3.4602,3.8948,4.2046,4.2809,4.2734,4.1875,3.9668,3.6445,3.2051,0.0,0.0,0.0,0.0,0.0,0.0,0.0,0.0,0.0,0.0,0.0,0.0,0.0,0.0,0.0,0.0,0.0,0.0,0.0,0.0,0.0,0.0,0.0,0.0,0.0,0.0,0.0,0.0,0.0,0.0,0.0,0.0,0.0,0.0,0.0,0.0,0.0,0.0,0.0,0.0,0.0,0.0,0.0,0.0,0.0,0.0,0.0,0.0,0.0,0.0,0.0,0.0,0.0,0.0,0.0,0.0,0.0,0.0,0.0,0.0,0.0,0.0,0.0,0.0,0.0,0.0,0.0,0.0,0.0,0.0,0.0,0.0,0.0,0.0,0.0,0.0,0.0,0.0,0.0,0.0,0.0,0.0,0.0,0.0,0.0,0.0,0.0,0.0,0.0,0.0,0.0,0.0,0.0,0.0,0.0,0.0,0.0,0.0,0.0,0.0,0.0,0.0,2.8313,3.2813,3.6705,3.991,4.189,4.2676,4.1816,3.9434,3.6348,3.2519,0.0,0.0,0.0,0.0,0.0,0.0,0.0,0.0,0.0,0.0,0.0,0.0,0.0,0.0,0.0,0.0,0.0,0.0,0.0,0.0,0.0,0.0,0.0,0.0,0.0,0.0,0.0,0.0,0.0,0.0,0.0,0.0,0.0,0.0,0.0,0.0,0.0,0.0,0.0,0.0,0.0,0.0,0.0,0.0,0.0,0.0,0.0,0.0,0.0,0.0,0.0,0.0,0.0,0.0,0.0,0.0,0.0,0.0,0.0,0.0,2.3527,2.2124,0.0,0.0,0.0,0.0,0.0,0.0,0.0,0.0,0.0,0.0,0.0,0.0,0.0,0.0,0.0,0.0,0.0,0.0,0.0,0.0,0.0,0.0,0.0,0.0,0.0,0.0,0.0,0.0,0.0,0.0,0.0,0.0,0.0,0.0,0.0,0.0,0.0,0.0,0.0,0.0,2.7092,3.2427,3.6809,3.9468,4.1455,4.2226,4.1387,3.9551,3.6914,3.3379,3.0059,0.0,0.0,0.0,0.0,0.0,0.0,0.0,0.0,0.0,0.0,0.0,0.0,0.0,0.0,0.0,0.0,0.0,0.0,0.0,0.0,0.0,0.0,0.0,0.0,0.0,0.0,0.0,0.0,0.0,0.0,0.0,0.0,0.0,0.0,0.0,0.0,0.0,0.0,0.0,0.0,0.0,0.0,0.0,0.0,0.0,0.0,0.0,0.0,0.0,0.0,0.0,0.0,0.0,0.0,0.0,0.0,0.0,0.0,0.0,2.5782,2.4489,0.0,0.0,0.0,0.0,0.0,0.0,0.0,0.0,0.0,0.0,0.0,0.0,0.0,0.0,0.0,0.0,0.0,0.0,0.0,0.0,0.0,0.0,0.0,0.0,0.0,0.0,0.0,0.0,0.0,0.0,0.0,0.0,0.0,0.0,0.0,0.0,0.0,0.0,0.0,0.0,2.9108,3.3802,3.7781,4.0633,4.1622,4.1953,4.1504,3.9687,3.7363,3.4551,3.1328,0.0,0.0,0.0,0.0,0.0,0.0,0.0,0.0,0.0,0.0,0.0,0.0,0.0,0.0,0.0,0.0,0.0,0.0,0.0,0.0,0.0,0.0,0.0,0.0,0.0,0.0,0.0,0.0,0.0,0.0,0.0,0.0,0.0,0.0,0.0,0.0,0.0,0.0,0.0,0.0,0.0,0.0,0.0,0.0,0.0,0.0,0.0,0.0,0.0,0.0,0.0,0.0,0.0,2.8484,2.8885,2.9593,2.9352,2.978,3.0555,2.831,2.7562,2.7736,2.5104,0.0,0.0,0.0,0.0,0.0,0.0,0.0,0.0,0.0,0.0,0.0,0.0,0.0,0.0,0.0,0.0,0.0,0.0,0.0,0.0,0.0,0.0,2.3994,2.6147,2.7215,2.6733,2.2835,0.0,0.0,0.0,0.0,0.0,0.0,0.0,0.0,0.0,0.0,0.0,3.1015,3.5097,3.8632,4.1369,4.1754,4.1699,4.1484,3.9746,3.7734,3.5527,3.248,2.9492,0.0,0.0,0.0,0.0,0.0,0.0,0.0,0.0,0.0,0.0,0.0,0.0,0.0,0.0,0.0,0.0,0.0,0.0,0.0,0.0,0.0,0.0,0.0,0.0,0.0,0.0,0.0,0.0,0.0,0.0,0.0,0.0,2.2739,2.2899,0.0,0.0,0.0,0.0,0.0,0.0,0.0,0.0,0.0,0.0,0.0,0.0,0.0,2.8404,2.9072,3.0621,3.145,3.1543,3.2786,3.3454,3.3561,3.3521,3.3587,3.3708,3.3106,0.0,2.8751,2.7335,0.0,0.0,0.0,0.0,0.0,0.0,0.0,0.0,0.0,0.0,0.0,0.0,0.0,0.0,0.0,0.0,0.0,0.0,0.0,0.0,0.0,0.0,2.9028,2.8837,3.0272,3.1555,3.098,2.808,2.4917,2.2544,2.2496,2.1905,0.0,0.0,0.0,0.0,0.0,0.0,2.8263,3.3991,3.8084,3.8751,4.0588,4.1348,4.0234,3.9512,3.8047,3.5547,3.3887,3.1992,2.969,2.7324,0.0,0.0,0.0,0.0,0.0,0.0,0.0,0.0,0.0,0.0,0.0,0.0,0.0,0.0,0.0,0.0,0.0,0.0,0.0,0.0,0.0,0.0,0.0,0.0,0.0,0.0,0.0,0.0,0.0,2.2405,2.3875,2.338,2.3647,2.33,0.0,0.0,0.0,0.0,0.0,0.0,0.0,0.0,0.0,3.0127,3.0595,3.1263,3.2198,3.3133,3.3681,3.3855,3.467,3.5137,3.5311,3.5311,3.5311,3.5284,3.4817,3.3721,3.2064,2.9726,2.7762,2.6157,0.0,0.0,0.0,0.0,2.3861,2.4155,2.5451,2.5611,2.5233,2.4596,0.0,0.0,0.0,0.0,0.0,0.0,0.0,2.3313,2.4142,2.7079,3.0232,3.2015,3.2846,3.4084,3.6809,3.4252,3.0365,2.6939,2.6361,2.5344,2.1957,2.2507,0.0,0.0,0.0,2.9782,3.106,3.5575,3.8783,3.9139,4.0086,4.0391,3.957,3.9101,3.7969,3.5879,3.4746,3.3301,3.1406,2.9297,2.7168,0.0,0.0,0.0,0.0,0.0,0.0,0.0,0.0,0.0,0.0,0.0,0.0,0.0,0.0,0.0,0.0,0.0,0.0,0.0,0.0,0.0,0.0,0.0,0.0,0.0,0.0,0.0,0.0,2.3741,2.509,2.4222,2.5224,2.5144,0.0,0.0,0.0,0.0,0.0,0.0,2.9098,2.9873,3.1089,3.2839,3.3253,3.3908,3.487,3.5177,3.5431,3.5645,3.5859,3.6072,3.6286,3.6286,3.6286,3.6273,3.5752,3.5324,3.4736,3.1717,2.986,2.8778,2.7161,2.6119,2.5598,2.6119,2.6253,2.6413,2.8043,2.8404,2.8073,2.7054,2.6293,2.5317,2.3033,0.0,0.0,0.0,0.0,2.4436,2.5825,2.8182,3.0858,3.3482,3.4585,3.6057,3.9572,3.8309,3.5339,3.1405,3.0537,2.9299,2.5411,2.604,0.0,2.5526,2.9303,3.2674,3.4033,3.7108,3.9375,3.9844,3.9785,3.9492,3.8926,3.8496,3.7519,3.5801,3.5059,3.4043,3.2559,3.1035,2.9277,2.7246,0.0,0.0,0.0,0.0,0.0,0.0,0.0,0.0,0.0,0.0,0.0,0.0,0.0,0.0,0.0,0.0,0.0,0.0,0.0,0.0,0.0,0.0,0.0,0.0,0.0,0.0,0.0,0.0,0.0,2.6333,2.8257,0.0,0.0,0.0,0.0,2.7966,2.94,3.0675,3.1837,3.3013,3.4068,3.5004,3.5591,3.6059,3.6393,3.6687,3.6834,3.6861,3.6861,3.6861,3.6901,3.6901,3.6901,3.6861,3.658,3.6112,3.5404,3.2986,3.1623,3.0955,2.9753,2.8738,2.8087,2.8337,2.827,2.8154,2.847,2.8404,2.8315,2.8724,2.7736,2.6266,2.5838,2.4943,0.0,0.0,2.5785,2.6507,2.7779,2.9873,3.1697,3.1924,3.5048,3.807,3.8047,3.8932,3.8703,3.5559,3.5336,3.4115,2.9344,0.0,3.1124,2.8888,3.1672,3.426,3.5119,3.7549,3.9375,3.9844,3.9492,3.8906,3.8066,3.7598,3.6621,3.4883,3.4726,3.4297,3.3398,3.25,3.127,2.9434,2.7305,0.0,0.0,0.0,0.0,0.0,0.0,0.0,0.0,0.0,0.0,0.0,0.0,0.0,0.0,0.0,0.0,0.0,0.0,0.0,0.0,0.0,0.0,0.0,0.0,0.0,0.0,0.0,0.0,2.8136,3.0007,0.0,2.8831,2.9526,3.0261,3.0662,3.2064,3.3427,3.4589,3.5244,3.5979,3.6874,3.6901,3.6981,3.7061,3.6981,3.6941,3.6941,3.6941,3.6941,3.6941,3.6941,3.6941,3.6941,3.662,3.6286,3.5819,3.4589,3.34,3.2278,3.1476,3.0742,3.0114,3.0047,2.994,2.986,2.998,2.982,2.9513,2.9152,2.835,2.7495,2.747,2.7149,2.6841,2.7362,2.7655,2.7949,2.8564,3.0368,3.2114,3.2214,3.3212,3.4487,3.5913,3.6407,3.656,3.6597,3.6953,3.6333,3.3527,3.4202,3.4533,3.2843,3.4643,3.6355,3.6876,3.8054,3.8867,3.9023,3.8652,3.8144,3.7578,3.6875,3.5957,3.4766,3.4453,3.4023,3.3437,3.2617,3.1465,3.0,2.8418,2.5723,0.0,0.0,0.0,0.0,0.0,0.0,0.0,0.0,0.0,0.0,0.0,0.0,0.0,0.0,0.0,0.0,0.0,0.0,0.0,0.0,0.0,0.0,0.0,0.0,0.0,2.7589,2.9633,2.9633,3.1717,3.2532,3.0955,3.2051,3.2986,3.3267,3.4482,3.5591,3.6473,3.5787,3.5617,3.6167,3.6001,3.586,3.5758,3.661,3.7048,3.6941,3.6941,3.6941,3.6941,3.6941,3.6941,3.6941,3.6727,3.6433,3.6032,3.5551,3.4589,3.3374,3.2772,3.2131,3.149,3.1196,3.0969,3.0782,3.0675,3.0461,3.0114,2.9526,2.9072,2.8724,2.8717,2.8676,2.8644,2.8845,2.8898,2.8978,2.9259,3.0437,3.1483,3.1368,3.1634,3.2311,3.3664,3.4327,3.507,3.6192,3.7612,3.8144,3.6719,3.6816,3.6758,3.5723,3.668,3.7617,3.7891,3.8301,3.8574,3.8574,3.8066,3.7539,3.7129,3.6152,3.5254,3.4531,3.3945,3.3457,3.3008,3.2187,3.1191,3.0,2.8457,2.6035,2.2734,0.0,0.0,0.0,0.0,0.0,0.0,0.0,0.0,0.0,0.0,0.0,0.0,0.0,0.0,0.0,0.0,0.0,0.0,0.0,0.0,0.0,0.0,0.0,2.653,2.9104,3.0796,3.0929,3.348,3.4563,3.2853,3.4242,3.5364,3.5444,3.6268,3.6879,3.7157,3.4436,3.2954,3.308,3.316,3.3042,3.2784,3.587,3.7235,3.6941,3.6941,3.6941,3.6941,3.6941,3.6941,3.6941,3.6941,3.6607,3.6032,3.5752,3.511,3.4242,3.3641,3.2879,3.2078,3.1784,3.1303,3.0755,3.0448,3.0154,2.9913,2.9913,2.9913,2.986,2.9579,2.9499,2.9499,2.9499,2.9499,2.9566,2.9847,2.9913,2.9766,2.9179,3.0622,3.2029,3.1458,3.3022,3.457,3.457,3.7361,3.9479,3.8696,3.817,3.7741,3.7402,3.7676,0.0,3.7949,3.832,3.8555,3.8535,3.7773,3.7109,3.668,3.5449,3.4512,3.4101,3.3262,3.2598,3.2248,3.1348,3.0469,2.9646,2.748,2.5742,2.4434,0.0,0.0,0.0,0.0,0.0,0.0,0.0,0.0,0.0,0.0,0.0,0.0,0.0,0.0,0.0,0.0,0.0,0.0,0.0,0.0,0.0,2.5161,2.7952,2.8678,2.9211,3.0677,3.3678,3.5271,3.6032,3.5765,3.6166,3.5579,3.3578,3.3685,3.298,3.121,3.0367,3.1058,3.3584,3.3348,3.4179,3.6405,3.6801,3.7008,3.6941,3.6941,3.6941,3.6941,3.6941,3.6941,3.6941,3.6941,3.65,3.5738,3.5658,3.499,3.3948,3.3334,3.2826,3.2358,3.1851,3.1303,3.0715,3.0207,2.998,2.9913,2.9913,2.9913,2.99,2.982,2.9793,2.9793,2.9793,2.9793,2.982,2.99,2.9913,2.9766,2.9179,2.9453,2.9793,2.9172,3.0744,3.2299,3.2299,3.4111,3.5965,3.6947,3.6771,3.6887,3.8064,3.832,3.8398,3.8398,3.8496,3.834,3.7715,3.7168,3.666,3.623,3.5,3.4199,3.4082,3.2988,3.2285,3.2168,3.1348,3.0469,2.9646,2.748,2.5898,0.0,0.0,0.0,0.0,0.0,0.0,0.0,0.0,0.0,0.0,0.0,0.0,0.0,0.0,0.0,0.0,0.0,0.0,0.0,0.0,0.0,0.0,2.3675,2.6077,2.7652,3.0079,3.2641,3.5405,3.6299,3.6242,3.5253,3.5065,3.3897,3.095,3.0857,3.0215,2.8824,2.7529,2.8465,3.1793,3.1624,3.2909,3.5851,3.68,3.7195,3.6941,3.6941,3.6941,3.6941,3.6941,3.6941,3.6941,3.6794,3.6326,3.5605,3.5364,3.4723,3.3828,0.0,0.0,0.0,0.0,3.1303,3.0742,3.0408,3.0127,2.9913,2.9913,2.9913,2.9913,2.9913,2.9913,2.9913,2.9913,2.9913,2.9913,2.9913,2.982,2.9619,2.9152,2.8951,2.8724,2.8328,2.9202,3.0093,3.0093,3.0845,0.0,3.4837,3.5693,3.6492,3.8088,3.8457,3.8516,3.832,3.8457,3.832,3.7637,3.7187,3.668,3.6074,3.4824,0.0,0.0,0.0,3.1914,3.1367,3.0527,0.0,0.0,0.0,0.0,0.0,0.0,0.0,0.0,2.5801,2.5469,0.0,0.0,0.0,0.0,0.0,0.0,0.0,0.0,0.0,0.0,0.0,0.0,0.0,0.0,0.0,0.0,2.084,2.1739,2.4836,3.0811,3.5136,3.6009,3.6242,3.5601,3.3327,3.2359,3.0956,2.8541,2.8096,2.7942,2.7707,2.5281,0.0,0.0,0.0,3.0111,3.3045,3.5788,3.7138,3.6941,3.6941,3.6941,3.6941,3.6941,3.6941,3.6941,3.662,3.6153,3.5538,3.499,3.4362,3.3681,3.3146,3.2732,3.2385,3.1824,3.1263,3.0795,3.0755,0.0,0.0,2.9913,2.9913,2.9913,2.9913,2.9913,2.9913,2.9913,2.9913,2.9913,2.9873,2.9673,2.9406,2.9072,2.8791,2.8524,2.8301,2.8221,2.8221,2.8221,2.8207,2.9298,3.2745,3.465,3.6231,3.7745,3.832,3.8437,3.8047,3.834,3.8379,3.7832,3.7461,0.0,3.6016,3.4805,3.4082,3.4082,3.2871,3.1621,3.0391,2.9668,2.9258,2.9219,2.959,2.9941,3.0273,3.0742,3.0957,3.0879,2.7773,2.7129,0.0,0.0,0.0,0.0,0.0,0.0,0.0,0.0,0.0,0.0,0.0,0.0,0.0,0.0,0.0,2.2463,2.3537,2.423,2.3524,2.8871,3.3038,3.3207,3.3336,3.4218,3.6233,3.2012,2.8954,2.8656,2.6325,2.384,2.1518,2.0965,2.2039,2.5266,2.5109,2.7629,3.3045,3.3416,3.4744,3.6941,3.6941,0.0,3.6941,3.6941,3.6941,3.6941,3.662,3.6046,3.5257,3.491,3.3988,3.2799,3.2679,3.2305,3.1797,3.1436,3.1089,3.0755,3.0528,3.0207,2.9913,2.9913,2.9913,2.9913,2.9913,2.9913,0.0,2.9913,2.9913,2.986,2.9633,2.9526,2.9352,2.8818,2.8644,2.8524,2.8301,2.8221,2.8221,2.8221,2.7949,2.8963,3.2792,3.3686,3.4932,3.797,3.8516,3.8555,3.8457,3.8516,3.8144,3.7031,3.6836,3.6445,3.5586,3.4629,3.4082,3.4082,3.2871,3.1894,3.1289,3.1445,3.1367,3.1016,3.1094,3.1016,3.0762,3.1191,3.1406,3.1367,3.0371,3.0078,0.0,0.0,0.0,0.0,0.0,0.0,0.0,0.0,0.0,0.0,0.0,2.5477,0.0,0.0,2.5283,2.4099,2.3801,2.3438,2.2625,2.5458,2.8264,2.998,3.1579,3.2012,3.0754,2.789,2.5509,2.4273,2.2671,2.1166,1.9765,1.9664,2.1093,2.4305,2.4248,2.6975,3.3045,3.2799,3.412,3.6941,3.6941,3.6941,3.6941,3.6794,3.6727,3.6687,3.6259,3.5658,3.4923,3.4175,3.3347,3.2629,3.2385,3.2051,3.165,3.1503,3.1169,3.0768,3.0621,3.0287,2.9913,2.9913,2.9913,2.9913,2.9913,2.9913,2.9913,2.9913,2.9913,2.9847,2.9566,2.9379,2.9152,2.8711,2.8484,2.8337,2.8261,2.8221,2.8221,2.8221,2.7896,2.8893,3.2776,3.3273,3.435,3.8067,3.8574,3.8574,3.8574,3.8379,3.793,3.707,3.6797,3.6406,3.5762,3.4902,3.4297,3.4082,3.3066,3.2383,3.2168,3.2168,3.207,3.1855,3.2051,3.2051,3.1836,3.2266,3.2461,3.2461,3.2246,3.2051,0.0,0.0,0.0,0.0,0.0,0.0,0.0,0.0,2.4462,2.6186,2.7001,2.7271,2.6738,2.7012,2.6868,2.5499,2.3395,2.1765,2.1453,2.2224,2.3666,2.5836,2.8979,2.9229,2.514,2.3691,2.2338,2.0715,1.9912,1.9535,1.9664,1.9664,2.0858,2.3367,2.3301,2.6179,3.2126,3.1978,3.3569,3.6941,3.6941,3.6941,3.6941,3.6687,3.654,3.6473,3.5765,3.5164,3.4589,3.3454,3.2812,3.2616,3.2211,3.1931,3.1664,3.1664,3.1303,3.0795,3.0795,3.0408,2.9913,2.9913,2.9913,2.9913,2.9913,2.9913,2.9913,2.9913,2.9913,2.9833,2.9486,2.9219,2.8951,2.8604,2.8323,2.8221,2.8221,2.8221,2.8221,2.8221,2.7856,2.8823,3.276,3.306,3.4135,3.8009,3.8574,3.8574,3.8574,3.8203,3.7773,3.7344,3.6914,3.6465,3.5937,3.5254,3.4609,3.4101,3.3418,3.3008,3.293,3.2598,3.2422,3.2422,3.2734,3.291,3.293,3.3262,3.3418,3.3418,3.3418,3.3242,2.1096,2.1363,2.2245,2.3541,2.3928,2.489,0.0,0.0,2.839,2.99,3.0675,3.1129,3.1284,2.9896,2.8063,2.5952,2.3707,2.136,1.8921,2.1087,2.2057,1.9777,2.2594,2.5589,2.7813,2.3236,2.1178,2.372,2.12,1.9644,1.9664,1.9664,1.9908,2.0265,1.9984,2.2774,2.8763,2.8644,3.1398,3.6941,3.6941,3.6941,3.6941,3.6901,3.6754,3.6433,3.5338,3.467,3.4295,3.336,3.2812,3.2616,3.2211,3.1931,3.1664,3.1664,3.1303,3.0795,3.0795,3.0408,2.9913,2.9913,2.9913,2.9913,2.9913,2.9913,2.9913,2.9913,2.9913,2.9793,2.9232,2.9072,2.8898,2.8323,2.8248,2.8221,2.8221,2.8221,2.8221,2.8221,2.7779,2.8653,3.2728,3.294,3.3919,3.797,3.8574,3.8574,3.8574,3.8203,3.7773,3.7344,3.6914,3.6348,3.5527,3.5371,3.4961,3.4121,3.3984,3.375,3.3359,3.3301,3.3281,3.3281,3.332,3.3359,3.3359,3.3398,3.3418,3.3418,3.3418,3.3398,2.3888,2.3981,2.4315,2.5438,2.6373,2.7482,2.9259,2.9513,2.978,3.1249,3.1891,3.2318,3.2786,3.242,3.1843,0.0,2.8901,2.6235,2.3391,2.2804,2.147,1.8475,1.9756,2.1447,2.2911,2.0929,2.016,2.1555,2.0501,1.9664,1.9664,1.9664,1.9664,1.9664,2.1197,2.3944,2.8288,2.9779,3.2727,3.6941,3.6941,3.6941,3.6941,3.658,3.6086,3.5458,3.479,3.4336,3.4002,3.3093,3.2652,3.2589,3.2038,3.1784,3.165,3.1476,3.1142,3.0768,3.0595,3.0261,2.9913,2.9913,2.9913,2.9913,2.9913,2.9913,2.9913,2.9913,2.9913,2.982,2.9406,2.9165,2.8938,2.8511,2.827,2.8221,2.8221,2.8221,2.8221,2.8221,2.7752,2.8219,3.114,3.2133,3.349,3.6349,3.7805,3.8574,3.8574,3.7988,3.7305,3.6621,3.6387,3.6152,3.5781,3.5527,3.5234,3.4863,3.4355,3.3984,3.3809,3.3555,3.3418,3.3418,3.3418,3.3418,3.3418,3.3418,3.3418,3.3418,3.3418,3.3418,2.4302,2.4264,2.4472,2.6637,2.7774,2.8613,2.98,2.9808,3.0013,3.1912,3.1986,3.203,3.334,3.3975,3.3886,3.2571,3.0894,2.836,2.4688,2.2371,2.0339,1.8205,1.8213,1.8599,1.8972,1.9237,1.9434,1.959,1.959,1.961,1.9664,1.9664,1.9664,1.9664,2.2425,2.5266,2.8288,3.1047,3.3862,3.6941,3.6861,3.6834,3.6794,3.6219,3.5565,3.4857,3.4482,3.4148,3.3814,3.2919,3.2643,3.2589,3.1904,3.1664,3.1623,3.1249,3.0969,3.0755,3.0461,3.0167,2.9913,2.9913,2.9913,2.9913,2.9913,2.9913,2.9913,2.9913,2.9913,2.9847,2.9566,2.9259,2.8965,2.8671,2.8364,2.8221,2.8221,2.8221,2.8221,2.8221,2.7736,2.7989,2.9968,3.159,3.3289,3.5217,3.7272,3.8574,3.8574,3.7832,3.7012,3.6269,3.6094,3.6016,3.6016,3.5742,3.5527,3.541,3.4785,3.4316,3.4082,3.3769,3.3535,3.3418,3.3418,3.3418,3.3418,3.3418,3.3418,3.3418,3.3418,3.3418,2.0708,2.0605,2.1355,2.6768,2.7322,2.7429,3.0818,2.9963,2.9332,3.2373,3.1052,3.0303,3.3294,3.4122,3.2606,2.7229,2.6485,2.4688,1.8949,1.7964,1.7813,1.7846,1.7758,1.7914,1.8498,1.8952,1.9271,1.9434,1.9434,1.9501,1.9664,1.9664,1.9664,1.9664,2.2425,2.5266,2.8288,3.1047,3.3862,3.6941,3.6647,3.6513,3.65,3.5912,3.5471,3.5151,3.4576,3.4148,3.3814,3.2919,3.2643,3.2589,3.1904,3.1664,3.1597,3.1022,3.0795,3.0755,3.0461,3.0167,2.9913,2.9913,2.9913,2.9913,2.9913,2.9913,2.9913,2.9913,2.9913,2.9847,2.9566,2.9259,2.8965,2.8671,2.8364,2.8221,2.8221,2.8221,2.8221,2.8221,2.7896,2.8235,2.9998,3.17,3.3499,3.5253,3.7272,3.8574,3.8574,3.7832,3.7129,3.6699,3.6269,3.6016,3.6016,3.6016,3.582,3.543,3.5371,3.4961,3.4101,3.4062,3.3848,3.3437,3.3418,3.3418,3.3418,3.3418,3.3418,3.3418,3.3418,3.3418,1.9897,2.0343,2.1159,2.3922,2.4657,2.5152,2.6793,2.643,2.6153,2.7335,2.6771,2.6825,2.9494,3.0243,3.0028,2.8358,2.8473,2.6931,2.153,2.0639,1.989,1.7799,1.7704,0.0,0.0,1.8443,1.8938,1.9393,1.9434,1.9501,1.9664,1.9664,1.9664,1.9664,2.2425,2.5266,2.8288,3.1047,3.3875,3.6647,3.6353,3.6112,3.5912,3.5725,3.5257,3.4603,3.4402,3.4042,3.3521,3.2826,3.2643,3.2589,3.1904,3.1664,3.1597,3.1009,3.0795,3.0728,3.0234,3.0007,2.9913,2.9913,2.9913,2.9913,2.9913,2.9913,2.9913,2.9913,2.9913,2.99,2.9793,2.9406,2.9018,2.8911,2.8511,2.8221,2.8221,2.8221,2.8221,2.8221,2.7896,2.785,2.826,3.0849,3.3975,3.7107,3.819,3.8476,3.8184,3.7656,3.7148,3.6719,3.6289,3.6016,3.6016,3.6016,3.5957,3.582,3.5547,3.5117,3.4512,3.4219,3.3867,3.3437,3.3418,3.3418,3.3418,3.3418,3.3418,3.3418,3.3418,3.3418,1.8838,1.9138,1.955,2.2449,2.3023,2.3198,2.4397,2.3835,2.3417,2.4436,2.3551,2.3355,2.6034,2.6782,2.6748,2.6142,2.6571,2.541,2.1278,2.0631,1.9766,1.7738,1.7623,1.7704,0.0,0.0,1.8552,1.9149,1.9183,1.9271,1.9488,1.9556,1.9556,1.9501,2.2244,2.5239,2.8158,3.0902,3.3531,3.6193,3.6006,3.5765,3.5471,3.5471,3.5057,3.4322,3.4322,3.3975,3.3374,3.2786,3.2643,3.2589,3.1904,3.1664,3.1597,3.1009,3.0795,3.0715,3.0127,2.9913,2.9913,2.9913,2.9913,2.9913,2.9913,2.9913,2.9913,2.9913,2.9913,2.9913,2.9913,2.9486,2.9045,2.9045,2.8577,2.8221,2.8221,2.8221,2.8221,2.8221,2.8073,2.7762,2.7468,3.0465,3.4221,3.8028,3.8574,3.8476,3.8184,3.7656,3.7187,3.6914,3.6367,3.6016,3.6016,3.6016,3.6016,3.6016,3.5762,3.541,3.4961,3.4531,3.4101,3.3672,3.3496,3.3418,3.3418,3.3418,3.3418,3.3418,3.3418,3.3418,1.7445,1.6855,1.6743,2.2168,2.2058,2.1275,2.3595,2.2113,2.1029,2.3474,2.1494,2.014,0.0,0.0,2.2984,2.0807,2.0918,2.0523,1.8211,1.7738,1.765,0.0,0.0,0.0,0.0,0.0,1.8091,1.8694,1.8742,1.8884,1.9183,1.9325,1.9345,1.9203,2.1977,2.4907,2.7793,3.0633,3.3163,3.5631,3.5618,3.5458,3.5191,3.5177,3.4857,3.4322,3.4309,3.3961,3.3374,3.2786,3.2643,3.2589,3.1904,3.1664,3.1597,3.1009,3.0795,3.0715,3.0127,2.9913,2.9913,2.9913,2.9913,2.9913,2.9913,2.9913,2.9913,2.9913,2.9913,2.9913,2.9913,2.9486,2.9058,2.9045,2.8591,2.8248,2.8234,2.8221,2.8221,2.8221,2.8221,2.8114,2.7888,3.0665,3.4145,3.7881,3.8501,3.8574,3.8574,3.7851,3.7324,3.7305,3.6543,3.6035,3.6016,3.6016,3.6016,3.6016,3.6016,3.584,3.541,3.4941,3.4492,3.4082,3.3652,3.3418,3.3418,3.3418,3.3418,3.3418,3.3418,3.3418,1.581,1.6209,1.6602,1.8179,1.8115,1.7931,1.847,1.7751,1.7147,1.7379,1.637,1.6153,0.0,0.0,0.0,1.9378,2.0301,0.0,1.8211,1.7826,0.0,1.7663,0.0,1.7623,1.7704,1.7704,0.0,1.8233,1.8565,1.885,1.9027,1.9081,1.9081,1.904,1.9616,2.1302,2.4295,2.9138,3.2915,3.5631,3.5404,3.5271,3.5191,3.4977,3.467,3.4309,3.4095,3.3774,3.3374,3.2786,3.2643,3.2589,3.1904,3.1664,3.1597,3.1009,3.0795,3.0715,3.0127,2.9913,2.9913,2.9913,2.9913,2.9913,2.9913,2.9913,2.9913,2.9913,2.9913,2.9913,2.9913,2.9646,2.9312,2.9085,2.8764,2.843,2.8274,2.8221,2.8221,2.8221,2.7963,2.8207,2.9416,3.1464,3.3669,3.5959,3.7585,3.8574,3.8574,3.8105,3.7637,3.7324,3.6816,3.6367,3.6055,3.6016,3.6016,3.6016,3.6016,3.584,3.541,3.4941,3.4492,3.4082,3.3652,3.3418,3.3418,3.3418,3.3418,3.3418,3.3418,3.3418,1.5737,1.6252,1.6646,1.6727,1.67,1.6524,1.6042,1.5635,1.516,1.4434,1.3804,0.0,1.4819,1.562,1.6372,0.0,0.0,0.0,1.7875,1.7826,1.7826,0.0,1.7738,0.0,1.7738,1.7738,1.7806,1.7989,1.8287,1.8531,1.8687,1.8762,1.8762,1.8687,1.8586,1.9939,2.2785,2.7214,3.0202,3.1606,3.2766,3.3341,3.3328,3.4347,3.4603,3.4309,3.4015,3.3708,3.3374,3.2786,3.2643,3.2589,3.1904,3.1664,3.1597,3.1009,3.0795,3.0715,3.0127,2.9913,2.9913,2.9913,2.9913,2.9913,2.9913,2.9913,2.9913,2.9913,2.9913,2.9913,2.9913,2.97,2.9446,2.9272,2.9005,2.8711,2.8417,2.835,2.831,2.8248,2.8003,2.8441,3.0218,3.1936,3.3691,3.5464,3.7385,3.8574,3.8574,3.8203,3.7773,3.7344,3.6914,3.6484,3.6055,3.6016,3.6016,3.6016,3.6016,3.5918,3.5684,3.5234,3.4883,3.4648,3.4219,3.3984,3.3984,3.3789,3.3711,3.3691,3.3516,3.3418,1.6435,1.6693,1.6802,1.6761,1.6619,1.6259,1.5357,1.4896,1.4394,1.3471,0.0,1.2447,1.2562,1.2888,1.3532,1.4719,0.0,1.6598,1.7521,1.7758,1.7846,1.786,1.786,1.786,1.786,1.786,1.786,1.786,1.7989,1.8124,1.8287,1.8409,1.8409,1.8267,1.8375,1.9651,2.2345,2.5052,2.6394,2.6529,2.9112,3.0502,3.0894,3.3116,3.4212,3.4242,3.3948,3.3668,3.3374,3.2786,3.2643,3.2589,3.1904,3.1664,3.1597,3.1009,3.0795,3.0715,3.0127,2.9913,2.9913,2.9913,2.9913,2.9913,2.9913,2.9913,2.9913,2.9913,2.9913,2.9913,2.9913,2.9726,2.9526,2.9499,2.9285,2.9018,2.8724,2.8631,2.8511,2.8288,2.8221,2.8701,3.017,3.1882,3.3512,3.4964,3.6682,3.7955,3.819,3.8098,3.7851,3.7422,3.7012,3.6582,3.6152,3.6055,3.6016,3.6016,3.6016,3.6016,3.6016,3.5605,3.5391,3.5391,3.4941,3.4707,3.4707,3.4336,3.416,3.4141,3.3769,3.3594,1.6842,1.7005,1.7053,1.6809,1.6544,1.611,1.5215,1.4584,0.0,0.0,1.2277,1.1918,1.183,1.2461,1.3349,1.4421,1.5452,1.6476,1.7507,1.767,1.7738,0.0,1.786,1.786,1.786,1.786,0.0,1.786,1.788,1.7968,1.8124,1.8158,1.8091,1.7948,1.7968,1.9382,2.2253,2.2808,2.4191,2.6529,2.7068,2.8359,3.0517,3.0689,3.2016,3.3948,3.3627,3.3467,3.3374,3.2786,3.2643,3.2589,3.1904,3.1664,3.1597,3.1009,3.0795,3.0715,3.0127,2.9913,2.9913,2.9913,2.9913,2.9913,2.9913,2.9913,2.9913,2.9913,2.9913,2.9913,2.9913,2.9887,2.978,2.9539,2.9446,2.9325,2.9032,2.8778,2.8511,2.8288,2.8221,2.8211,2.8234,2.9905,3.1193,3.0963,3.2598,3.444,3.5849,3.7435,3.8301,3.7851,3.7441,3.7012,3.6601,3.623,3.6016,3.6016,3.6016,3.6016,3.6016,3.5605,3.5391,3.5391,3.4941,3.4707,3.4707,3.4629,3.459,3.459,3.4512,3.4473,1.7127,1.7202,1.7121,1.6822,1.6354,1.5662,1.4529,0.0,0.0,0.0,1.1402,1.1233,1.1165,1.1823,0.0,1.3559,1.4523,1.5574,1.6781,1.7087,1.7351,1.7812,1.786,1.786,1.786,1.786,1.786,1.786,1.786,1.7901,1.7968,1.7968,1.7935,1.786,1.786,1.8508,1.994,1.994,2.0694,2.1983,2.3502,2.5664,2.8205,2.9456,3.1413,3.3868,3.3547,3.3414,3.3374,3.2786,3.2643,3.2589,3.1904,3.1664,3.1597,3.1009,3.0795,3.0715,3.0127,2.9913,2.9913,2.9913,2.9913,2.9913,2.9913,2.9913,2.9913,2.9913,2.9913,2.9913,2.9913,2.9913,2.9887,2.974,2.9593,2.9406,2.9098,2.8818,2.8511,2.8288,2.8221,2.8181,2.7949,2.9502,3.0728,3.0415,3.1795,3.3199,3.4008,3.579,3.7248,3.7825,3.7734,3.7363,3.6719,3.6484,3.6269,3.6035,3.6016,3.6016,3.6016,3.582,3.5723,3.5723,3.5508,3.5391,3.5391,3.5176,3.5059,3.5059,3.4805,3.4707,1.7311,1.7331,1.7161,1.6836,1.6191,1.5289,1.3939,1.3024,0.0,0.0,1.067,1.0643,1.0711,1.1253,1.1959,0.0,1.3634,1.4685,1.6069,1.6544,1.7026,0.0,1.786,0.0,1.786,1.786,0.0,1.786,1.786,1.786,1.786,1.786,1.786,1.786,1.786,1.786,1.786,1.786,1.786,1.7977,2.0106,2.2917,2.6124,2.8109,3.0799,3.3774,3.3521,3.3414,3.3374,3.2786,3.2643,3.2589,3.1904,3.1664,3.1597,3.1009,3.0795,3.0715,3.0127,2.9913,2.9913,2.9913,2.9913,2.9913,2.9913,2.9913,2.9913,2.9913,2.9913,2.9913,2.9913,2.9913,2.9913,2.9913,2.974,2.9499,2.9205,2.8898,2.8604,2.8297,2.8274,2.8221,2.8221,2.9326,3.02,3.0127,3.1045,3.1793,3.2197,3.339,3.4869,3.66,3.7446,3.7656,3.6992,3.6777,3.6523,3.6172,3.6074,3.6016,3.6016,3.6016,3.6016,3.6016,3.6016,3.6016,3.6016,3.5684,3.5527,3.5527,3.5156,3.498,1.7338,1.7412,1.7297,1.6856,1.6191,1.5289,1.3939,0.0,0.0,1.0941,1.0507,1.0399,1.067,1.0995,1.1558,1.2583,0.0,1.4401,1.5893,1.6476,1.7032,1.7772,0.0,0.0,1.786,1.786,1.786,1.786,1.786,1.786,1.786,1.786,1.786,1.786,1.786,1.786,1.786,1.786,1.786,1.786,1.795,2.0687,2.5787,2.5764,2.8643,3.3454,3.3427,3.3414,3.3374,3.2786,3.2643,3.2589,3.1904,3.1664,3.1597,3.1009,3.0795,3.0715,3.0127,2.9913,2.9913,2.9913,2.9913,2.9913,2.9913,2.9913,2.9913,2.9913,2.9913,2.9913,2.9913,2.9913,2.9913,2.9913,2.99,2.9793,2.9499,2.9205,2.8911,2.8617,2.8337,2.8221,2.8221,2.8362,2.8338,2.8068,2.7907,2.8389,2.9972,3.0033,3.0731,3.2759,3.598,3.7891,3.7812,3.7109,3.666,3.6621,3.623,3.6016,3.6016,3.6016,3.6016,3.6016,3.6016,3.6016,3.6016,3.5976,3.5957,3.5957,3.5918,3.5898,1.7107,1.7283,1.7175,1.6727,1.5981,1.5011,1.3661,0.0,1.164,1.0765,1.0344,1.0229,1.0527,1.0677,1.1016,1.1796,1.225,1.3024,1.4523,1.512,1.5845,1.7053,1.7351,0.0,0.0,0.0,1.786,1.786,1.786,1.786,1.786,1.786,1.786,1.786,1.786,1.786,1.786,1.786,1.786,1.786,1.7717,2.0447,2.5651,2.542,2.8302,3.3414,3.3414,3.332,3.312,3.2706,3.2438,3.2238,3.1824,3.1664,3.1597,3.1009,3.0795,3.0715,3.0127,2.9913,2.9913,2.9913,2.9913,2.9913,2.9913,2.9913,2.9913,2.9913,2.9913,2.9913,2.9913,2.9913,2.9913,2.9913,2.9913,2.9833,2.9539,2.9392,2.9165,2.8698,2.8511,2.8364,2.8261,2.8221,2.8181,2.7989,2.7722,2.7743,2.8228,2.9087,2.997,3.0531,3.3036,3.5043,3.5996,3.5824,3.6062,3.7,3.6641,3.6406,3.6406,3.6152,3.6016,3.6016,3.6016,3.6016,3.6016,3.6016,3.6016,3.6016,3.6016,3.6016,1.67,1.6992,1.6965,1.6558,1.575,1.4719,0.0,1.2366,1.1402,1.0649,1.029,1.0195,1.0446,1.0493,1.0663,1.1179,1.1538,1.2223,1.3587,1.4238,1.5072,0.0,0.0,1.7107,1.7555,1.7758,1.786,1.786,1.786,1.786,1.786,1.786,1.786,1.786,1.786,1.786,1.786,1.786,1.786,1.786,1.853,2.1144,2.5641,2.6296,2.9063,3.3414,3.3414,3.324,3.2959,3.2666,3.2372,3.2078,3.1784,3.1664,3.1597,3.1009,3.0795,3.0715,3.0127,2.9913,2.9913,2.9913,2.9913,2.9913,2.9913,2.9913,2.9913,2.9913,2.9913,2.9913,2.9913,2.9913,2.9913,2.9913,2.9913,2.986,2.9659,2.9539,2.9366,2.8951,2.8724,2.8537,2.8323,2.8288,2.8221,2.8221,2.7896,2.7629,2.7415,2.8319,2.8921,2.8689,2.9881,3.163,3.401,3.4625,3.5412,3.6537,3.679,3.6855,3.6855,3.6445,3.6211,3.6211,3.6094,3.6016,3.6016,3.6016,3.6016,3.6016,3.6016,3.6016,1.611,1.653,1.668,1.6388,1.552,1.4468,1.341,1.2366,1.1402,1.0649,1.0378,1.0324,1.0466,1.0493,1.0595,1.0833,1.1572,1.2427,1.3485,1.4272,1.5072,0.0,0.0,1.6497,1.6944,1.7521,1.786,1.786,1.786,1.786,1.786,1.786,1.786,1.786,1.786,1.786,1.786,1.786,1.786,1.7977,2.0339,2.292,2.5641,2.8108,3.076,3.3414,3.3414,3.324,3.2959,3.2666,3.2372,3.2078,3.1784,3.1664,3.1597,3.1009,3.0795,3.0715,3.0127,2.9913,2.9913,2.9913,2.9913,2.9913,2.9913,2.9913,2.9913,2.9913,2.9913,2.9913,2.9913,2.9913,2.9913,2.9913,2.9913,2.9913,2.9913,2.9686,2.9486,2.9472,2.9005,2.8604,2.8604,2.835,2.8221,2.8221,2.7896,2.7696,2.7696,2.7188,2.6814,2.6814,2.664,2.8076,3.2184,3.3953,3.492,3.492,3.6413,3.7285,3.7285,3.6894,3.666,3.666,3.623,3.6016,3.6016,3.6016,3.6016,3.6016,3.6016,3.6016,1.4502,1.4916,1.5072,1.4475,1.3994,1.3417,1.2474,1.1843,1.1307,1.0758,1.0453,1.0358,1.0602,1.0561,1.0758,1.1579,1.1911,1.2427,1.3478,0.0,0.0,1.5845,1.6781,1.7426,0.0,1.7758,1.786,1.786,1.786,1.786,1.786,1.786,1.786,1.786,1.786,1.786,1.786,1.786,1.8832,2.0795,2.1301,2.3971,2.8588,2.9133,3.0748,3.34,3.32,3.2946,3.2666,3.2358,3.2078,3.1797,3.1704,3.1543,3.1316,3.0929,3.0662,3.0448,3.0047,2.9913,2.9913,2.9913,2.9913,2.9913,2.9913,2.9913,2.9913,2.9913,2.9913,2.9913,2.9913,2.9913,2.9913,2.9913,2.9913,2.9913,2.9913,2.9847,2.9726,2.9526,2.9165,2.8845,2.8644,2.835,2.8221,2.8221,2.814,2.7923,2.7722,2.7362,2.7041,2.6841,2.656,2.7462,3.013,3.0867,3.1777,3.3153,3.4736,3.5628,3.5628,3.6578,3.6953,3.668,3.6543,3.6309,3.6016,3.6016,3.6016,3.6016,3.6016,3.6016,0.0,1.3797,1.3966,1.3444,1.3119,1.2725,1.1999,1.1518,1.1111,1.0717,1.0446,1.0351,1.0588,1.0555,1.0724,1.1443,1.1748,1.2223,0.0,0.0,0.0,1.592,1.6917,0.0,1.7602,1.7758,1.786,1.786,1.786,1.786,1.786,1.786,1.786,1.786,1.786,1.786,1.786,1.7812,1.9192,2.2109,2.2681,2.5321,2.9803,3.0538,3.1717,3.324,3.3053,3.2746,0.0,3.2185,3.1931,3.1664,3.1664,3.149,3.1196,3.0902,3.0608,3.0314,3.002,2.9913,2.9913,2.9913,2.9913,2.9913,2.9913,2.9913,2.9913,2.9913,2.9913,2.9913,2.9913,2.9913,2.9913,2.9913,2.9913,2.9913,2.9913,2.9913,2.986,2.9686,2.9406,2.9112,2.8818,2.8524,2.8283,2.8248,2.8221,2.8154,2.7896,2.7615,2.7308,2.7028,2.672,2.7048,2.8154,2.8983,2.9975,3.1284,3.3027,3.4027,3.4027,3.552,3.6299,3.6053,3.6623,3.6777,3.6504,3.6348,3.6269,3.6269,3.6094,3.6016,0.0,1.301,1.3214,1.3044,1.2691,1.2277,1.1837,1.1251,0.0,1.0541,1.0371,1.0331,1.0493,1.0507,1.0568,1.0792,1.1321,1.1959,1.2705,1.3749,0.0,0.0,1.6781,1.7093,1.7229,1.7616,1.786,1.786,1.786,1.786,1.786,1.786,1.786,1.7846,1.7846,1.7846,1.7846,1.793,1.9364,2.213,2.4586,2.7187,2.9888,3.2299,3.3253,3.2973,3.2959,3.2625,3.2104,3.2078,3.1904,3.1664,3.165,3.145,3.1156,3.0862,3.0581,3.0287,3.0007,2.9913,2.9913,2.9913,2.9913,2.9913,2.9913,2.9913,2.9913,2.9913,2.9913,2.9913,2.9913,2.9913,2.9913,2.9913,2.9913,2.9913,2.9913,2.9913,2.9913,2.9913,2.9686,2.9392,2.9085,2.8804,2.8497,2.8274,2.8221,2.8221,2.8221,2.7883,2.7589,2.7295,2.7001,2.6707,2.6413,2.8154,2.9216,2.9216,3.113,3.2277,3.2277,3.3896,3.4809,3.492,3.6466,3.7305,3.7305,3.6894,3.6719,3.6699,3.6269,3.6074,1.0833,0.0,1.1769,1.1389,1.1307,1.1226,0.0,1.0792,1.069,1.0392,1.0304,1.0392,1.0772,1.0649,1.0806,1.1762,1.223,1.2725,1.3478,1.4882,1.6212,1.7216,1.7528,1.767,1.7704,1.7792,1.786,1.786,1.786,1.786,1.786,1.786,1.7812,1.7704,1.7704,1.7704,1.7704,1.9705,2.2186,2.4991,2.7327,3.0105,3.2927,3.3245,3.3253,3.2973,3.2746,3.2438,3.2078,3.1864,3.173,3.165,3.1423,3.1156,3.0862,3.0568,3.0274,3.0007,2.994,2.9913,2.9913,2.9913,2.9913,2.9913,2.9913,2.9913,2.9913,2.9913,2.9913,2.9913,2.9913,2.9913,2.9913,2.9913,2.9913,2.9913,2.9913,2.9913,2.9913,2.9913,2.9686,2.9392,2.9085,2.8804,2.8497,2.8274,2.8221,2.8221,2.8221,2.7883,2.7589,2.7295,2.7001,2.6707,2.6413,2.6847,2.7083,2.7083,2.8983,3.013,3.013,3.2027,3.3667,3.4864,3.6466,3.7305,3.7305,3.7207,3.7148,3.7148,3.6719,3.6523,1.0175,1.067,1.1131,1.0887,1.082,1.084,1.0738,1.0548,1.0365,1.0209,1.012,1.0188,1.0568,1.0677,1.0962,1.1748,1.2359,1.3159,1.4387,1.5506,1.6564,1.7534,1.7717,1.7792,1.786,1.786,1.786,1.786,1.7806,1.7758,1.7758,1.7704,1.7623,1.7548,1.7541,1.7541,1.7541,1.8962,2.1733,2.57,2.6937,2.9663,3.3467,3.3293,3.2986,3.2572,3.2412,3.2171,3.1891,3.173,3.1664,3.1637,3.1343,3.1049,3.0755,3.0474,3.0167,2.9913,2.9913,2.9913,2.9913,2.9913,2.9913,2.9913,2.9913,2.9913,2.9913,2.9913,2.9913,2.9913,2.9913,2.9913,2.9913,2.9913,2.9913,2.9913,2.9913,2.9913,2.9913,2.9913,2.9793,2.9553,2.9112,2.8911,2.8657,2.8301,2.8221,2.8221,2.8221,2.8003,2.7789,2.7495,2.7201,2.6907,2.6613,2.6466,2.6386,2.6386,2.7384,2.7997,2.7997,2.9975,3.1951,3.3782,3.5595,3.6447,3.6447,3.7228,3.7578,3.7578,3.7148,3.6953,1.0065,1.053,1.0954,1.084,1.086,1.0962,1.0826,0.0,1.0044,0.9997,0.9903,0.9998,1.0351,1.0744,1.1145,1.1531,1.2372,1.3559,1.5242,1.5866,1.6503,1.7467,1.7602,1.767,1.7792,1.7792,1.7792,1.7792,1.7684,1.7616,1.7616,1.7494,1.7412,1.7385,1.7385,1.7372,1.7351,1.8088,2.0734,2.5374,2.6087,2.8727,3.2973,3.2933,3.2612,3.2104,3.2104,3.1931,3.1664,3.1623,3.1597,3.157,3.1223,3.0942,3.0688,3.0394,3.014,2.9913,2.9913,2.9913,2.9913,2.9913,2.9913,2.9913,2.9913,2.9913,2.9913,2.9913,2.9913,2.9913,2.9913,2.9913,2.9913,2.9913,2.9913,2.9913,2.9913,2.9913,2.9913,2.9913,2.9913,2.974,2.9205,2.9072,2.8858,2.8382,2.8261,2.8221,2.8221,2.8221,2.8114,2.7736,2.7482,2.7188,2.6854,2.66,2.644,2.6386,2.6386,2.6386,2.6386,2.8296,3.0207,3.1972,3.4301,3.5497,3.5497,3.7204,3.8027,3.8008,3.7598,3.7402,1.048,1.1056,1.1362,1.0724,1.0846,1.1029,1.0649,1.0487,1.0351,0.0,1.0134,1.0378,1.0928,1.1192,1.1586,1.2393,1.339,1.4462,1.5622,1.6171,1.6653,1.7195,1.7378,1.7467,1.7487,1.7487,1.7487,1.7487,1.7467,1.7453,1.7453,1.7433,1.7358,1.7229,1.7229,1.7168,1.7046,2.1725,2.4504,2.5255,2.9723,3.2207,3.2973,3.2719,3.2425,3.2104,3.2104,3.1931,3.165,3.1396,3.1289,3.1236,3.0702,3.0461,3.0394,3.01,2.9953,2.9913,2.9913,2.9913,2.9913,2.9913,2.9913,2.9913,2.9913,2.9913,2.9913,2.9913,2.9913,2.9913,2.9913,2.9913,2.9913,2.9913,2.9913,2.9913,2.9913,2.9913,2.9913,2.9913,2.9913,2.9806,2.9472,2.9205,2.8925,2.8591,2.831,2.8221,2.8221,2.8221,2.8114,2.7736,2.7655,2.7415,2.6867,2.6787,2.6653,2.64,2.6386,2.6386,2.6386,2.8296,2.9511,2.9898,3.3607,3.5497,3.5497,3.7509,3.8476,3.8457,3.8027,3.7832,1.0161,1.0677,1.109,1.09,1.1375,1.1789,1.1423,1.1151,1.0914,1.0697,1.0649,1.0772,1.1206,1.1674,1.2393,1.3614,1.4353,1.5059,1.5866,1.6225,1.6605,1.7127,1.7256,1.7331,1.7412,1.7419,1.7419,1.7419,1.7344,1.7297,1.7297,1.7222,1.7154,1.708,1.708,1.7005,1.6856,2.2361,2.5011,2.5022,2.8966,3.1394,3.2505,3.2372,3.2144,3.1864,3.1864,3.1704,3.1423,3.1276,3.1129,3.0942,3.0528,3.0354,3.0327,3.002,2.9913,2.9913,2.9913,2.9913,2.9913,2.9913,2.9913,2.9913,2.9913,2.9913,2.9913,2.9913,2.9913,2.9913,2.9913,2.9913,2.9913,2.9913,2.9913,2.9913,2.9913,2.9913,2.9913,2.9913,2.9913,2.982,2.9539,2.9232,2.8938,2.8644,2.8337,2.8221,2.8221,2.8221,2.8181,2.7949,2.7789,2.7589,2.7321,2.7148,2.6867,2.6413,2.6386,2.6386,2.6386,2.7305,2.7762,2.7762,3.0654,3.2776,3.385,3.5905,3.7492,3.8574,3.8359,3.8281,1.0039,1.0419,1.086,1.1226,1.1782,1.2237,1.2223,1.187,1.1545,1.1531,1.1443,1.1366,1.166,1.2372,1.3336,1.459,1.5133,1.5567,1.6062,1.6293,1.6592,1.7087,1.7141,1.7188,1.7304,1.7317,1.7317,1.7317,1.7209,1.7127,1.7093,1.6985,1.691,1.6876,1.687,1.6815,1.67,2.2064,2.4689,2.479,2.8058,3.0524,3.2104,3.2024,3.1877,3.1664,3.1597,3.1436,3.1209,3.1076,3.0889,3.0662,3.0368,3.0261,3.0221,3.0007,2.9913,2.9913,2.9913,2.9913,2.9913,2.9913,2.9913,2.9913,2.9913,2.9913,2.9913,2.9913,2.9913,2.9913,2.9913,2.9913,2.9913,2.9913,2.9913,2.9913,2.9913,2.9913,2.9913,2.9913,2.9913,2.9847,2.9619,2.9339,2.9045,2.8751,2.8444,2.8315,2.8234,2.8221,2.8221,2.8221,2.7936,2.7776,2.7709,2.7428,2.7041,2.652,2.6426,2.6386,2.6386,2.6386,2.6386,2.6386,2.8374,3.0207,3.1819,3.4301,3.6349,3.7878,3.8336,3.8574,1.0611,1.0833,1.1002,1.164,1.1626,1.1681,1.2494,1.2338,1.2128,1.2535,1.261,1.261,1.263,1.3478,1.434,1.4869,1.5554,1.6083,1.6266,1.6537,1.6788,1.6971,1.6998,1.6998,1.7012,1.7012,1.7012,1.7012,1.7005,1.6931,1.6788,1.6775,1.67,1.6558,1.6558,1.6551,1.6537,2.1857,2.4568,2.4557,2.9506,3.1938,3.2091,3.1824,3.169,3.165,3.1383,3.1249,3.1183,3.0648,3.0408,3.0368,3.006,2.9953,2.994,2.9927,2.9913,2.9913,2.9913,2.9913,2.9913,2.9913,2.9913,2.9913,2.9913,2.9913,2.9913,2.9913,2.9913,2.9913,2.9913,2.9913,2.9913,2.9913,2.9913,2.9913,2.9913,2.9913,2.9913,2.9913,2.9913,2.9913,2.9887,2.9646,2.9352,2.9045,2.8764,2.847,2.8261,2.8221,2.8221,2.8221,2.8207,2.8003,2.7722,2.7428,2.7134,2.6814,2.6533,2.6386,2.6386,2.6386,2.6386,2.6386,2.8374,2.9449,2.9589,3.3607,3.5589,3.5738,3.7731,3.8574,1.0168,1.0523,1.0975,1.1457,1.1823,1.2244,1.2861,1.2949,1.2996,1.3349,1.3349,1.3315,1.3403,1.4055,1.4692,1.5045,1.5655,1.6137,1.6286,1.6564,1.6768,1.6829,1.6924,1.6978,1.6978,1.6897,1.6836,1.6836,1.6748,1.6673,1.6612,1.6605,1.6578,1.6524,1.6524,1.6476,1.6388,2.1559,2.4165,2.4231,2.9601,3.2011,3.1824,3.1717,3.157,3.1383,3.1276,3.1022,3.0675,3.0448,3.0247,3.0074,2.9967,2.9913,2.9913,2.9913,2.9913,2.9913,2.9913,2.9913,2.9913,2.9913,2.9913,2.9913,2.9913,2.9913,2.9913,2.9913,2.9913,2.9913,2.9913,2.9913,2.9913,2.9913,2.9913,2.9913,2.9913,2.9913,2.9913,2.9913,2.9913,2.9913,2.9913,2.9673,2.9379,2.9085,2.8791,2.8497,2.8261,2.8221,2.8221,2.8221,2.8221,2.8181,2.7989,2.7709,2.7482,2.7375,2.6921,2.6573,2.64,2.6386,2.6386,2.6386,2.7148,2.814,2.9371,3.0961,3.3003,3.5497,3.6349,3.7345,0.9992,1.0412,1.0982,1.1423,1.1986,1.2617,1.3302,1.3498,1.3688,1.4224,1.4143,1.4007,1.4109,1.4462,1.4855,1.5201,1.5716,1.6137,1.6286,1.6524,1.668,1.668,1.6775,1.6836,1.6836,1.6741,1.668,1.668,1.6578,1.6503,1.6456,1.6456,1.6435,1.6381,1.6381,1.6731,1.7421,2.1847,2.4382,2.5035,2.9579,3.177,3.1664,3.157,3.1423,3.1209,3.1036,3.0728,3.0354,3.0261,3.01,2.9913,2.9913,2.9913,2.9913,2.9913,2.9913,2.9913,2.9913,2.9913,2.9913,2.9913,2.9913,2.9913,2.9913,2.9913,2.9913,2.9913,2.9913,2.9913,2.9913,2.9913,2.9913,2.9913,2.9913,2.9913,2.9913,2.9913,2.9913,2.9913,2.9913,2.9913,2.9913,2.9673,2.9379,2.9085,2.8791,2.8497,2.8261,2.8221,2.8221,2.8221,2.8221,2.8221,2.8221,2.7963,2.7802,2.7709,2.7321,2.6921,2.6547,2.6533,2.648,2.6386,2.6386,2.7083,2.8452,2.906,3.0807,3.3607,3.49,3.6275,1.0358,1.0493,1.09,1.1647,1.2067,1.2617,1.3804,1.396,1.4143,1.5194,1.5059,1.474,1.474,1.474,1.4889,1.5337,1.5784,1.613,1.6286,1.6429,1.6517,1.6517,1.6524,1.6524,1.6524,1.6517,1.6517,1.6517,1.6517,1.6456,1.6313,1.6307,1.6239,1.609,1.6083,1.7353,1.9978,2.2604,2.5024,2.7298,2.9977,3.1383,3.165,3.1356,3.1223,3.1183,3.0608,3.0354,3.0341,3.0034,2.9913,2.9913,2.9913,2.9913,2.9913,2.9913,2.9913,2.9913,2.9913,2.9913,2.9913,2.9913,2.9913,2.9913,2.9913,2.9913,2.9913,2.9913,2.9913,2.9913,2.9913,2.9913,2.9913,2.9913,2.9913,2.9913,2.9913,2.9913,2.9913,2.9913,2.9913,2.9913,2.9913,2.9673,2.9392,2.9085,2.8791,2.8497,2.8261,2.8221,2.8221,2.8221,2.8221,2.8221,2.8221,2.8221,2.81,2.7722,2.7696,2.7442,2.6854,2.6827,2.6694,2.64,2.6386,2.6386,2.6386,2.8374,2.9371,2.9511,3.3532,3.5422,1.0039,1.048,1.1158,1.1694,1.2535,1.3431,1.4204,1.4428,1.4679,1.5418,1.5296,1.5025,1.4923,1.4903,1.4977,1.5215,1.554,1.5859,1.611,1.6279,1.6374,1.6374,1.6463,1.6524,1.6524,1.6429,1.6374,1.6374,1.6273,1.6191,1.6151,1.6151,1.613,1.6083,1.6083,1.6418,1.7086,2.1426,2.3813,2.444,2.8818,3.0969,3.1049,3.0955,3.0808,3.0608,3.0434,3.0247,3.0047,2.9953,2.9913,2.9913,2.9913,2.9913,2.9913,2.9913,2.9913,2.9913,2.9913,2.9913,2.9913,2.9913,2.9913,2.9913,2.9913,2.9913,2.9913,2.9913,2.9913,2.9913,2.9913,2.9913,2.9913,2.9913,2.9913,2.9913,2.9913,2.9913,2.9913,2.9913,2.9913,2.9913,2.9913,2.9847,2.9619,2.9112,2.8965,2.8724,2.8288,2.8221,2.8221,2.8221,2.8221,2.8221,2.8221,2.8221,2.8194,2.81,2.8003,2.7749,2.7161,2.6934,2.6787,2.6694,2.6493,2.6386,2.6386,2.7004,2.7997,2.9449,3.0654,3.2776,1.0534,1.1063,1.1762,1.2386,1.3132,1.3919,1.4692,1.4936,1.5092,1.5398,1.5309,1.5153,1.5072,1.5011,1.5038,1.5242,1.5479,1.5723,1.5961,1.6123,1.6218,1.6218,1.6293,1.6347,1.6347,1.6273,1.6218,1.6218,1.6137,1.6083,1.6083,1.6083,1.6056,1.5995,1.5988,1.6405,1.7299,2.1311,2.3767,2.4675,2.8729,3.0555,3.0448,3.0568,3.0528,3.0354,3.0234,3.0087,2.9913,2.9913,2.9913,2.9913,2.9913,2.9913,2.9913,2.9913,2.9913,2.9913,2.9913,2.9913,2.9913,2.9913,2.9913,2.9913,2.9913,2.9913,2.9913,2.9913,2.9913,2.9913,2.9913,2.9913,2.9913,2.9913,2.9913,2.9913,2.9913,2.9913,2.9913,2.9913,2.9913,2.9913,2.9913,2.9726,2.9446,2.9011,2.8831,2.8551,2.8274,2.8221,2.8221,2.8221,2.8221,2.8221,2.8221,2.8221,2.8221,2.8221,2.8221,2.806,2.7712,2.7335,2.7054,2.6827,2.6653,2.6507,2.6386,2.6386,2.7004,2.8218,2.906,3.1191,1.1416,1.1898,1.2494,1.3417,1.3974,1.4474,1.5174,1.5574,1.5642,1.5343,1.5215,1.5201,1.5201,1.5086,1.5079,1.5364,1.5527,1.5669,1.5811,1.5954,1.6042,1.6042,1.6042,1.6042,1.6042,1.6042,1.6042,1.6042,1.6042,1.6042,1.6042,1.6042,1.5981,1.5839,1.5832,1.6911,1.9117,2.1859,2.4196,2.6398,2.9104,3.0181,2.9927,3.0194,3.0314,3.0301,3.0034,2.9913,2.9913,2.9913,2.9913,2.9913,2.9913,2.9913,2.9913,2.9913,2.9913,2.9913,2.9913,2.9913,2.9913,2.9913,2.9913,2.9913,2.9913,2.9913,2.9913,2.9913,2.9913,2.9913,2.9913,2.9913,2.9913,2.9913,2.9913,2.9913,2.9913,2.9913,2.9913,2.9913,2.9913,2.9913,2.9913,2.9472,2.9098,2.9045,2.8524,2.8221,2.8221,2.8221,2.8221,2.8221,2.8221,2.8221,2.8221,2.8221,2.8221,2.8221,2.8221,2.8221,2.8221,2.7856,2.7442,2.6867,2.6841,2.668,2.6386,2.6386,2.6386,2.6465,2.8296,3.0207,1.0826,1.1497,1.2379,1.3512,1.583,1.7317,1.5643,1.6711,1.7609,1.5876,1.5445,1.5364,1.5364,1.5242,1.5194,1.5377,1.5438,1.5513,1.5662,1.5716,1.5737,1.5737,1.5737,1.5737,1.5737,1.5737,1.5737,1.5737,1.5737,1.5737,1.5737,1.5737,1.5716,1.5683,1.5683,1.5898,1.6304,2.0709,2.3025,2.3454,2.7879,2.998,2.9913,2.998,3.0007,3.0007,2.994,2.9913,2.9913,2.9913,2.9913,2.9913,2.9913,2.9913,2.9913,2.9913,2.9913,2.9913,2.9913,2.9913,2.9913,2.9913,2.9913,2.9913,2.9913,2.9913,2.9913,2.9913,2.9913,2.9913,2.9913,2.9913,2.9913,2.9913,2.9913,2.9913,2.9913,2.9913,2.9913,2.9913,2.9913,2.9913,2.9913,2.9806,2.9579,2.9112,2.8524,2.8221,2.8221,2.8221,2.8221,2.8221,2.8221,2.8221,2.8221,2.8221,2.8221,2.8221,2.8221,2.8221,2.8221,2.7856,2.7535,2.7175,2.6934,2.668,2.6386,2.6386,2.6386,2.6386,2.6847,2.8154,1.1124,1.1918,1.28,1.4068,1.5778,1.6752,1.5462,1.6198,1.6804,1.567,1.5357,1.5303,1.5303,1.5235,1.5208,1.5289,1.5364,1.5813,1.7119,1.7298,1.7824,1.8959,1.8112,1.735,1.735,1.6305,1.5642,1.5642,1.5642,1.5642,1.5642,1.5642,1.5608,1.5533,1.5527,1.6018,1.7068,2.0779,2.322,2.4306,2.8076,2.9913,2.9913,2.9913,2.9913,2.9913,2.9913,2.9913,2.9913,2.9913,2.9913,2.9913,2.9913,2.9913,2.9913,2.9913,2.9913,2.9913,2.9913,2.9913,2.9913,2.9913,2.9913,2.9913,2.9913,2.9913,2.9913,2.9913,2.9913,2.9913,2.9913,2.9913,2.9913,2.9913,2.9913,2.9913,2.9913,2.9913,2.9913,2.9913,2.9913,2.9913,2.9913,2.9686,2.9299,2.8698,2.8337,2.8221,2.8221,2.8221,2.8221,2.8221,2.8221,2.8221,2.8221,2.8221,2.8221,2.8221,2.8221,2.8221,2.8221,2.7989,2.7709,2.7268,2.7108,2.6827,2.6386,2.6386,2.6386,2.6386,2.6386,2.7462,1.1348,1.2359,1.3342,1.4618,1.5424,0.0,1.5275,1.5549,1.5737,1.5275,1.5181,1.5181,1.5181,1.5181,1.5181,1.5181,1.5289,1.6116,1.8174,1.8864,1.9992,2.2065,2.0846,1.9716,1.9241,1.7356,1.6035,1.556,1.556,1.556,1.556,1.556,1.5499,1.5377,1.5371,1.6524,1.8871,2.1267,2.3747,2.6229,2.8719,2.9913,2.9913,2.9913,2.9913,2.9913,2.9913,2.9913,2.9913,2.9913,2.9913,2.9913,2.9913,2.9913,2.9913,2.9913,2.9913,2.9913,2.9913,2.9913,2.9913,2.9913,2.9913,2.9913,2.9913,2.9913,2.9913,2.9913,2.9913,2.9913,2.9913,2.9913,2.9913,2.9913,2.9913,2.9913,2.9913,2.9913,2.9913,2.9913,2.9913,2.99,2.9847,2.9392,2.8858,2.831,2.8261,2.8221,2.8221,2.8221,2.8221,2.8221,2.8221,2.8221,2.8221,2.8221,2.8221,2.8221,2.8221,2.8221,2.8221,2.8221,2.7953,2.7281,2.7268,2.6974,2.6386,2.6386,2.6386,2.6386,2.6386,2.7305,1.012,0.0,1.3573,0.0,1.6619,1.7856,0.0,0.0,1.7763,0.0,1.5181,1.5181,1.5181,1.5181,1.5181,1.5181,1.5201,1.5302,1.5678,1.7546,1.9032,1.9404,2.0983,2.1261,1.9133,1.8667,1.7562,1.543,1.5242,1.5242,1.5242,1.5242,1.5235,1.5215,1.5215,1.6407,1.8871,2.1267,2.3747,2.6229,2.8719,2.9913,2.9913,2.9913,2.9913,2.9913,2.9913,2.9913,2.9913,2.9913,2.9913,2.9913,2.9913,2.9913,2.9913,2.9913,2.9913,2.9913,2.9913,2.9913,2.9913,2.9913,2.9913,2.9913,2.9913,2.9913,2.9913,2.9913,2.9913,2.9913,2.9913,2.9913,2.9913,2.9913,2.9913,2.9913,2.9913,2.9913,2.9913,2.9913,2.9913,2.9833,2.9579,2.9259,2.8925,2.8591,2.831,2.8221,2.8221,2.8221,2.8221,2.8221,2.8221,2.8221,2.8221,2.8221,2.8221,2.8221,2.8221,2.8221,2.8221,2.8221,2.7953,2.7281,2.7268,2.6974,2.6386,2.6386,2.6386,2.6386,2.6386,2.6544,1.0656,1.2081,1.341,0.0,1.5653,1.6343,1.5421,1.6011,1.6471,1.5462,1.5181,1.5181,1.5181,1.5181,1.5181,1.5181,1.5181,1.5643,1.7118,1.9427,2.1452,2.2821,2.393,2.3564,2.1175,1.9697,1.7856,1.5368,1.5181,1.5181,1.5181,1.5181,1.5181,1.5181,1.6565,1.8414,2.0899,2.3381,2.5866,2.8256,2.9362,2.9913,2.9824,2.8436,2.7792,2.7792,2.7792,2.7792,2.7792,2.7792,2.8629,2.9913,2.9913,2.9913,2.9913,2.9913,2.9913,2.9913,2.9913,2.9913,2.9913,2.9913,2.9913,2.9913,2.9913,2.9913,2.9913,2.9913,2.9913,2.9913,2.9913,2.9913,2.9913,2.9913,2.9913,2.9913,2.9913,2.9913,2.9913,2.9913,2.9913,2.9766,2.9312,2.9125,2.8885,2.8417,2.8315,2.8221,2.8221,2.8221,2.8221,2.8221,2.8221,2.8221,2.8221,2.8221,2.8221,2.8221,2.8221,2.8221,2.8221,2.8221,2.7953,2.7281,2.7268,2.6974,2.6386,2.6386,2.6386,2.6386,2.6386,2.6386,1.0826,0.0,1.2684,1.3919,1.4373,1.4597,0.0,0.0,1.5126,1.5126,1.516,1.5181,1.5181,1.5181,1.5181,1.5181,1.5181,1.583,1.767,2.0622,2.3198,2.5036,2.6411,2.6139,2.3656,2.1267,1.8778,1.6292,1.5549,1.5181,1.5181,1.5181,1.5181,1.5181,1.7577,2.0067,2.2464,2.5593,2.8076,2.9913,2.9913,2.9913,2.9824,2.7328,2.5866,2.5218,2.5218,2.5593,2.6229,2.6229,2.7702,2.9913,2.9913,2.9913,2.9913,2.9913,2.9913,2.9913,2.9913,2.9913,2.9913,2.9913,2.9913,2.9913,2.9913,2.9913,2.9913,2.9913,2.9913,2.9913,2.9913,2.9913,2.9913,2.9913,2.9913,2.9913,2.9913,2.9913,2.9913,2.9913,2.9913,2.9726,2.9138,2.9045,2.8831,2.8315,2.8221,2.8221,2.8221,2.8221,2.8221,2.8221,2.8221,2.8221,2.8221,2.8221,2.8221,2.8221,2.8221,2.8221,2.8221,2.8221,2.7953,2.7281,2.7268,2.6974,2.6386,2.6386,2.6386,2.6386,2.6386,2.6386,0.0,1.0371,0.0,1.2501,1.3363,1.4,0.0,0.0,1.4984,1.4984,1.5086,1.5181,1.5181,1.5181,1.5181,1.5181,1.5181,1.5275,1.5368,1.952,2.2556,2.2647,2.6876,2.8719,2.6229,2.3747,2.1267,1.8871,1.6565,1.5181,1.5181,1.5181,1.5181,1.5181,1.7577,2.0067,2.2566,2.7341,2.9734,2.9913,2.9913,2.9913,2.9824,2.7328,2.4945,2.2647,2.2647,2.4021,2.6229,2.6229,2.7702,2.9913,2.9913,2.9913,2.9913,2.9913,2.9913,2.9913,2.9913,2.9913,2.9913,2.9913,2.9913,2.9913,2.9913,2.9913,2.9913,2.9913,2.9913,2.9913,2.9913,2.9913,2.9913,2.9913,2.9913,2.9913,2.9913,2.9913,2.9913,2.9913,2.9913,2.9726,2.9138,2.9045,2.8831,2.8315,2.8221,2.8221,2.8221,2.8221,2.8221,2.8221,2.8221,2.8221,2.8221,2.8221,2.8221,2.8221,2.8221,2.8221,2.8221,2.8221,2.7953,2.7281,2.7268,2.6974,2.6386,2.6386,2.6386,2.6386,2.6386,2.6386,0.0,0.0,0.0,1.1755,1.2576,1.3247,1.3695,1.4251,1.4679,1.4679,1.4794,1.4896,1.4896,1.5052,1.5181,1.5181,1.5181,1.5181,1.5181,1.9427,2.2464,2.2464,2.6876,2.8899,2.6411,2.54,2.3198,1.9233,1.8042,1.6845,1.5275,1.5181,1.5181,1.5181,1.9149,2.3198,2.725,2.8989,2.9913,2.9913,2.9913,2.9913,2.9734,2.5673,2.3381,2.2372,2.0899,2.1544,2.3838,2.3849,2.6229,2.9913,2.9913,2.9913,2.9913,2.9913,2.9913,2.9913,2.9913,2.9913,2.9644,2.8076,2.7521,2.7238,2.5582,2.6229,2.7521,2.7521,2.8719,2.9913,2.9913,2.9913,2.9913,2.9913,2.9913,2.9913,2.9913,2.9913,2.9913,2.9913,2.9913,2.9793,2.9392,2.9165,2.8898,2.8497,2.827,2.8221,2.8221,2.8221,2.8221,2.8221,2.8221,2.8221,2.8221,2.8221,2.8221,2.8221,2.8221,2.8221,2.8221,2.8221,2.8033,2.7549,2.7362,2.6974,2.6386,2.6386,2.6386,2.6386,2.6386,2.6386,0.8927,0.0,0.0,0.0,1.1653,1.2216,1.3119,1.3668,1.4061,1.4312,1.4523,1.4679,1.4733,1.4903,1.5052,1.5106,1.5889,1.6471,1.6471,2.0622,2.3747,2.3747,2.7431,2.9272,2.7612,2.6695,2.4478,2.0437,1.9335,1.7856,1.5368,1.5181,1.5924,1.7584,2.0806,2.4854,2.9824,2.9913,2.9913,2.9913,2.9913,2.9451,2.8526,2.4398,2.2464,2.2372,1.9974,2.0252,2.2556,2.3483,2.6229,2.9824,2.8989,2.8629,2.8629,2.8629,2.8629,2.8629,2.8629,2.8629,2.8256,2.5775,2.4945,2.4671,2.3014,2.4204,2.6229,2.6229,2.7985,2.9913,2.9913,2.9913,2.9913,2.9913,2.9913,2.9913,2.9913,2.9913,2.9913,2.9913,2.9913,2.982,2.9539,2.9325,2.9058,2.8671,2.843,2.8257,2.8248,2.8221,2.8221,2.8221,2.8221,2.8221,2.8221,2.8221,2.8221,2.8221,2.8221,2.8221,2.8221,2.8221,2.8003,2.7709,2.7509,2.7175,2.668,2.648,2.6386,2.6386,2.6386,2.6386,0.0,0.0,0.0,0.0,0.0,0.0,1.2684,0.0,1.3119,1.3878,1.4258,1.4509,1.4679,1.4719,1.4774,1.493,1.7088,1.8761,1.8854,2.2994,2.6115,2.6206,2.8321,2.99,2.99,2.769,2.5309,2.2749,2.0344,1.7856,1.5368,1.5181,1.7398,2.2372,2.2464,2.4854,2.9824,2.9913,2.9913,2.9913,2.9913,2.8629,2.6229,2.3747,2.2647,2.2464,2.0159,2.0437,2.2831,2.5218,2.7702,2.9644,2.7148,2.6229,2.6229,2.6139,2.6048,2.6048,2.6048,2.6048,2.5684,2.33,2.2474,2.2474,2.2372,2.4021,2.6048,2.6048,2.7883,2.9824,2.9913,2.9913,2.9913,2.9913,2.9913,2.9913,2.9913,2.9913,2.9913,2.9913,2.9913,2.982,2.9539,2.9486,2.9285,2.8724,2.8617,2.8497,2.8274,2.8234,2.8221,2.8221,2.8221,2.8221,2.8221,2.8221,2.8221,2.8221,2.8221,2.8221,2.8221,2.8221,2.8087,2.7722,2.7709,2.7562,2.7281,2.6694,2.64,2.64,2.6386,2.6386,0.816,0.0,0.0,0.0,0.0,0.0,0.0,0.0,1.1932,1.2901,1.3166,1.3397,1.398,1.4272,1.4434,1.4475,1.523,1.6491,1.8118,2.108,2.3694,2.5411,2.775,2.9366,2.9579,2.8958,2.6941,2.2923,2.1912,1.9706,1.5462,1.5181,1.7398,2.2372,2.2464,2.4854,2.9824,2.9913,2.9913,2.9913,2.9913,2.9541,2.8809,2.632,2.5218,2.5127,2.4478,2.4569,2.5218,2.5957,2.7702,2.9644,2.7148,2.6229,2.5957,2.4204,2.3564,2.3564,2.3564,2.3564,2.3106,2.0714,1.9882,1.9613,1.7771,1.8964,2.1258,2.3014,2.5309,2.7612,2.9451,2.9913,2.9913,2.9913,2.9913,2.9913,2.9913,2.9913,2.9913,2.9913,2.9913,2.9887,2.9806,2.9619,2.9432,2.9259,2.8885,2.8577,2.8484,2.8283,2.8221,2.8221,2.8221,2.8221,2.8221,2.8221,2.8221,2.8221,2.8221,2.8221,2.8221,2.8221,2.8194,2.8016,2.7802,2.7655,2.7575,2.6987,2.6707,2.6694,2.6493,2.6386,0.8418,0.8601,0.0,0.0,0.0,0.0,1.0432,1.0772,1.1219,0.0,1.2739,1.2976,1.3471,1.381,1.4021,1.4021,1.4265,1.5674,1.9276,2.1888,2.4296,2.6621,2.8147,2.9112,2.9285,2.8393,2.6294,2.2544,2.1461,1.9257,1.5362,1.5126,1.7297,2.214,2.2323,2.4553,2.9464,2.9553,2.9553,2.9553,2.9553,2.9007,2.8004,2.6551,2.5971,2.6077,2.6077,2.6677,2.7702,2.7702,2.7985,2.8076,2.5684,2.4021,2.3004,2.1544,2.0991,2.0991,2.0991,2.0991,2.0622,1.8135,1.7398,1.7118,1.5643,1.6939,1.9419,2.182,2.5036,2.8076,2.9541,2.9913,2.9913,2.9913,2.9913,2.9913,2.9913,2.9913,2.9913,2.9913,2.9913,2.9913,2.9913,2.978,2.9619,2.9499,2.9085,2.8751,2.8617,2.8337,2.8221,2.8221,2.8221,2.8221,2.8221,2.8221,2.8221,2.8221,2.8221,2.8221,2.8221,2.8221,2.8221,2.8221,2.7976,2.7829,2.7696,2.7228,2.7001,2.7001,2.6841,2.676,0.8906,0.8988,0.0,0.0,0.9171,0.0,1.0575,1.0622,1.0724,0.0,1.2447,1.2705,1.2935,1.3227,1.3431,1.3431,1.3736,1.5772,2.0713,2.3313,2.5635,2.823,2.8491,2.8504,2.8543,2.6747,2.445,2.171,1.9463,1.7272,1.522,1.5011,1.7118,2.1901,2.1989,2.4207,2.8945,2.9045,2.9045,2.9045,2.9045,2.7872,2.583,2.583,2.5949,2.6175,2.6199,2.7621,2.9873,2.9618,2.8166,2.5957,2.3575,2.1083,1.8871,1.8592,1.8499,1.8499,1.8499,1.8499,1.8135,1.5924,1.5181,1.5181,1.5181,1.6752,1.8964,2.1452,2.5673,2.9451,2.9451,2.9734,2.9913,2.9913,2.9734,2.9541,2.9824,2.9644,2.9554,2.9824,2.9913,2.9913,2.9913,2.9913,2.9833,2.9566,2.9285,2.8978,2.8698,2.839,2.8261,2.8234,2.8221,2.8221,2.8221,2.8221,2.8221,2.8221,2.8221,2.8221,2.8221,2.8221,2.8221,2.8221,2.8221,2.8016,2.7749,2.7455,2.7295,2.7268,2.7268,2.7268,0.9374,0.9381,0.9449,0.9144,0.9252,0.0,0.9225,0.9401,0.9774,0.0,1.0509,1.0846,1.1599,1.1979,1.2182,1.2182,1.284,1.4536,1.7897,1.8907,2.0831,2.5015,2.553,2.5615,2.5832,2.5497,2.3457,1.9375,1.6832,1.5244,1.4821,1.4801,1.6938,2.177,2.1909,2.4207,2.8945,2.9045,2.9045,2.9045,2.9045,2.877,2.8321,2.8321,2.836,2.8426,2.8647,2.9057,2.9402,2.7615,2.6604,2.5957,2.3473,2.1083,1.8685,1.6658,1.5917,1.5917,1.5917,1.5917,1.583,1.5368,1.5181,1.5181,1.5181,1.5556,1.6479,1.8871,2.3106,2.6966,2.6966,2.8436,2.9913,2.9913,2.8346,2.7431,2.9451,2.8346,2.7521,2.9541,2.9913,2.9913,2.9913,2.9913,2.99,2.9847,2.9579,2.9285,2.8991,2.8698,2.8417,2.8248,2.8221,2.8221,2.8221,2.8221,2.8221,2.8221,2.8221,2.8221,2.8221,2.8221,2.8221,2.8221,2.8221,2.8194,2.814,2.7762,2.7495,2.7268,2.7268,2.7268,0.9897,0.9829,0.9869,0.9571,0.9496,0.0,0.0,0.9381,0.9571,1.0243,1.027,1.0344,1.0948,1.124,1.1416,1.1484,1.225,1.3335,1.4779,1.6498,1.8849,2.234,2.3702,2.4434,2.4564,2.3573,2.1189,1.6736,1.534,1.4658,1.4733,1.4665,1.6759,2.1461,2.1615,2.3838,2.8591,2.8591,2.8591,2.8591,2.8591,2.8591,2.8591,2.8591,2.8671,2.8831,2.8978,2.8491,2.7585,2.6444,2.4652,2.2454,2.1175,1.9242,1.6939,1.5643,1.5181,1.5181,1.5181,1.5181,1.5181,1.5181,1.5181,1.5181,1.5181,1.6011,1.7305,1.8592,2.1534,2.4671,2.5866,2.7148,2.8346,2.9644,2.8989,2.8076,2.8076,2.8076,2.8076,2.8076,2.9079,2.9913,2.9913,2.9913,2.9913,2.9913,2.9673,2.9379,2.9072,2.8791,2.8484,2.8261,2.8221,2.8221,2.8221,2.8221,2.8221,2.8221,2.8221,2.8221,2.8221,2.8221,2.8221,2.8221,2.8221,2.8221,2.8221,2.7989,2.7843,2.7792,2.7792,2.7792,1.0582,1.046,1.05,1.0238,0.9971,0.9734,0.0,0.0,0.0,1.0209,1.0168,1.0107,0.0,0.0,0.0,1.0799,0.0,0.0,0.0,1.4482,0.0,1.961,2.1541,2.2598,2.2598,2.0637,1.7948,1.4619,1.4333,1.4387,1.4597,1.4965,1.7024,2.1231,2.1659,2.3727,2.7448,2.7968,2.7968,2.7532,2.7968,2.8221,2.8221,2.8221,2.8283,2.8524,2.8136,2.7096,2.5612,2.4755,2.2172,1.8769,1.8837,1.7398,1.5181,1.5181,1.5181,1.5181,1.5181,1.5181,1.5181,1.5181,1.5181,1.5181,1.5181,1.6565,1.8228,1.8228,1.9974,2.228,2.4295,2.5491,2.6683,2.8719,2.9182,2.8809,2.7238,2.8076,2.8719,2.7238,2.8526,2.9913,2.9913,2.9913,2.9913,2.9913,2.9713,2.9432,2.9085,2.8831,2.8551,2.8261,2.8221,2.8221,2.8221,2.8221,2.8221,2.8221,2.8221,2.8221,2.8221,2.8221,2.8221,2.8221,2.8221,2.8221,2.8221,2.8221,2.8221,2.8221,2.8221,2.8221,1.1613,1.1545,1.143,1.0487,1.0609,1.0588,0.9184,0.0,0.9462,0.9028,0.0,0.9137,0.0,0.0,0.0,0.0,0.0,0.0,1.0717,1.1476,1.3252,1.6476,1.7404,1.77,1.77,1.5541,1.4026,1.3885,1.3675,1.3709,1.4129,1.6251,1.8575,2.1175,2.3223,2.4605,2.5117,2.7194,2.7194,2.5117,2.7194,2.8221,2.8221,2.8221,2.8248,2.8119,2.6278,2.5362,2.4911,2.0858,1.8897,1.8505,1.8736,1.7398,1.5181,1.5181,1.5181,1.5181,1.5181,1.5181,1.5181,1.5181,1.5181,1.5181,1.5181,1.5368,1.5643,1.5643,1.7398,1.9326,1.9697,2.2912,2.6229,2.6502,2.6604,2.7148,2.9092,2.7973,2.7148,2.9079,2.9734,2.9913,2.9913,2.9913,2.9913,2.9913,2.9887,2.9673,2.9112,2.9005,2.8778,2.8288,2.8221,2.8221,2.8221,2.8221,2.8221,2.8221,2.8221,2.8221,2.8221,2.8221,2.8221,2.8221,2.8221,2.8221,2.8221,2.8221,2.8221,2.8221,2.8221,2.8221,1.1674,1.1721,1.1735,1.0778,1.0724,1.0609,0.949,0.9225,0.9198,0.9117,0.0,0.0,0.0,0.0,0.0,0.0,0.9802,0.0,0.0,0.0,1.1538,1.3393,0.0,0.0,1.6035,1.535,1.4458,1.3636,1.339,1.3464,1.3912,1.5024,1.6792,1.9141,2.0183,2.1307,2.2697,2.3641,2.3641,2.2697,2.3641,2.485,2.6151,2.6151,2.6927,2.8065,2.5848,2.4148,2.2704,1.9453,1.742,1.628,1.6415,1.5888,1.5059,1.5059,1.5113,1.5181,1.5181,1.5181,1.5181,1.5181,1.5181,1.5181,1.5181,1.5181,1.5181,1.5181,1.5924,1.7118,1.8499,2.1452,2.4489,2.5866,2.7328,2.8256,2.7792,2.8076,2.8256,2.7792,2.8899,2.9913,2.9913,2.9913,2.9913,2.9913,2.9913,2.97,2.9112,2.9045,2.8804,2.8288,2.8221,2.8221,2.8221,2.8221,2.8221,2.8221,2.8221,2.8221,2.8221,2.8221,2.8221,2.8221,2.8221,2.8221,2.8221,2.8221,2.8221,2.8221,2.8221,2.8221,1.2013,1.206,1.2054,1.0989,1.0717,1.0493,0.9625,0.93,0.9218,0.9354,0.9252,0.0,0.0,0.0,0.0,0.0,0.0,0.9815,0.0,0.9883,0.0,0.0,0.0,0.0,0.0,1.457,1.4253,1.3157,1.2895,1.3051,1.3627,1.4429,1.5744,1.7679,1.834,1.9228,2.0269,2.0875,2.0875,2.0269,2.0875,2.2428,2.4691,2.4691,2.5981,2.8052,2.5032,2.2794,2.1114,1.8231,1.6025,1.4618,1.4618,1.4713,1.4848,1.4896,1.4997,1.5126,1.5126,1.5153,1.5181,1.5181,1.5181,1.5181,1.5181,1.5181,1.5181,1.5181,1.5181,1.5643,1.7398,1.9706,2.2188,2.458,2.7057,2.8629,2.7431,2.8629,2.9362,2.7521,2.8719,2.9913,2.9913,2.9913,2.9913,2.9913,2.9913,2.974,2.9232,2.9085,2.8845,2.8323,2.8274,2.8221,2.8221,2.8221,2.8221,2.8221,2.8221,2.8221,2.8221,2.8221,2.8221,2.8221,2.8221,2.8221,2.8221,2.8221,2.8221,2.8221,2.8221,2.8221,1.3071,1.2922,1.2576,1.109,1.0717,1.0412,0.9175,0.9395,0.9713,0.9435,0.9836,1.0141,0.9856,0.0,0.0,0.0,0.0,0.0,0.0,0.0,0.0,0.0,0.0,0.0,0.0,1.1434,1.1598,1.2135,1.1959,1.2257,1.3146,1.5601,1.7196,1.7484,1.9818,2.0096,1.7938,2.0096,2.0096,1.7929,2.0183,2.2428,2.4691,2.4691,2.5981,2.7968,2.3298,2.1307,2.0885,1.6305,1.4401,1.4312,1.4312,1.4401,1.4543,1.4692,1.4841,1.4977,1.4977,1.5065,1.5181,1.5181,1.5181,1.5181,1.5181,1.5181,1.5181,1.5181,1.5181,1.5181,1.5275,1.7118,1.9604,2.2004,2.4489,2.6966,2.9272,2.9824,2.9913,2.9824,2.9824,2.9913,2.9913,2.9913,2.9913,2.9913,2.9913,2.9806,2.9513,2.9219,2.8925,2.8631,2.8323,2.8221,2.8221,2.8221,2.8221,2.8221,2.8221,2.8221,2.8221,2.8221,2.8221,2.8221,2.8221,2.8221,2.8221,2.8221,2.8221,2.8221,2.8221,2.8221,1.3356,1.3546,1.3464,1.1857,1.1457,1.109,0.97,0.9626,0.9829,0.9591,1.0005,1.0331,0.9963,0.0,0.0,0.0,0.0,0.0,0.0,0.0,0.0,0.0,0.0,0.0,0.0,0.0,1.1287,1.1592,1.1843,1.2244,1.2847,1.3984,1.4769,1.5008,1.5948,1.6181,1.5513,1.621,1.621,1.5513,1.6298,1.8636,2.2353,2.2353,2.4508,2.7968,2.3201,2.1221,2.0875,1.621,1.4299,1.4299,1.4299,1.4333,1.4387,1.4536,1.4753,1.4984,1.5079,1.514,1.5181,1.5181,1.5181,1.5181,1.5181,1.5181,1.5556,1.7211,1.767,1.8042,1.9613,2.1912,2.393,2.4763,2.6876,2.8899,2.9734,2.9913,2.9913,2.9913,2.9913,2.9913,2.9913,2.9913,2.9913,2.9913,2.9913,2.9806,2.9526,2.9219,2.8925,2.8644,2.8323,2.8221,2.8221,2.8221,2.8221,2.8221,2.8221,2.8221,2.8221,2.8221,2.8221,2.8221,2.8221,2.8221,2.8221,2.8221,2.8221,2.8221,2.8221,2.8221,1.3804,1.3966,1.3899,1.2562,1.2149,1.1735,1.0453,1.0432,1.0536,1.0304,1.0548,1.0819,1.0839,0.0,0.0,0.0,0.0,0.0,0.0,0.8465,0.0,0.0,0.0,0.0,0.0,1.0283,1.0744,1.1267,1.143,1.1796,0.0,1.2915,1.3295,1.3593,1.3905,1.4122,1.4217,1.4272,1.4299,1.4299,1.4299,1.6298,2.0009,2.0009,2.2084,2.5543,2.1653,2.0009,1.9662,1.5858,1.4299,1.4299,1.4299,1.4299,1.4312,1.4401,1.4631,1.4916,1.5113,1.5181,1.5181,1.5181,1.5181,1.5181,1.5181,1.5181,1.5737,1.8228,1.8871,1.9419,2.1912,2.3758,2.5127,2.5957,2.7431,2.8809,2.9734,2.9913,2.9913,2.9913,2.9913,2.9913,2.9913,2.9913,2.9913,2.9913,2.9913,2.9847,2.9659,2.9379,2.9085,2.8791,2.8484,2.827,2.8234,2.8221,2.8221,2.8221,2.8221,2.8221,2.8221,2.8221,2.8221,2.8221,2.8221,2.8221,2.8221,2.8221,2.8221,2.8221,2.8221,2.8221]}]]